[[{"header":{"parameterUnit":"m.s-1","parameterCategory":1,"la1":30.6,"la2":29.2853,"lo1":-89.7004,"lo2":-87.6739,"dy":0.0162,"dx":0.0183,"nx":112,"ny":82,"refTime":"2024-07-10T06:00:00:Z","depth":0,"parameterNumber":2,"parameterNumberName":"U-component_of_WINDS"},"data":[0.0,0.0,0.0,0.0,0.0,0.0,0.0,0.0,0.0,0.0,0.0,0.0,0.0,0.0,0.0,0.0,0.0,0.0,0.0,0.0,0.0,0.0,0.0,0.0,0.0,0.0,0.0,0.0,0.0,0.0,0.0,0.0,0.0,0.0,0.0,0.0,0.0,0.0,0.0,0.0,0.0,0.0,0.0,0.0,0.0,0.0,0.0,0.0,0.0,0.0,0.0,0.0,0.0,0.0,0.0,0.0,0.0,0.0,0.0,0.0,0.0,0.0,0.0,0.0,0.0,0.0,0.0,0.0,0.0,0.0,0.0,0.0,0.0,0.0,0.0,0.0,0.0,0.0,0.0,0.0,0.0,0.0,0.0,0.0,0.0,0.0,0.0,0.0,0.0,0.0,0.0,-0.9699,-1.1117,-1.2172,-1.2643,-1.2677,-1.1934,-1.0225,0.0,0.0,0.0,0.0,0.0,0.0,0.0,0.0,0.0,0.0,0.0,0.0,0.0,0.0,0.0,0.0,0.0,0.0,0.0,0.0,0.0,0.0,0.0,0.0,0.0,0.0,0.0,0.0,0.0,0.0,0.0,0.0,0.0,0.0,0.0,0.0,0.0,0.0,0.0,0.0,0.0,0.0,0.0,0.0,0.0,0.0,0.0,0.0,0.0,0.0,0.0,0.0,0.0,0.0,0.0,0.0,0.0,0.0,0.0,0.0,0.0,0.0,0.0,0.0,0.0,0.0,0.0,0.0,0.0,0.0,0.0,0.0,0.0,0.0,0.0,0.0,0.0,0.0,0.0,0.0,0.0,0.0,0.0,0.0,0.0,0.0,0.0,0.0,0.0,0.0,0.0,0.0,0.0,0.0,0.0,0.0,0.0,0.0,0.0,0.0,0.0,0.0,0.0,0.0,-0.8626,-1.0807,-1.1617,-1.2024,-1.2098,-1.2123,-1.1426,-0.9795,0.0,0.0,0.0,0.0,0.0,0.0,0.0,0.0,0.0,0.0,0.0,0.0,0.0,0.0,0.0,0.0,0.0,0.0,0.0,0.0,0.0,0.0,0.0,0.0,0.0,0.0,0.0,0.0,0.0,0.0,0.0,0.0,0.0,0.0,0.0,0.0,0.0,0.0,0.0,0.0,0.0,0.0,0.0,0.0,0.0,0.0,0.0,0.0,0.0,0.0,0.0,0.0,0.0,0.0,0.0,0.0,0.0,0.0,0.0,0.0,0.0,0.0,0.0,0.0,0.0,0.0,0.0,0.0,0.0,0.0,0.0,0.0,0.0,0.0,0.0,0.0,0.0,0.0,0.0,0.0,0.0,0.0,0.0,0.0,0.0,0.0,0.0,0.0,0.0,0.0,0.0,0.0,0.0,0.0,0.0,0.0,0.0,0.0,0.0,0.0,0.0,0.0,0.0,-0.7938,-0.8882,-1.1079,-1.1242,-1.1309,-1.1594,-1.1619,-1.1033,-0.968,-0.9166,0.0,0.0,0.0,0.0,0.0,0.0,0.0,0.0,0.0,0.0,0.0,0.0,0.0,0.0,0.0,0.0,0.0,0.0,0.0,0.0,0.0,0.0,0.0,0.0,0.0,0.0,0.0,0.0,0.0,0.0,0.0,0.0,0.0,0.0,0.0,0.0,0.0,0.0,0.0,0.0,0.0,0.0,0.0,0.0,0.0,0.0,0.0,0.0,0.0,0.0,0.0,0.0,0.0,0.0,0.0,0.0,0.0,0.0,0.0,0.0,0.0,0.0,0.0,0.0,0.0,0.0,0.0,0.0,0.0,0.0,0.0,0.0,0.0,0.0,0.0,0.0,0.0,0.0,0.0,0.0,0.0,0.0,0.0,0.0,0.0,0.0,0.0,0.0,0.0,0.0,0.0,0.0,0.0,0.0,0.0,0.0,0.0,0.0,0.0,0.0,0.0,0.0,-0.8786,-0.9266,-1.0931,-1.0744,-1.0675,-1.1074,-1.088,-1.0291,-0.9237,-0.8291,0.0,0.0,0.0,0.0,0.0,0.0,0.0,0.0,0.0,0.0,0.0,0.0,0.0,0.0,0.0,0.0,0.0,0.0,0.0,0.0,0.0,0.0,0.0,0.0,0.0,0.0,0.0,0.0,0.0,0.0,0.0,0.0,0.0,0.0,0.0,0.0,0.0,0.0,0.0,0.0,0.0,0.0,0.0,0.0,0.0,0.0,0.0,0.0,0.0,0.0,0.0,0.0,0.0,0.0,0.0,0.0,0.0,0.0,0.0,0.0,0.0,0.0,0.0,0.0,0.0,0.0,0.0,0.0,0.0,0.0,0.0,0.0,0.0,0.0,0.0,0.0,0.0,0.0,0.0,0.0,0.0,0.0,0.0,0.0,0.0,0.0,0.0,0.0,0.0,0.0,0.0,0.0,0.0,0.0,0.0,0.0,0.0,0.0,0.0,0.0,0.0,0.0,-0.8558,-0.9644,-1.0459,-1.0522,-1.0522,-1.0539,-0.9643,-0.8747,-0.797,-0.6698,0.0,0.0,0.0,0.0,0.0,0.0,0.0,0.0,0.0,0.0,0.0,0.0,0.0,0.0,0.0,0.0,0.0,0.0,0.0,0.0,0.0,0.0,0.0,0.0,0.0,0.0,0.0,0.0,0.0,0.0,0.0,0.0,0.0,0.0,0.0,0.0,0.0,0.0,0.0,0.0,0.0,0.0,0.0,0.0,0.0,0.0,0.0,0.0,0.0,0.0,0.0,0.0,0.0,0.0,0.0,0.0,0.0,0.0,0.0,0.0,0.0,0.0,0.0,0.0,0.0,0.0,0.0,0.0,0.0,0.0,0.0,0.0,0.0,0.0,0.0,0.0,0.0,0.0,0.0,0.0,0.0,0.0,0.0,0.0,0.0,0.0,0.0,0.0,0.0,0.0,0.0,0.0,0.0,0.0,0.0,0.0,0.0,0.0,0.0,0.0,0.0,0.0,-0.8238,-0.9222,0.0,-1.0496,-1.0496,-1.0496,-0.9898,-0.9026,-0.7885,0.0,0.0,0.0,0.0,0.0,0.0,0.0,0.0,0.0,0.0,0.0,0.0,0.0,0.0,0.0,0.0,0.0,0.0,0.0,0.0,0.0,0.0,0.0,0.0,0.0,0.0,0.0,0.0,0.0,0.0,0.0,0.0,0.0,0.0,0.0,0.0,0.0,0.0,0.0,0.0,0.0,0.0,0.0,0.0,0.0,0.0,0.0,0.0,0.0,0.0,0.0,0.0,0.0,0.0,0.0,0.0,0.0,0.0,0.0,0.0,0.0,0.0,0.0,0.0,0.0,0.0,0.0,0.0,0.0,0.0,0.0,0.0,0.0,0.0,0.0,0.0,0.0,0.0,0.0,0.0,0.0,0.0,0.0,0.0,0.0,0.0,0.0,0.0,0.0,0.0,0.0,0.0,0.0,0.0,0.0,0.0,0.0,0.0,0.0,0.0,0.0,0.0,-0.7593,-0.8436,-0.9375,0.0,-1.0598,-1.0496,-1.0496,-0.9835,-0.8921,-0.7719,0.0,0.0,0.0,0.0,0.0,0.0,0.0,0.0,0.0,0.0,0.0,0.0,0.0,0.0,0.0,0.0,0.0,0.0,0.0,0.0,0.0,0.0,0.0,0.0,0.0,0.0,0.0,0.0,0.0,0.0,0.0,0.0,0.0,0.0,0.0,0.0,0.0,0.0,0.0,0.0,0.0,0.0,0.0,0.0,0.0,0.0,0.0,0.0,0.0,0.0,0.0,0.0,0.0,0.0,0.0,0.0,0.0,0.0,0.0,0.0,0.0,0.0,0.0,0.0,0.0,0.0,0.0,0.0,0.0,0.0,0.0,0.0,0.0,0.0,0.0,0.0,0.0,0.0,0.0,0.0,0.0,0.0,0.0,0.0,0.0,0.0,0.0,0.0,0.0,0.0,0.0,0.0,0.0,0.0,0.0,0.0,0.0,0.0,0.0,0.0,0.0,0.0,-0.8008,-0.9199,-1.0318,-1.1215,-1.082,-1.0522,-1.0522,-0.9236,-0.8099,0.0,0.0,0.0,0.0,0.0,0.0,0.0,0.0,0.0,0.0,0.0,0.0,0.0,0.0,0.0,0.0,0.0,0.0,0.0,0.0,0.0,0.0,0.0,0.0,0.0,0.0,0.0,0.0,0.0,0.0,0.0,0.0,0.0,0.0,0.0,0.0,0.0,0.0,0.0,0.0,0.0,0.0,0.0,0.0,0.0,0.0,0.0,0.0,0.0,0.0,0.0,0.0,0.0,0.0,0.0,0.0,0.0,0.0,0.0,0.0,0.0,0.0,0.0,0.0,0.0,0.0,0.0,0.0,0.0,0.0,0.0,0.0,0.0,0.0,0.0,0.0,0.0,0.0,0.0,0.0,0.0,0.0,0.0,0.0,0.0,0.0,0.0,0.0,0.0,0.0,0.0,0.0,0.0,0.0,0.0,0.0,0.0,0.0,0.0,0.0,0.0,0.0,0.0,-0.7469,-0.8732,-1.0022,-1.119,-1.115,-1.1074,-1.1074,-1.0206,-0.899,-0.7398,0.0,0.0,0.0,0.0,0.0,0.0,0.0,0.0,0.0,0.0,0.0,0.0,0.0,0.0,0.0,0.0,0.0,0.0,0.0,0.0,0.0,0.0,0.0,0.0,0.0,0.0,0.0,0.0,0.0,0.0,0.0,0.0,0.0,0.0,0.0,0.0,0.0,0.0,0.0,0.0,0.0,0.0,0.0,0.0,0.0,0.0,0.0,0.0,0.0,0.0,0.0,0.0,0.0,0.0,0.0,0.0,0.0,0.0,0.0,0.0,0.0,0.0,0.0,0.0,0.0,0.0,0.0,0.0,0.0,0.0,0.0,0.0,0.0,0.0,0.0,0.0,0.0,0.0,0.0,0.0,0.0,0.0,0.0,0.0,0.0,0.0,0.0,0.0,0.0,0.0,0.0,0.0,0.0,0.0,0.0,0.0,0.0,0.0,0.0,0.0,0.0,0.0,-0.7704,-0.9178,-1.0472,-1.1233,-1.1099,-1.0972,-1.0972,-1.0438,-0.9352,-0.7602,0.0,0.0,0.0,0.0,0.0,0.0,0.0,0.0,0.0,0.0,0.0,0.0,0.0,0.0,0.0,0.0,0.0,0.0,0.0,0.0,0.0,0.0,0.0,0.0,0.0,0.0,0.0,0.0,0.0,0.0,0.0,0.0,0.0,0.0,0.0,0.0,0.0,0.0,0.0,0.0,0.0,0.0,0.0,0.0,0.0,0.0,0.0,0.0,0.0,0.0,0.0,0.0,0.0,0.0,0.0,0.0,0.0,0.0,0.0,0.0,0.0,0.0,0.0,0.0,0.0,0.0,0.0,0.0,0.0,0.0,0.0,0.0,0.0,0.0,0.0,0.0,0.0,0.0,0.0,0.0,0.0,0.0,0.0,0.0,0.0,0.0,0.0,0.0,0.0,0.0,0.0,0.0,0.0,0.0,0.0,0.0,0.0,0.0,0.0,0.0,0.0,0.0,-0.8384,-1.0086,-1.1307,-1.1425,-1.0964,-1.0667,-1.0718,-1.0302,-0.9448,-0.8026,0.0,0.0,0.0,0.0,0.0,0.0,0.0,0.0,0.0,0.0,0.0,0.0,0.0,0.0,0.0,0.0,0.0,0.0,0.0,0.0,0.0,0.0,0.0,0.0,0.0,0.0,0.0,0.0,0.0,0.0,0.0,0.0,0.0,0.0,0.0,0.0,0.0,0.0,0.0,0.0,0.0,0.0,0.0,0.0,0.0,0.0,0.0,0.0,0.0,0.0,0.0,0.0,0.0,0.0,0.0,0.0,0.0,0.0,0.0,0.0,-0.8429,0.0,0.0,0.0,0.0,0.0,0.0,0.0,0.0,0.0,0.0,0.0,0.0,0.0,0.0,0.0,0.0,0.0,0.0,0.0,0.0,0.0,0.0,0.0,0.0,0.0,0.0,0.0,0.0,0.0,0.0,0.0,0.0,0.0,0.0,0.0,0.0,0.0,0.0,0.0,0.0,0.0,-0.8466,-0.9527,-1.0798,-1.2312,-1.1999,-1.185,-1.2276,-1.1592,-1.0511,-0.8993,-0.7827,0.0,0.0,0.0,0.0,0.0,0.0,0.0,0.0,0.0,0.0,0.0,0.0,0.0,0.0,0.0,0.0,0.0,0.0,0.0,0.0,0.0,0.0,0.0,0.0,0.0,0.0,0.0,0.0,0.0,0.0,0.0,0.0,0.0,0.0,0.0,0.0,0.0,0.0,0.0,0.0,0.0,0.0,0.0,0.0,0.0,0.0,0.0,0.0,0.0,0.0,0.0,0.0,0.0,0.0,0.0,0.0,0.0,0.0,0.0,0.0,-0.9156,0.0,0.0,0.0,0.0,0.0,0.0,0.0,0.0,0.0,0.0,0.0,0.0,0.0,0.0,0.0,0.0,0.0,0.0,0.0,0.0,0.0,0.0,0.0,0.0,0.0,0.0,0.0,0.0,0.0,0.0,0.0,0.0,0.0,0.0,0.0,0.0,0.0,0.0,0.0,0.0,-0.8835,-0.9891,-1.0863,-1.1616,-1.146,-1.1385,-1.1667,-1.1268,-1.0542,-0.9369,-0.8367,0.0,0.0,0.0,0.0,0.0,0.0,0.0,0.0,0.0,0.0,0.0,0.0,0.0,0.0,0.0,0.0,0.0,0.0,0.0,0.0,0.0,0.0,0.0,0.0,0.0,0.0,0.0,0.0,0.0,0.0,0.0,0.0,0.0,0.0,0.0,0.0,0.0,0.0,0.0,0.0,0.0,0.0,0.0,0.0,0.0,0.0,0.0,0.0,0.0,0.0,0.0,0.0,0.0,-1.4744,-1.3585,-1.3244,-1.1755,-1.1222,-1.1457,-1.1014,-1.0757,-1.0666,0.0,0.0,0.0,0.0,0.0,0.0,0.0,0.0,0.0,0.0,0.0,0.0,0.0,0.0,0.0,0.0,0.0,0.0,0.0,0.0,0.0,0.0,0.0,0.0,0.0,-1.1913,-1.1757,0.0,0.0,0.0,0.0,0.0,0.0,0.0,0.0,0.0,0.0,0.0,0.0,-0.9627,-1.0727,-1.1318,-1.1065,-1.0964,-1.0939,-1.104,-1.0964,-1.0574,-0.9804,-0.9115,-0.8383,0.0,0.0,0.0,0.0,0.0,0.0,0.0,0.0,0.0,0.0,0.0,0.0,0.0,0.0,0.0,0.0,0.0,0.0,0.0,0.0,0.0,0.0,0.0,0.0,0.0,0.0,0.0,0.0,0.0,0.0,0.0,0.0,-0.7395,-0.789,0.0,0.0,0.0,0.0,0.0,0.0,0.0,0.0,0.0,0.0,0.0,0.0,0.0,0.0,-1.3108,-1.3968,-1.4527,-1.4801,-1.6105,-1.5946,-1.4447,-1.3411,-1.2961,-1.3043,-1.3767,0.0,-1.2619,-1.3456,0.0,0.0,0.0,0.0,0.0,0.0,0.0,0.0,0.0,0.0,0.0,0.0,0.0,0.0,0.0,0.0,0.0,0.0,0.0,0.0,0.0,0.0,-1.389,-1.4355,-1.45,-1.4376,0.0,-1.1758,-1.0056,-0.9881,-0.921,0.0,0.0,0.0,0.0,0.0,0.0,0.0,-1.1322,-1.1724,-1.2255,-1.3098,-1.2774,-1.2701,-1.3146,-1.2774,-1.2128,-1.128,-1.0433,-0.9567,-0.8728,-0.7666,0.0,0.0,0.0,0.0,0.0,0.0,0.0,0.0,0.0,0.0,0.0,0.0,0.0,0.0,0.0,0.0,0.0,0.0,0.0,0.0,0.0,0.0,0.0,0.0,0.0,0.0,0.0,0.0,0.0,-0.7418,-0.8378,-0.8633,-0.8898,-0.876,0.0,0.0,0.0,0.0,0.0,0.0,0.0,0.0,0.0,-1.0012,-1.0766,-1.2733,-1.6004,-1.6037,-1.6037,-1.6037,-1.6317,-1.6084,-1.5394,-1.5504,-1.4975,-1.4012,-1.4402,-1.4905,-1.5323,-1.4681,-1.3904,-1.29,0.0,0.0,0.0,0.0,-0.8115,-1.0481,-1.2457,-1.3696,0.0,-1.4046,0.0,0.0,0.0,0.0,0.0,0.0,0.0,0.0,0.0,0.0,-1.4428,-1.4883,-1.4997,-1.4945,-1.4738,-1.3755,-1.2606,0.0,-1.0866,-1.0125,-0.9225,0.0,0.0,0.0,0.0,0.0,-1.148,-1.158,-1.166,-1.185,-1.1651,-1.1592,-1.185,-1.1642,-1.1332,-1.0954,-1.0364,-0.9864,-0.9485,-0.8468,-0.7738,0.0,0.0,0.0,0.0,0.0,0.0,0.0,0.0,0.0,0.0,0.0,0.0,0.0,0.0,0.0,0.0,0.0,0.0,0.0,0.0,0.0,0.0,0.0,0.0,0.0,0.0,0.0,0.0,-0.855,-0.9293,-0.9514,-1.0062,-1.0072,0.0,0.0,0.0,0.0,0.0,0.0,-1.1491,-1.1941,-1.2513,-1.329,-1.2898,-1.4157,-1.7284,-1.7306,-1.7558,-1.7999,-1.6705,-1.6126,-1.6196,-1.6887,-1.6447,-1.5151,-1.5697,-1.6718,-1.7868,-1.595,-1.514,-1.5074,-1.4329,-1.2278,-0.9796,-0.9796,-1.2058,-1.514,-1.514,-1.5091,-1.4944,-1.4474,0.0,-1.4757,-1.2497,0.0,0.0,0.0,0.0,-1.3617,-1.4449,-1.4656,-1.478,-1.5245,-1.5349,-1.5349,-1.5349,-1.5256,-1.4738,0.0,-1.2608,-1.1913,-1.0747,0.0,0.0,0.0,0.0,-1.133,-1.1902,-1.1923,-1.1685,-1.1158,-1.1082,-1.1032,-1.0896,-1.0871,-1.0837,-1.0718,-1.0408,-1.0213,-1.0065,-0.9231,-0.8564,-0.8091,0.0,0.0,0.0,0.0,0.0,0.0,0.0,0.0,0.0,0.0,0.0,0.0,0.0,0.0,0.0,0.0,0.0,0.0,0.0,0.0,0.0,0.0,0.0,0.0,0.0,0.0,0.0,0.0,0.0,-1.066,-1.1515,0.0,0.0,0.0,0.0,-1.1355,-1.1737,-1.2343,-1.3227,-1.3716,-1.4676,-1.622,-1.5167,-1.5456,-1.7267,-1.7306,-1.8196,-1.9933,-1.7846,-1.6846,-1.6849,-1.6883,-1.6883,-1.6883,-1.893,-1.9868,-1.9824,-1.7923,-1.7153,-1.7153,-1.7109,-1.6972,-1.6787,-1.6787,-1.6934,-1.7153,-1.7153,-1.6959,-1.6613,-1.6352,-1.5484,-1.4511,-1.4355,-1.4247,0.0,0.0,-1.4521,-1.5007,-1.5494,-1.5618,-1.5742,-1.6226,-1.634,-1.634,-1.634,-1.5998,-1.5521,0.0,-1.449,-1.4003,-1.3473,0.0,-1.2739,-1.276,-1.2779,-1.2962,-1.3423,-1.3481,-1.3266,-1.274,-1.2667,-1.2472,-1.1974,-1.1934,-1.1735,-1.1293,-1.1225,-1.099,-1.049,-1.0057,-0.951,-0.8866,-0.7777,0.0,0.0,0.0,0.0,0.0,0.0,0.0,0.0,0.0,0.0,0.0,0.0,0.0,0.0,0.0,0.0,0.0,0.0,0.0,0.0,0.0,0.0,0.0,0.0,0.0,0.0,0.0,0.0,-1.1835,-1.2913,0.0,0.0,-1.3021,-1.3644,-1.3519,-1.4113,-1.4892,-1.5864,-1.6063,-1.6588,-1.7556,-1.7391,-1.7284,-1.7306,-1.8501,-1.9431,-2.0085,-1.933,-1.8965,-1.8965,-1.8965,-1.8965,-1.8998,-1.978,-2.0118,-2.0063,-1.9376,-1.9093,-1.9093,-1.9093,-1.9093,-1.9093,-1.9093,-1.8834,-1.8448,-1.8448,-1.813,-1.7631,-1.7134,-1.6423,-1.5711,-1.5714,-1.5873,-1.6035,-1.6035,-1.6376,-1.6769,-1.6934,-1.7005,-1.7017,-1.7212,-1.7026,-1.6779,-1.6779,-1.6456,-1.6112,-1.5918,-1.5277,-1.4604,-1.4138,-1.4169,-1.4159,-1.3859,-1.4066,-1.4076,-1.3611,-1.3541,-1.3209,-1.2363,-1.1999,-1.1884,-1.1974,-1.171,-1.1469,-1.1318,-1.1061,-1.0679,-1.0146,-0.9573,-0.9152,-0.8905,-0.7849,-0.6903,0.0,0.0,0.0,0.0,0.0,0.0,0.0,0.0,0.0,0.0,0.0,0.0,0.0,0.0,0.0,0.0,0.0,0.0,0.0,0.0,0.0,0.0,0.0,0.0,0.0,0.0,-1.2505,-1.2851,-1.4072,-1.4501,-1.3598,-1.4763,-1.5549,-1.5506,-1.6152,-1.6836,-1.7503,-1.769,-1.7901,-1.8212,-1.8542,-1.8545,-1.825,-1.9486,-2.0118,-2.0118,-2.0118,-2.0118,-2.0118,-2.0118,-2.0467,-2.1078,-2.1078,-2.0958,-2.0761,-2.0761,-2.0696,-2.0565,-2.0238,-2.0118,-2.0118,-2.0118,-1.9706,-1.9102,-1.8868,-1.847,-1.8026,-1.7583,-1.715,-1.6839,-1.6839,-1.7006,-1.7244,-1.7244,-1.7461,-1.7699,-1.7699,-1.7699,-1.7699,-1.7699,-1.7471,-1.7244,-1.7244,-1.6893,-1.6601,-1.6601,-1.5991,-1.5318,-1.4852,-1.5028,-1.507,-1.4614,-1.48,-1.4753,-1.4092,-1.3718,-1.3173,-1.2328,-1.1664,-1.1343,-1.1485,-1.1217,-1.1023,-1.1023,-1.078,-1.0417,-0.993,-0.9462,-0.9136,-0.8905,-0.7968,-0.7253,-0.68,0.0,0.0,0.0,0.0,0.0,0.0,0.0,0.0,0.0,0.0,0.0,0.0,0.0,0.0,0.0,0.0,0.0,0.0,0.0,0.0,0.0,0.0,0.0,-1.1635,-1.2812,-1.374,-1.3761,-1.4993,-1.5669,-1.5214,-1.6033,-1.6787,-1.7306,-1.7759,-1.804,-1.8047,-1.8455,-1.8617,-1.8343,-1.864,-1.9211,-2.0107,-2.0118,-2.0118,-2.0118,-2.0118,-2.0118,-2.0205,-2.0205,-2.1208,-2.3001,-2.2979,-2.263,-2.2108,-2.2098,-2.1912,-2.1505,-2.05,-2.0118,-2.0118,-2.0118,-1.9715,-1.9115,-1.8462,-1.811,-1.7936,-1.7802,-1.774,-1.774,-1.774,-1.774,-1.774,-1.774,-1.774,-1.774,-1.774,-1.774,-1.774,-1.774,-1.773,-1.7719,-1.7719,-1.7358,-1.7027,-1.7027,-1.6705,-1.6278,-1.5784,-1.5711,-1.5556,-1.5111,-1.5038,0.0,-1.5018,-1.4168,-1.3368,-1.28,-1.1899,-1.1133,-1.0614,-1.0555,-1.0522,-1.0522,-1.0506,-1.0313,-0.9914,-0.989,-0.9573,-0.8929,-0.8194,-0.781,-0.781,0.0,0.0,0.0,0.0,0.0,0.0,0.0,0.0,0.0,0.0,0.0,0.0,0.0,0.0,0.0,0.0,0.0,0.0,0.0,0.0,0.0,0.0,-1.3237,-1.3117,-1.4034,-1.4854,-1.5178,-1.6219,-1.683,-1.6726,-1.7529,-1.8152,-1.8294,-1.8425,-1.8648,-1.9003,-1.9149,-1.9324,-1.9609,-2.0151,-2.0314,-2.0118,-2.0118,-2.0118,-2.0118,-2.0118,-2.0838,-2.2215,-2.2215,-2.2499,-2.2979,-2.2521,-2.2262,-2.2087,-2.1857,-2.1846,-2.1857,-2.0587,-2.0118,-2.0118,-2.0118,-1.976,-1.9296,-1.8984,-1.8822,-1.8757,-1.8735,-1.8735,-1.8735,-1.8735,-1.8735,-1.8735,-1.8735,-1.8735,-1.8735,-1.8735,-1.8735,-1.8735,-1.8735,-1.8444,-1.8206,-1.8206,-1.7854,-1.7513,-1.7513,-1.7141,-1.6686,-1.6288,-1.6216,-1.6174,-1.6022,-1.6029,0.0,-1.5546,-1.5273,-1.4727,-1.3753,-1.2839,-1.2239,-1.2051,-1.1447,-1.1074,-1.1074,-1.0805,-1.0417,-0.993,-0.9676,-0.9453,-0.9263,-0.858,-0.8202,0.0,0.0,0.0,0.0,0.0,0.0,0.0,0.0,0.0,0.0,0.0,0.0,0.0,0.0,0.0,0.0,0.0,0.0,0.0,0.0,0.0,0.0,-1.398,-1.4952,-1.517,-1.5487,-1.588,-1.6383,-1.7114,-1.766,-1.7875,-1.8556,-1.8993,-1.8993,-1.9189,-1.9506,-1.9998,-2.0019,-2.0183,-2.0511,-2.0915,-2.1188,-2.1306,-2.1306,-2.1306,-2.1306,-2.1306,-2.1931,-2.3001,-2.3001,-2.3001,0.0,-2.2619,-2.2466,-2.2444,-2.2258,-2.2291,0.0,0.0,0.0,0.0,0.0,-2.037,-1.9999,-1.9596,-1.9432,-1.9357,-1.917,-1.9108,-1.9108,-1.9108,-1.9108,-1.9108,-1.9108,-1.9108,-1.9108,-1.9108,-1.9108,-1.9108,-1.9108,-1.8901,-1.8704,-1.8704,-1.8319,-1.7999,-1.7999,-1.7606,0.0,-1.6736,-1.6498,-1.6413,-1.6413,-1.6413,-1.6309,-1.6039,-1.5639,-1.5102,-1.4441,-1.3559,-1.2819,-1.235,-1.1826,0.0,0.0,0.0,-1.0401,-0.993,-0.9581,0.0,0.0,0.0,0.0,0.0,0.0,0.0,0.0,-0.8077,-0.7853,0.0,0.0,0.0,0.0,0.0,0.0,0.0,0.0,0.0,0.0,0.0,0.0,0.0,0.0,0.0,0.0,-1.5465,-1.6798,-1.7383,-1.7049,-1.6929,-1.7415,-1.7868,-1.8327,-1.8731,-1.9211,-1.9496,-1.9572,-1.9943,-2.0401,-2.0949,0.0,0.0,0.0,0.0,-2.1778,-2.2892,-2.2968,-2.3001,-2.3001,-2.3001,-2.3001,-2.3001,-2.3001,-2.3001,-2.3001,-2.3001,-2.3001,-2.3001,-2.3001,-2.3001,-2.2914,-2.2018,-2.1811,-2.1985,-2.148,-2.1207,-2.0931,-2.0333,0.0,0.0,-1.9422,-1.9287,-1.9277,-1.9191,-1.9181,-1.917,-1.9119,-1.9108,-1.9108,-1.9108,-1.9108,-1.9108,-1.9108,-1.9108,-1.9108,-1.9108,-1.8776,-1.8486,-1.8486,-1.8102,-1.7647,-1.7234,-1.6777,-1.6436,-1.6413,-1.6413,-1.6413,-1.6413,-1.5608,-1.504,-1.4946,0.0,0.0,-1.221,-1.1973,-1.1548,-1.0697,-1.0563,-1.0353,-0.9969,-0.9684,-0.9668,-0.9953,-0.9961,-1.0145,-1.0496,-1.0496,-1.0496,-1.0456,-0.8713,-0.8404,0.0,0.0,0.0,0.0,0.0,0.0,0.0,0.0,0.0,0.0,0.0,0.0,0.0,0.0,0.0,-1.5716,-1.6623,-1.7459,-1.8323,-1.8327,-1.8305,-1.8403,-1.884,-1.9147,-1.9266,-1.9682,-2.0129,-2.0588,-2.0708,-2.0971,-2.1428,-2.145,0.0,-2.1494,-2.1876,-2.2138,-2.2283,-2.275,-2.3001,-2.3001,0.0,0.0,-2.3001,-2.3001,-2.3001,-2.3001,-2.3001,-2.3001,-2.3001,-2.3001,-2.3001,-2.2947,-2.239,-2.1974,-2.1669,-2.1404,-2.1277,-2.1185,-2.0892,-2.0779,-2.0734,-2.0464,-2.0397,-2.0299,-1.9806,-1.9658,0.0,-1.9212,-1.9108,-1.9108,-1.9108,-1.9108,-1.9108,-1.9108,-1.9108,-1.9108,-1.9108,-1.9036,-1.8973,-1.8973,-1.86,-1.8226,-1.8133,-1.745,-1.6769,-1.6464,-1.6413,-1.6413,-1.6413,-1.6234,-1.5916,-1.5351,-1.4902,-1.4313,-1.3598,-1.2519,-1.1816,-1.1643,-1.0933,-1.0464,-1.0392,-1.0321,-1.0321,-1.0384,-1.0392,-1.0424,-1.0496,-1.0496,-1.0496,-1.0488,-0.9997,-1.0031,0.0,0.0,0.0,0.0,0.0,0.0,0.0,0.0,0.0,0.0,0.0,-1.2877,0.0,0.0,-1.5906,-1.7071,-1.7671,-1.8239,-1.8949,-1.9058,-1.9058,-1.9058,-1.9277,-1.9475,-1.9725,-2.0227,-2.0598,-2.0872,-2.1124,-2.1474,-2.1931,-2.1953,-2.2062,-2.2291,-2.2531,-2.2619,-2.2531,-2.2848,-2.3001,-2.3001,-2.3001,-2.3001,-2.3001,-2.3001,-2.3001,-2.3001,-2.3001,-2.3001,-2.3001,-2.3001,-2.3001,-2.2979,-2.275,-2.251,-2.2302,-2.2074,-2.1929,-2.1788,-2.1352,-2.1123,-2.0973,-2.0671,-2.0563,-2.0486,-2.0197,-1.9969,-1.9741,-1.9513,-1.9285,-1.9108,-1.9108,-1.9108,-1.9108,-1.9108,-1.9108,-1.9108,-1.9108,-1.9108,-1.9108,-1.9108,-1.8911,-1.8683,-1.8445,-1.8009,-1.7481,-1.6808,-1.6529,-1.6413,-1.6413,-1.6413,-1.6134,-1.5468,-1.5244,-1.4678,-1.355,-1.2225,-1.1461,-1.1461,-1.0843,-1.0496,-1.0496,-1.0496,-1.0496,-1.0496,-1.0496,-1.0584,-1.0759,-1.0759,-1.0846,-1.1006,-1.0925,-1.0906,0.0,0.0,0.0,0.0,0.0,0.0,0.0,0.0,-1.2354,-1.339,-1.4253,-1.5094,-1.6051,-1.6896,-1.7606,-1.8185,-1.8589,-1.9004,-1.9464,-1.9529,-1.9529,-1.9529,-1.9529,-1.9682,-2.0074,-2.0587,-2.0938,-2.1025,-2.1461,-2.1942,-2.2422,-2.2455,-2.2619,-2.299,-2.3001,-2.3001,-2.3001,-2.3001,-2.3001,-2.3001,-2.3001,-2.3001,-2.3001,-2.3001,-2.3001,-2.3001,-2.3001,-2.3001,-2.3001,-2.3001,-2.3001,-2.3001,-2.3001,-2.3001,-2.2964,-2.2815,-2.2665,-2.2424,-2.1893,-2.1571,-2.1334,-2.0912,-2.0762,-2.0715,-2.0586,-2.0307,-2.0021,-1.9844,-1.9523,-1.9212,-1.9129,-1.9108,-1.9108,-1.9108,-1.9108,-1.9108,-1.9108,-1.9108,-1.9108,-1.9108,-1.9108,-1.8984,-1.8611,-1.8465,-1.8071,-1.7151,-1.6736,-1.6477,-1.6423,-1.6413,-1.6192,-1.5652,-1.5468,-1.4742,-1.3145,-1.2008,-1.1298,-1.1098,-1.0854,-1.0695,-1.0695,-1.0695,-1.0695,-1.0695,-1.0695,-1.0838,-1.109,-1.109,-1.1233,-1.1487,-1.1559,-1.1447,-1.0004,-0.9938,0.0,-1.1632,-1.1653,-1.2027,0.0,0.0,-1.4449,-1.5836,-1.6208,-1.6579,-1.7584,-1.7857,-1.8217,-1.9113,-1.931,-1.9475,-1.9965,-2.0031,-2.0031,-2.0031,-2.0031,-2.0053,-2.0107,-2.0587,-2.1069,-2.1472,-2.1964,-2.2433,-2.2903,-2.2925,-2.2947,-2.3001,-2.3001,-2.3001,-2.3001,-2.3001,-2.3001,-2.3001,-2.3001,-2.3001,-2.3001,-2.3001,-2.3001,-2.3001,-2.3001,-2.3001,-2.3001,-2.3001,-2.3001,-2.3001,-2.3001,-2.3001,-2.3001,-2.2964,-2.2964,-2.2916,-2.2861,-2.2691,-2.2467,-2.2264,-2.2056,-2.1795,-2.1203,-2.1,-2.0793,-2.0021,-1.9761,-1.9627,-1.9212,-1.9108,-1.9108,-1.9108,-1.9108,-1.9108,-1.9108,-1.9108,-1.9108,-1.9108,-1.9108,-1.9088,-1.9036,-1.8683,-1.8071,-1.7151,-1.6965,-1.68,-1.6454,-1.6413,-1.6374,-1.6288,-1.5768,-1.4742,-1.3145,-1.2869,-1.2387,-1.1511,-1.14,-1.1404,-1.1404,-1.1404,-1.1404,-1.1404,-1.1404,-1.14,-1.1431,-1.1431,-1.1455,-1.1495,-1.1813,-1.1911,-1.2099,0.0,0.0,0.0,-1.435,-1.4797,-1.6339,-1.6579,-1.6656,-1.7267,-1.7595,-1.7999,-1.8698,-1.8799,-1.9017,0.0,-1.9813,-1.9878,-2.0085,-2.0118,-2.0118,-2.0118,-2.0118,-2.0118,-2.0118,-2.0839,-2.1408,-2.1581,-2.2291,-2.2794,-2.299,-2.3001,-2.3001,-2.3001,-2.3001,-2.3001,-2.3001,-2.3001,-2.3001,-2.3001,-2.3001,-2.3001,-2.3001,-2.3001,-2.3001,-2.3001,-2.3001,-2.3001,-2.3001,-2.3001,-2.3001,-2.3001,-2.3001,-2.3001,-2.3001,-2.3001,-2.2927,-2.2815,-2.2815,-2.2628,-2.2327,-2.2252,-2.2111,-2.188,-2.158,-2.1331,-2.1031,-2.0659,-2.0207,-1.9751,-1.9554,-1.9305,-1.9108,-1.9108,-1.9108,-1.9108,-1.9108,-1.9108,-1.9108,-1.9108,-1.9108,-1.9108,-1.9108,-1.8942,-1.859,-1.7916,-1.7347,-1.6944,-1.6758,-1.6539,-1.6116,-1.5362,-1.438,-1.3511,-1.2819,-1.2545,-1.224,-1.1805,-1.1606,-1.1487,-1.1487,-1.1487,-1.1487,-1.1487,-1.1487,-1.159,-1.1797,-1.1797,-1.1908,-1.2144,-1.2296,-1.2337,-1.3499,0.0,0.0,-1.5789,-1.6454,-1.706,-1.7562,-1.7944,-1.8196,-1.8196,-1.8458,-1.8796,-1.9146,-1.9321,0.0,-1.9856,-2.014,-2.026,-2.0129,-2.0227,-2.026,-2.0129,-2.0118,-2.0118,-2.0118,-2.0904,-2.1439,-2.1581,-2.2346,-2.2859,-2.299,-2.3001,-2.3001,-2.3001,-2.3001,-2.3001,-2.3001,-2.3001,-2.3001,-2.3001,-2.3001,-2.3001,-2.3001,-2.3001,-2.3078,-2.3198,-2.3056,-2.3078,-2.3187,-2.3056,-2.3001,-2.3001,-2.3001,-2.3001,-2.3001,-2.3001,-2.2927,-2.2777,-2.2777,-2.2515,-2.2176,-2.2176,-2.1987,-2.1807,-2.1807,-2.1569,-2.128,-2.1155,-2.0638,-2.0114,-1.9865,-1.9544,-1.9264,-1.9139,-1.9108,-1.9108,-1.9108,-1.9108,-1.9108,-1.9108,-1.9108,-1.9108,-1.9108,-1.9108,-1.8984,-1.8652,-1.7905,-1.7296,-1.7048,-1.6497,-1.572,-1.4617,-1.3519,-1.2775,-1.2621,-1.2321,-1.217,-1.217,-1.1924,-1.181,-1.181,-1.181,-1.181,-1.181,-1.181,-1.1908,-1.217,-1.217,-1.2335,-1.259,-1.259,-1.2646,0.0,0.0,-1.5876,-1.6356,-1.7207,-1.8086,-1.8545,-1.8654,-1.8665,-1.8665,-1.8676,-1.8698,-1.8709,-1.9102,-1.9387,-1.9409,-2.0227,-2.0675,-2.0172,-2.0544,-2.0664,-2.0172,-2.0118,-2.0118,0.0,-2.0598,-2.1113,-2.1559,-2.2051,-2.2531,-2.2979,-2.3001,-2.3001,-2.3001,-2.3001,-2.3001,-2.3001,-2.3001,-2.3001,-2.3001,-2.3001,-2.3001,-2.3001,-2.3001,-2.3263,-2.364,-2.3209,-2.3274,-2.3629,-2.3198,-2.3001,-2.3001,-2.3001,-2.3001,-2.3001,-2.3001,-2.3001,-2.3001,-2.3001,-2.274,-2.2402,-2.2402,-2.2101,-2.1807,-2.1807,-2.1797,-2.1694,-2.1238,-2.1093,-2.0866,-2.0021,-1.9782,-1.9658,-1.9212,-1.9108,-1.9108,-1.9108,-1.9108,-1.9108,-1.9108,-1.9108,-1.9108,-1.9108,-1.9108,-1.9098,-1.9088,-1.8673,-1.8019,-1.713,-1.6067,-1.5177,-1.4558,-1.3872,-1.3246,-1.2652,-1.2582,-1.2574,-1.2574,-1.2566,-1.2566,-1.2566,-1.2566,-1.2566,-1.2566,-1.2566,-1.2566,-1.2574,-1.2574,-1.2582,-1.259,-1.259,-1.2781,0.0,0.0,-1.6983,-1.7759,-1.8458,-1.9038,-1.9518,-1.9408,-1.9168,-1.9168,-1.8676,-1.8239,-1.8239,-1.837,-1.8578,-1.8884,-1.9746,-2.0303,-2.014,-2.0839,-2.1046,-2.0205,-2.0424,0.0,0.0,0.0,0.0,-2.1549,-2.204,-2.251,-2.2968,-2.3001,-2.3001,-2.3001,-2.3001,-2.3001,-2.3001,-2.3001,-2.3001,-2.3001,-2.3001,-2.3176,-2.3433,-2.3143,-2.3449,-2.4181,-2.3362,-2.3274,-2.3651,-2.3198,-2.3001,-2.3001,-2.3001,-2.3001,-2.2964,-2.2852,-2.2815,-2.2815,-2.2815,-2.2628,-2.2365,-2.2252,-2.2025,-2.1807,-2.1807,-2.1807,-2.1776,-2.1621,-2.1352,-2.1041,-2.0741,-2.0249,-1.9761,-1.9596,-1.9326,-1.9108,-1.9108,-1.9108,-1.9108,-1.9108,-1.9108,-1.9108,-1.9108,-1.9108,-1.9108,-1.9108,-1.8704,-1.805,-1.713,-1.5958,-1.5035,-1.4556,-1.3549,-1.2828,-1.2621,-1.259,-1.259,-1.259,-1.259,-1.259,-1.259,-1.259,-1.259,-1.259,-1.259,-1.259,-1.259,-1.259,-1.259,-1.2598,-1.2837,-1.2973,0.0,-1.7049,-1.7995,-1.8753,-1.9289,-1.9682,-1.9824,-1.9616,-1.9277,-1.8753,-1.8174,-1.7639,-1.7261,-1.7366,-1.7693,-1.8338,-1.9366,-2.0172,-2.038,-2.1232,-2.1559,-2.0718,-2.0937,-2.1157,0.0,0.0,0.0,-2.1811,-2.2138,-2.251,-2.2968,-2.3001,-2.3001,-2.3001,-2.3001,-2.3088,-2.3263,-2.3263,-2.3351,-2.3536,-2.3536,-2.3689,-2.3995,-2.3678,-2.3973,-2.4683,-2.3886,-2.3711,-2.3962,-2.3471,-2.3154,-2.3001,-2.3001,-2.3001,-2.2964,-2.2777,-2.2703,-2.2703,-2.2628,-2.2478,-2.2252,-2.2138,-2.1949,-2.1807,-2.1807,-2.1807,-2.1807,-2.1807,-2.159,-2.1321,-2.1155,-2.0555,-1.999,-1.9834,-1.944,-1.9108,-1.9108,-1.9108,-1.9108,-1.9108,-1.9108,-1.9108,-1.9108,-1.9108,-1.9108,-1.9108,-1.8849,-1.8361,-1.7616,-1.6222,-1.516,-1.4756,-1.3532,-1.2734,-1.2606,-1.259,-1.259,-1.259,-1.259,-1.259,-1.259,-1.259,-1.259,-1.259,-1.259,-1.259,-1.259,-1.259,-1.2662,-1.2789,-1.2989,-1.3227,-1.7092,-1.805,-1.884,-1.9331,-1.9747,-1.9954,-1.9496,-1.9333,-1.8916,-1.7558,-1.7208,-1.6841,0.0,0.0,-1.6776,-1.777,-1.9147,-2.0282,-2.0829,-2.1723,-2.216,0.0,0.0,0.0,0.0,0.0,0.0,-2.2313,0.0,-2.251,-2.2968,-2.3001,-2.3012,-2.3045,-2.3045,-2.3274,-2.3727,-2.3727,-2.4017,-2.4486,-2.4486,-2.4497,-2.453,-2.4497,-2.476,-2.5226,-2.4694,-2.4497,-2.4486,-2.3913,-2.346,-2.3034,-2.3012,-2.3001,-2.2964,-2.2777,-2.2665,-2.2628,-2.244,-2.2252,-2.2101,-2.2111,-2.1959,-2.1807,-2.1807,-2.1807,-2.1807,-2.1807,-2.1807,-2.1704,-2.1269,-2.0803,-2.0348,-1.9969,-1.9492,-1.9139,-1.9139,-1.9119,-1.9108,-1.9108,-1.9108,-1.9108,-1.9108,-1.9108,-1.9108,-1.9108,-1.9108,-1.8932,-1.8465,-1.6854,-1.5583,-1.5142,-1.3895,-1.2949,-1.2622,-1.259,-1.259,-1.259,-1.259,-1.259,-1.259,-1.259,-1.259,-1.259,-1.259,-1.2606,-1.2622,-1.2622,-1.2805,-1.3116,-1.3132,-1.3489,-1.8065,-1.8774,-1.9322,-1.9813,-1.9747,-1.954,-1.9441,-1.8589,-1.7606,-1.6863,-1.5858,-1.4954,-1.4351,0.0,0.0,-1.6743,-1.869,0.0,-2.0829,-2.1996,0.0,0.0,0.0,-2.2127,-2.2127,-2.2127,0.0,0.0,-2.251,-2.251,-2.2968,-2.3001,-2.3165,-2.3487,-2.3509,-2.3787,-2.429,-2.4301,-2.4355,-2.4486,-2.4486,-2.4661,-2.5029,-2.465,-2.4945,-2.5666,-2.4847,-2.4683,-2.4934,-2.4082,-2.3618,-2.3504,-2.3143,-2.2927,-2.274,-2.2553,-2.2365,-2.2214,-2.2025,-2.2025,-2.2073,-2.1921,-2.1845,-2.1807,-2.1807,-2.1807,-2.1807,-2.1807,-2.1807,-2.1776,-2.1662,-2.128,-2.0907,-2.0793,-2.0162,-1.9616,-1.9616,-1.9347,-1.9108,-1.9108,-1.9108,-1.9108,-1.9108,-1.9108,-1.9108,-1.9108,-1.9108,-1.8932,-1.8465,-1.7086,-1.5868,-1.516,-1.3895,-1.2949,-1.2622,-1.259,-1.259,-1.259,-1.259,-1.259,-1.259,-1.259,-1.259,-1.259,-1.259,-1.2726,-1.2957,-1.2957,-1.3132,-1.3498,-1.3727,-1.3942,-1.8807,-1.9364,-1.9769,-2.0042,-1.9747,-1.9255,-1.8622,-1.7682,-1.6623,-1.5509,-1.4635,0.0,0.0,0.0,0.0,0.0,0.0,0.0,-2.0741,-2.192,-2.2575,0.0,-2.2455,0.0,-2.2877,-2.2898,-2.3132,0.0,-2.3209,-2.3018,-2.3307,-2.3536,-2.3787,-2.405,-2.4061,-2.429,-2.4781,-2.5,-2.5109,-2.5109,-2.5109,-2.524,-2.548,-2.5218,-2.5393,-2.5874,0.0,-2.5022,-2.4836,-2.429,-2.3798,-2.3383,-2.311,-2.2889,-2.2665,-2.2478,-2.2289,-2.2063,-2.1883,-2.1883,-2.1959,-2.1845,-2.1807,-2.1807,-2.1807,-2.1807,-2.1807,-2.1807,-2.1807,-2.1807,-2.1807,-2.1455,-2.1114,-2.1114,-2.0565,-1.9996,-1.9834,-1.9585,-1.9347,-1.9139,-1.9108,-1.9108,-1.9108,-1.9108,-1.9108,-1.9108,-1.9108,-1.9005,-1.8745,-1.7455,-1.6333,-1.5707,-1.4368,-1.3394,-1.3076,-1.3044,-1.2981,-1.2837,-1.2829,-1.2758,-1.2598,-1.2742,-1.275,-1.2598,-1.275,-1.2925,-1.3092,-1.3092,-1.3338,-1.3823,-1.4021,-1.4196,-1.9364,-1.9791,-2.0107,-2.0031,-1.9605,-1.8873,-1.7486,-1.6645,-1.564,-1.386,0.0,0.0,-1.2178,0.0,-1.3925,-1.4941,0.0,-1.8676,-2.0621,-2.1647,-2.2411,-2.2936,-2.3001,-2.3165,-2.3553,-2.3596,-2.382,-2.4257,-2.394,-2.3716,-2.3782,-2.4246,-2.4519,-2.4574,-2.4639,-2.4869,-2.5303,-2.5688,-2.5895,-2.5895,-2.5895,-2.5874,-2.5808,-2.5874,-2.5874,-2.5808,0.0,0.0,-2.4574,-2.4443,-2.3875,-2.3088,-2.3023,-2.2852,-2.2628,-2.2478,-2.2252,-2.2025,-2.1845,-2.1807,-2.1807,-2.1807,-2.1807,-2.1807,-2.1807,-2.1807,-2.1807,-2.1807,-2.1807,-2.1807,-2.1807,-2.1507,-2.1207,-2.1207,-2.0819,-2.041,-2.0062,-1.9886,-1.9658,-1.9191,-1.9108,-1.9108,-1.9108,-1.9108,-1.9108,-1.9108,-1.9108,-1.9108,-1.9108,-1.7901,-1.6834,-1.6342,-1.5078,-1.4068,-1.3642,-1.3618,-1.3498,-1.3179,-1.3155,-1.3052,-1.2742,-1.2996,-1.3044,-1.2734,-1.3028,-1.3179,-1.3227,-1.3227,-1.3553,-1.418,-1.418,-1.4312,-1.9747,-2.0053,-2.002,-1.9616,-1.8895,-1.7966,-1.6896,-1.5367,0.0,0.0,0.0,-1.1249,-1.1064,-1.2125,0.0,-1.4886,0.0,0.0,0.0,0.0,-2.204,0.0,0.0,0.0,0.0,0.0,0.0,0.0,0.0,0.0,-2.4334,-2.4443,-2.4661,-2.5084,-2.5448,-2.5699,-2.5775,-2.5863,-2.5895,-2.5895,-2.5895,-2.5688,-2.5306,-2.571,-2.5677,-2.5336,-2.5336,0.0,-2.4989,-2.4192,-2.3727,-2.352,-2.3154,-2.2777,-2.244,-2.2402,-2.2187,-2.1845,-2.1807,-2.1807,-2.1807,-2.1807,-2.1807,-2.1807,-2.1807,-2.1807,-2.1807,-2.1807,-2.1807,-2.1807,-2.1807,-2.1745,-2.1683,-2.1683,-2.1331,-2.0969,-2.0897,-2.0321,-1.9658,-1.9191,-1.9108,-1.9108,-1.9108,-1.9108,-1.9108,-1.9108,-1.9108,-1.9108,-1.9108,-1.8341,-1.7422,-1.6418,-1.5544,-1.463,-1.3675,-1.3618,-1.3594,-1.3538,-1.3497,-1.3506,-1.3442,-1.3465,-1.3498,-1.3442,-1.3465,-1.364,-1.3934,-1.3934,-1.4148,-1.451,-1.451,-1.455,-2.0006,-2.0168,-1.9998,-1.9507,-1.8709,-1.7617,-1.612,0.0,0.0,0.0,0.0,-1.0436,-1.0436,0.0,0.0,0.0,0.0,0.0,0.0,0.0,0.0,0.0,0.0,0.0,0.0,0.0,0.0,0.0,0.0,0.0,-2.4093,-2.4344,-2.4585,-2.4814,-2.5043,-2.5164,-2.5164,-2.5164,-2.5164,-2.5164,-2.5164,-2.5043,-2.4825,-2.5065,-2.5033,-2.4854,-2.4854,0.0,-2.4377,-2.388,-2.358,-2.3329,-2.3088,-2.2815,-2.2553,-2.2553,-2.2365,-2.2101,-2.1987,-2.1959,-2.1959,-2.1845,-2.1807,-2.1807,-2.1807,-2.1807,-2.1807,-2.1807,-2.1807,-2.1807,-2.1807,-2.1807,-2.1807,-2.1807,-2.1455,-2.1114,-2.1114,-2.04,-1.973,-1.9502,-1.9264,-1.9108,-1.9108,-1.9108,-1.9108,-1.9108,-1.9108,-1.9108,-1.9108,-1.8798,-1.8228,-1.7298,-1.6194,-1.5308,-1.4787,-1.4374,-1.4053,-1.387,-1.3854,-1.3775,-1.3626,-1.3759,-1.3775,-1.3584,-1.3767,-1.3942,-1.4109,-1.4109,-1.4256,-1.4605,-1.4605,-1.4605,-2.0236,-2.025,-1.9867,-1.9563,-1.8665,-1.7344,-1.5389,-1.3728,0.0,0.0,0.0,-0.985,-1.0059,0.0,0.0,0.0,0.0,0.0,0.0,0.0,0.0,0.0,0.0,0.0,0.0,0.0,0.0,0.0,0.0,0.0,-2.3858,-2.4279,-2.4486,-2.4486,-2.4486,-2.4486,-2.4486,-2.4486,-2.4486,-2.4486,-2.4486,-2.4432,-2.4334,-2.4443,-2.4432,-2.4323,-2.4323,0.0,0.0,-2.3575,-2.334,-2.3001,-2.3001,-2.2889,-2.2703,-2.2703,-2.259,-2.2365,-2.2214,-2.2149,-2.2063,-2.1921,-2.1845,-2.1807,-2.1807,-2.1807,-2.1807,-2.1807,-2.1807,-2.1807,-2.1807,-2.1807,-2.1807,-2.1807,-2.1528,-2.1207,-2.101,-2.04,-1.9876,-1.9689,-1.9357,-1.9108,-1.9108,-1.9108,-1.9108,-1.9108,-1.9108,-1.9108,-1.9108,-1.9108,-1.8898,-1.8307,-1.707,-1.614,-1.5833,-1.524,-1.4664,-1.4244,-1.4228,-1.4101,-1.3823,-1.4077,-1.4093,-1.3815,-1.4085,-1.4228,-1.4228,-1.4228,-1.4328,-1.4605,-1.4605,-1.4605,-2.0529,-2.0362,-1.9489,-1.9624,-1.8513,-1.6869,-1.491,0.0,0.0,0.0,-0.9404,-0.9021,-0.9938,0.0,0.0,0.0,0.0,0.0,0.0,0.0,0.0,0.0,0.0,0.0,0.0,0.0,0.0,0.0,0.0,0.0,0.0,-2.4465,-2.4486,-2.4486,-2.4486,-2.4486,-2.4486,-2.4486,-2.4486,-2.4486,-2.4486,-2.4246,-2.3771,-2.4279,-2.4235,-2.376,-2.376,0.0,0.0,-2.3252,-2.3045,-2.3001,-2.3001,-2.2889,-2.2703,-2.2703,-2.259,-2.2402,-2.2365,-2.2252,-2.2101,-2.2063,-2.1959,-2.1807,-2.1807,-2.1807,-2.1807,-2.1807,-2.1807,-2.1807,-2.1807,-2.1807,-2.1807,-2.1807,-2.1776,-2.1507,-2.0633,-2.0385,-2.012,-1.9326,-1.9139,-1.9108,-1.9108,-1.9108,-1.9108,-1.9108,-1.9108,-1.9108,-1.9108,-1.9108,-1.9065,-1.8998,-1.8273,-1.7242,-1.5903,-1.5727,-1.5365,-1.4593,-1.4557,-1.4542,-1.451,-1.4542,-1.4542,-1.451,-1.4542,-1.4557,-1.4557,-1.4557,-1.4573,-1.4605,-1.4605,-1.4605,-1.9852,-2.0182,-1.994,-1.9764,-1.8721,-1.7338,-1.5637,0.0,0.0,-1.0617,-0.9444,-0.8909,-0.9916,-0.9993,-1.0527,0.0,0.0,0.0,0.0,0.0,0.0,0.0,0.0,0.0,0.0,0.0,0.0,0.0,0.0,0.0,0.0,-2.3591,-2.3591,-2.3591,-2.3591,-2.3591,-2.3591,-2.3591,-2.3591,-2.3591,-2.3591,-2.3493,-2.3296,-2.3504,-2.3482,-2.3296,-2.3296,0.0,0.0,-2.3078,-2.3001,-2.3001,-2.3001,-2.2964,-2.2889,-2.2889,-2.2815,-2.274,-2.2478,-2.2365,-2.2252,-2.1997,-2.1883,-2.1807,-2.1807,-2.1807,-2.1807,-2.1807,-2.1807,-2.1807,-2.1807,-2.1807,-2.1807,-2.1807,-2.1807,-2.1631,-2.0979,-2.0581,-2.0245,-1.9647,-1.9295,-1.9108,-1.9108,-1.9108,-1.9108,-1.9108,-1.9108,-1.9108,-1.9108,-1.9108,-1.9108,-1.9108,-1.8037,-1.7104,-1.6524,-1.5613,-1.4955,-1.4605,-1.4605,-1.4605,-1.4605,-1.4605,-1.4605,-1.4605,-1.4605,-1.4605,-1.4605,-1.4605,-1.4605,-1.4605,-1.4605,-1.4605,-1.9283,-1.9703,-1.9606,-1.9345,-1.855,-1.7373,0.0,0.0,-1.1972,-1.0704,-0.9548,-0.898,-0.9714,-0.9683,-1.0086,0.0,-1.1951,-1.266,-1.481,0.0,0.0,0.0,0.0,0.0,0.0,0.0,0.0,0.0,0.0,0.0,0.0,-2.3001,-2.3001,-2.3001,-2.3001,-2.3001,-2.3001,-2.3001,-2.3001,-2.3001,-2.3001,-2.3001,-2.3001,-2.3001,-2.3001,-2.3001,0.0,0.0,0.0,-2.3001,-2.3001,-2.3001,-2.3001,-2.3001,-2.3001,-2.3001,-2.3001,-2.2964,-2.2665,-2.2515,-2.2365,-2.2063,-2.1883,-2.1807,-2.1807,-2.1807,-2.1807,-2.1807,-2.1807,-2.1807,-2.1807,-2.1807,-2.1807,-2.1807,-2.1807,-2.1642,-2.1005,-2.0622,-2.0255,-1.9699,-1.9326,-1.9108,-1.9108,-1.9108,-1.9108,-1.9108,-1.9108,-1.9108,-1.9108,-1.8898,-1.8754,-1.8754,-1.7448,-1.6655,-1.6862,-1.5683,-1.4848,-1.4605,-1.4605,-1.4605,-1.4605,-1.4605,-1.4605,-1.4605,-1.4605,-1.4605,-1.4605,-1.4605,-1.4605,-1.4605,-1.4605,-1.4605,-1.9046,-1.8933,-1.8066,-1.8181,-1.771,-1.6609,0.0,-1.314,-1.2129,-1.0454,-0.956,-0.9144,-0.9288,-0.9742,-1.0403,-1.1351,-1.2289,-1.3412,0.0,0.0,0.0,0.0,0.0,0.0,0.0,0.0,0.0,0.0,0.0,0.0,0.0,-2.3001,-2.3001,-2.3001,-2.3001,-2.3001,-2.3001,-2.3001,-2.3001,-2.3001,-2.3001,-2.3001,-2.3001,-2.3001,-2.3001,0.0,0.0,0.0,0.0,-2.3001,-2.3001,-2.3001,-2.3001,-2.3001,-2.3001,-2.3001,-2.3001,-2.3001,-2.3001,-2.274,-2.2402,-2.2402,-2.2101,-2.1807,-2.1807,-2.1807,-2.1807,-2.1807,-2.1807,-2.1807,-2.1807,-2.1807,-2.1807,-2.1807,-2.1807,-2.1549,-2.0591,-2.0395,-2.0127,-1.9285,-1.9108,-1.9108,-1.9108,-1.9108,-1.9108,-1.9108,-1.9108,-1.9108,-1.9108,-1.8452,-1.8003,-1.8003,-1.6689,-1.6105,-1.6828,-1.621,-1.5453,-1.4641,-1.4605,-1.4605,-1.4605,-1.4605,-1.4605,-1.4605,-1.4605,-1.4605,-1.4605,-1.4605,-1.4605,-1.4605,-1.4605,-1.4605,-1.6564,-1.6917,-1.6811,-1.6447,-1.6198,-1.5628,-1.4131,-1.3134,-1.2103,-1.0557,-0.9628,-0.9144,-0.9277,-0.9177,-0.972,-1.1656,0.0,0.0,0.0,0.0,0.0,0.0,0.0,0.0,0.0,0.0,0.0,0.0,0.0,0.0,0.0,-2.3001,-2.3001,-2.3001,-2.3001,-2.3001,-2.3001,-2.3001,-2.3001,-2.3001,-2.3001,-2.3001,-2.3001,-2.3001,0.0,0.0,0.0,0.0,0.0,-2.3001,-2.3001,-2.3001,-2.3001,-2.3001,-2.3001,-2.3001,-2.3001,-2.2964,-2.2852,-2.2703,-2.2553,-2.2289,-2.2101,-2.1997,-2.1845,-2.1807,-2.1807,-2.1807,-2.1807,-2.1807,-2.1807,-2.1807,-2.1807,-2.1807,-2.1559,-2.1166,-2.0519,-2.0182,-1.9824,-1.9222,-1.9108,-1.9108,-1.9108,-1.9108,-1.9108,-1.9108,-1.9108,-1.9108,-1.9108,-1.8898,-1.8754,-1.8754,-1.7413,-1.6455,-1.6175,-1.5444,-1.4883,-1.4605,-1.4605,-1.4605,-1.4605,-1.4605,-1.4605,-1.4605,-1.4605,-1.4605,-1.4605,-1.4605,-1.4605,-1.4605,-1.4605,-1.4605,0.0,-1.5157,-1.528,-1.4743,-1.4738,-1.4527,-1.326,-1.2628,-1.1918,-1.0551,-0.9722,-0.9255,-0.9236,-0.919,-0.9655,-1.1151,0.0,0.0,0.0,0.0,0.0,0.0,0.0,0.0,0.0,0.0,0.0,0.0,0.0,0.0,0.0,-2.3001,-2.3001,-2.3001,-2.3001,-2.3001,-2.3001,-2.3001,-2.3001,-2.3001,-2.3001,-2.3001,-2.3001,-2.3001,0.0,0.0,0.0,0.0,0.0,-2.3001,-2.3001,-2.3001,-2.3001,-2.3001,-2.3001,-2.3001,-2.3001,-2.2964,-2.2852,-2.2777,-2.2665,-2.2327,-2.2101,-2.1949,-2.1845,-2.1807,-2.1807,-2.1807,-2.1807,-2.1807,-2.1807,-2.1807,-2.1766,-2.159,-2.1455,-2.1155,-2.0348,-2.0089,-1.9855,-1.9222,-1.9108,-1.9108,-1.9108,-1.9108,-1.9108,-1.9108,-1.9108,-1.9108,-1.9108,-1.8865,-1.8687,-1.8687,-1.7389,-1.6315,-1.5833,-1.5062,-1.4605,-1.4605,-1.4605,-1.4605,-1.4605,-1.4605,-1.4605,-1.4605,-1.4605,-1.4605,-1.4605,-1.4605,-1.4605,-1.4605,-1.4605,-1.4605,0.0,-1.3556,-1.3496,-1.3032,-1.3258,-1.3242,-1.1833,-1.1737,0.0,-1.0418,-0.9824,-0.9433,-0.9241,-0.9664,-1.0113,-1.0322,0.0,0.0,0.0,0.0,0.0,0.0,0.0,0.0,0.0,0.0,0.0,0.0,0.0,0.0,0.0,-2.3001,-2.3001,-2.3001,-2.3001,-2.3001,-2.3001,-2.3001,-2.3001,-2.3001,-2.3001,-2.3001,-2.3001,-2.3001,0.0,0.0,0.0,0.0,0.0,-2.3001,-2.3001,-2.3001,-2.3001,-2.3001,-2.3001,-2.3001,-2.3001,-2.3001,-2.2964,-2.2852,-2.2703,-2.2478,-2.2138,-2.1807,-2.1807,-2.1807,-2.1807,-2.1807,-2.1807,-2.1807,-2.1807,-2.1807,-2.1683,-2.1228,-2.1414,-2.1352,-2.0083,-2.0058,-2.0079,-1.9274,-1.9108,-1.9108,-1.9108,-1.9108,-1.9108,-1.9108,-1.9108,-1.9108,-1.9108,-1.8486,-1.807,-1.807,-1.6793,-1.5965,-1.5965,-1.5133,-1.4605,-1.4605,-1.4605,-1.4605,-1.4605,-1.4605,-1.4605,-1.4605,-1.4605,-1.4605,-1.4605,-1.4605,-1.4605,-1.4605,-1.4605,-1.4605,-1.0294,0.0,-1.1669,-1.1102,-1.1392,-1.1602,0.0,-1.1011,-1.1118,0.0,0.0,-0.9646,-1.0095,-0.9797,-1.0239,0.0,0.0,0.0,0.0,0.0,0.0,0.0,0.0,0.0,0.0,0.0,0.0,0.0,0.0,0.0,0.0,-2.3001,-2.3001,-2.3001,-2.3001,-2.3001,-2.3001,-2.3001,-2.3001,-2.3001,-2.3001,-2.3001,-2.3001,-2.3001,0.0,0.0,0.0,0.0,-2.3001,-2.3001,-2.3001,-2.3001,-2.3001,-2.3001,-2.3001,-2.3001,-2.3001,-2.2964,-2.2815,-2.2852,-2.2852,-2.2515,-2.2138,-2.1807,-2.1807,-2.1807,-2.1807,-2.1807,-2.1807,-2.1807,-2.1807,-2.1807,-2.1683,-2.1228,-2.0928,-2.0565,-1.9938,-1.9596,-1.9357,-1.915,-1.9108,-1.9108,-1.9108,-1.9108,-1.9108,-1.9108,-1.9108,-1.9108,-1.9108,-1.8965,-1.8831,-1.8831,-1.8037,-1.7482,-1.7482,-1.571,-1.4605,-1.4605,-1.4605,-1.4605,-1.4605,-1.4605,-1.4605,-1.4605,-1.4605,-1.4605,-1.4605,-1.4605,-1.4605,-1.4605,-1.4605,-1.4605,-0.9012,-1.0163,-1.1187,-1.1135,-1.1358,-1.1474,-1.116,0.0,0.0,0.0,0.0,0.0,-1.0325,0.0,0.0,0.0,0.0,0.0,0.0,0.0,0.0,0.0,0.0,0.0,0.0,0.0,0.0,0.0,0.0,0.0,0.0,-2.3001,-2.3001,-2.3001,-2.3001,-2.3001,-2.3001,-2.3001,-2.3001,-2.3001,-2.3001,-2.3001,-2.3001,-2.3001,-2.3001,0.0,0.0,0.0,-2.3001,-2.3001,-2.3001,-2.3001,-2.3001,-2.3001,-2.3001,-2.3001,-2.3001,-2.2964,-2.2889,-2.2777,-2.2665,-2.2365,-2.2063,-2.1807,-2.1807,-2.1807,-2.1807,-2.1807,-2.1807,-2.1807,-2.1807,-2.1807,-2.1631,-2.0959,-2.0736,-2.0503,-1.9668,-1.945,-1.9357,-1.915,-1.9108,-1.9108,-1.9108,-1.9108,-1.9108,-1.9108,-1.9108,-1.9108,-1.9108,-1.9108,-1.9108,-1.9108,-1.8452,-1.7857,-1.7516,-1.6062,-1.5161,-1.5161,-1.4812,-1.4605,-1.4605,-1.4605,-1.4605,-1.4605,-1.4605,-1.4605,-1.4605,-1.4605,-1.4605,-1.4605,-1.4605,-1.4605,-0.8756,-1.0149,-1.1437,-1.1858,-1.2051,-1.2112,-1.202,0.0,0.0,0.0,0.0,0.0,0.0,0.0,0.0,0.0,0.0,0.0,0.0,0.0,0.0,0.0,0.0,0.0,0.0,0.0,0.0,0.0,0.0,0.0,0.0,-2.2783,-2.2783,-2.2783,-2.2859,-2.2892,-2.2892,-2.2968,-2.3001,-2.3001,-2.3001,-2.3001,-2.3001,-2.3001,-2.3001,0.0,0.0,0.0,-2.3001,-2.3001,-2.3001,-2.3001,-2.3001,-2.3001,-2.3001,-2.3001,-2.3001,-2.3001,-2.3001,-2.2703,-2.2327,-2.2176,-2.1987,-2.1807,-2.1807,-2.1807,-2.1807,-2.1807,-2.1756,-2.1694,-2.1694,-2.1652,-2.1383,-2.0524,-2.0617,-2.0565,-1.9367,-1.9409,-1.9575,-1.9181,-1.9108,-1.9108,-1.9108,-1.9108,-1.9108,-1.9108,-1.9108,-1.9108,-1.9108,-1.9108,-1.9108,-1.9108,-1.8553,-1.7867,-1.7139,-1.6385,-1.5939,-1.5798,-1.5026,-1.4605,-1.4605,-1.4605,-1.4605,-1.4605,-1.4605,-1.4605,-1.4605,-1.4605,-1.4605,-1.4605,-1.4605,-1.4605,-0.9785,-1.1123,-1.18,-1.1423,-1.2064,-1.2638,0.0,0.0,0.0,0.0,0.0,0.0,0.0,0.0,0.0,0.0,0.0,0.0,0.0,0.0,0.0,0.0,0.0,0.0,0.0,0.0,0.0,0.0,0.0,0.0,0.0,0.0,-2.18,-2.18,-2.2204,-2.2422,-2.2422,-2.2805,-2.3001,-2.3001,-2.3001,-2.3001,-2.3001,-2.3001,-2.3001,0.0,0.0,-2.3001,-2.3001,-2.3001,-2.3001,-2.3001,-2.3001,-2.3001,-2.3001,-2.3001,-2.3001,-2.3001,-2.3001,-2.2628,-2.2176,-2.2327,-2.2101,-2.1807,-2.1807,-2.1807,-2.1807,-2.1807,-2.1518,-2.1217,-2.1217,-2.0891,-2.0503,-2.0021,-1.9958,-1.9834,-1.9233,-1.916,-1.9191,-1.9119,-1.9108,-1.9108,-1.9108,-1.9108,-1.9108,-1.9108,-1.9108,-1.9108,-1.9108,-1.9108,-1.9108,-1.9108,-1.8998,-1.862,-1.7901,-1.7173,-1.6455,-1.5833,-1.5026,-1.4605,-1.4605,-1.4605,-1.4605,-1.4605,-1.4605,-1.4605,-1.4605,-1.4605,-1.4605,-1.4605,-1.4605,-1.4605,-0.8752,-1.0105,-1.1227,-1.1553,-1.2977,-1.4219,0.0,0.0,0.0,0.0,0.0,0.0,0.0,0.0,0.0,0.0,0.0,0.0,0.0,0.0,0.0,0.0,0.0,0.0,0.0,0.0,0.0,0.0,0.0,0.0,0.0,0.0,-2.1592,-2.1592,-2.1811,-2.1931,-2.1931,-2.2138,-2.2368,-2.263,-2.2881,-2.287,-2.2641,-2.2881,-2.3001,-2.3001,0.0,-2.3001,-2.3001,-2.3001,-2.3001,-2.3001,-2.3001,-2.3001,-2.3001,-2.3001,-2.3001,-2.2964,-2.2889,-2.2665,-2.2402,-2.2402,-2.2214,-2.1949,-2.1949,-2.1883,-2.1756,-2.1507,-2.128,-2.1176,-2.1424,-2.1145,-2.0741,-2.0545,-2.0493,-2.0296,-1.9627,-1.9471,-1.9409,-1.915,-1.9108,-1.9108,-1.9108,-1.9108,-1.9108,-1.9108,-1.9108,-1.9108,-1.9108,-1.9108,-1.9108,-1.9108,-1.9108,-1.8654,-1.7482,-1.7104,-1.6411,-1.524,-1.4812,-1.4605,-1.4605,-1.4605,-1.4605,-1.4605,-1.4605,-1.4605,-1.4605,-1.4605,-1.4605,-1.4605,-1.4605,-1.4605,-0.803,-0.93,-1.0702,-1.1962,0.0,-1.5218,0.0,0.0,0.0,0.0,0.0,0.0,0.0,0.0,0.0,0.0,0.0,0.0,0.0,0.0,0.0,0.0,0.0,0.0,0.0,0.0,0.0,0.0,0.0,0.0,0.0,0.0,-2.1254,-2.1254,-2.1363,-2.1452,-2.1452,-2.1561,-2.1778,-2.2149,-2.2499,-2.2488,-2.216,-2.251,-2.2673,-2.2673,-2.2673,-2.2673,-2.2673,-2.2794,-2.2848,-2.2848,-2.2957,-2.3001,-2.3001,-2.3001,-2.3001,-2.2964,-2.2815,-2.2703,-2.259,-2.244,-2.2214,-2.2035,-2.2035,-2.1849,-2.1569,-2.1217,-2.0959,-2.0897,-2.1362,-2.1062,-2.0659,-2.0772,-2.071,-2.0452,-1.9782,-1.9637,-1.9533,-1.917,-1.9108,-1.9108,-1.9108,-1.9108,-1.9108,-1.9108,-1.9108,-1.9108,-1.9108,-1.9108,-1.9108,-1.9108,-1.8965,-1.824,-1.6759,-1.6481,-1.586,-1.4669,-1.4605,-1.4605,-1.4605,-1.4605,-1.4605,-1.4605,-1.4605,-1.4605,-1.4605,-1.4605,-1.4605,-1.4605,-1.4605,-1.4605,-0.9113,-0.9982,-1.0846,-1.2666,0.0,0.0,0.0,0.0,0.0,0.0,0.0,0.0,0.0,0.0,0.0,0.0,0.0,0.0,0.0,0.0,0.0,0.0,0.0,0.0,0.0,0.0,0.0,0.0,0.0,0.0,0.0,0.0,0.0,-2.0216,-2.0675,-2.0949,-2.0949,-2.1363,-2.1614,-2.1647,-2.168,-2.168,-2.1647,-2.168,-2.1691,-2.1691,-2.1691,-2.1691,-2.1723,-2.2182,-2.2368,-2.2411,-2.2837,-2.3001,-2.3001,-2.3001,-2.3001,-2.3001,-2.2964,-2.274,-2.2402,-2.2402,-2.2138,-2.1807,-2.1807,-2.1507,-2.1155,-2.1124,-2.0503,-2.0,-2.041,-1.9872,-1.9357,-1.9793,-1.9564,-1.9233,-1.917,-1.915,-1.9139,-1.9108,-1.9108,-1.9108,-1.9108,-1.9108,-1.9108,-1.9108,-1.9108,-1.9108,-1.9108,-1.9108,-1.9108,-1.9108,-1.8486,-1.7482,-1.6,-1.5196,-1.4713,-1.4605,-1.4605,-1.4605,-1.4605,-1.4605,-1.4605,-1.4605,-1.4605,-1.4605,-1.4605,-1.4605,-1.4605,-1.4605,-1.4605,-1.4605,-0.7855,-0.9209,-1.0792,-1.2168,0.0,0.0,0.0,0.0,0.0,0.0,0.0,0.0,0.0,0.0,0.0,0.0,0.0,0.0,0.0,0.0,0.0,0.0,0.0,0.0,0.0,0.0,0.0,0.0,0.0,0.0,0.0,0.0,0.0,-2.0118,-2.0292,-2.038,-2.038,-2.0565,-2.0652,-2.0663,-2.1297,-2.1463,-2.1179,-2.1485,-2.1592,-2.1592,-2.1592,-2.1592,-2.1603,-2.1789,-2.1865,-2.1876,-2.2062,-2.2116,-2.216,-2.2466,-2.2575,-2.2619,-2.2903,-2.2889,-2.274,-2.2628,-2.2402,-2.2086,-2.169,-2.1333,-2.1,-2.0431,-2.0062,-1.9896,-2.0307,-1.9965,-1.9647,-2.0069,-2.0038,-1.9831,-1.9596,-1.9533,-1.945,-1.916,-1.9108,-1.9108,-1.9108,-1.9108,-1.9108,-1.9108,-1.9108,-1.9108,-1.9108,-1.9108,-1.9108,-1.9108,-1.8452,-1.7755,-1.7207,-1.6035,-1.5346,-1.5346,-1.4883,-1.4605,-1.4605,-1.4605,-1.4605,-1.4605,-1.4605,-1.4605,-1.4605,-1.4605,-1.4605,-1.4605,-1.4605,-1.4605,-0.7557,-0.9116,-1.1003,0.0,0.0,0.0,0.0,0.0,0.0,0.0,0.0,0.0,0.0,0.0,0.0,0.0,0.0,0.0,0.0,0.0,0.0,0.0,0.0,0.0,0.0,0.0,0.0,0.0,0.0,0.0,0.0,0.0,0.0,0.0,-2.0118,-2.0118,-2.0118,-2.0118,-2.0118,-2.0118,-2.0783,-2.0959,-2.0642,-2.0981,-2.1134,-2.1134,-2.1134,-2.1134,-2.1144,-2.1297,-2.1485,-2.1592,-2.1592,-2.1592,-2.1625,-2.1964,-2.2084,-2.2127,-2.2444,-2.2517,-2.2444,-2.2297,-2.2114,-2.1866,-2.1355,-2.0985,-2.0637,-1.9969,-1.9689,-1.9647,-1.9913,-1.9803,-1.9689,-2.011,-2.01,-1.9913,-1.9647,-1.9575,-1.9482,-1.917,-1.9108,-1.9108,-1.9108,-1.9108,-1.9108,-1.9108,-1.9108,-1.9108,-1.9108,-1.9108,-1.8998,-1.8798,-1.824,-1.7755,-1.7448,-1.6759,-1.6105,-1.5444,-1.5133,-1.4848,-1.4605,-1.4605,-1.4605,-1.4605,-1.4605,-1.4605,-1.4605,-1.4605,-1.4605,-1.4605,-1.4605,-1.4605,-0.8729,-1.0035,0.0,0.0,0.0,0.0,0.0,0.0,0.0,0.0,0.0,0.0,0.0,0.0,0.0,0.0,0.0,0.0,0.0,0.0,0.0,0.0,0.0,0.0,0.0,0.0,0.0,0.0,0.0,0.0,0.0,0.0,0.0,0.0,-2.0118,-2.0118,-2.0118,-2.0118,-2.0118,-2.0118,-2.0118,-2.0118,-2.0118,-2.0118,-2.0118,-2.0118,-2.0118,-2.0118,-2.0151,-2.0664,-2.1179,-2.1581,-2.1581,-2.1581,-2.1581,-2.1581,-2.1581,-2.1581,-2.1592,-2.1487,-2.1312,-2.1312,-2.1171,-2.0949,-2.074,-2.0355,-1.9975,-1.9827,-1.9461,-1.9108,-1.9108,-1.9108,-1.9222,-1.9679,-1.944,-1.9108,-1.9108,-1.9108,-1.9108,-1.9108,-1.9108,-1.9108,-1.9108,-1.9108,-1.9108,-1.9108,-1.9108,-1.9108,-1.9108,-1.9108,-1.8831,-1.8104,-1.7755,-1.7198,-1.6193,-1.7026,-1.6749,-1.4776,-1.5374,-1.5444,-1.4641,-1.4605,-1.4605,-1.4605,-1.4605,-1.4605,-1.4605,-1.4605,-1.4605,-1.4605,-1.4605,-1.4605,-0.8957,0.0,0.0,0.0,0.0,0.0,0.0,0.0,0.0,0.0,0.0,0.0,0.0,0.0,0.0,0.0,0.0,0.0,0.0,0.0,0.0,0.0,0.0,0.0,0.0,0.0,0.0,0.0,0.0,0.0,0.0,0.0,0.0,0.0,-2.0118,-2.0118,-2.0118,-2.0118,-2.0118,-2.0118,-2.0118,-2.0118,-2.0118,-2.0118,-2.0118,-2.0118,-2.0118,-2.0118,-2.0096,-2.026,-2.0412,-2.0543,-2.0543,-2.0543,-2.0587,-2.0982,-2.1113,-2.1157,-2.1507,-2.1557,-2.1487,-2.1347,-2.1277,-2.1107,-2.0418,-2.0114,-1.9912,-1.9432,-1.9212,-1.9108,-1.9108,-1.9108,-1.9139,-1.9274,-1.9202,-1.9108,-1.9108,-1.9108,-1.9108,-1.9108,-1.9108,-1.9108,-1.9108,-1.9108,-1.9108,-1.9108,-1.9108,-1.9108,-1.9108,-1.9108,-1.9008,-1.8798,-1.8687,-1.8543,-1.824,-1.8476,-1.8408,-1.7789,-1.5991,-1.4856,-1.4605,-1.4605,-1.4605,-1.4605,-1.4605,-1.4605,-1.4605,-1.4605,-1.4605,-1.4605,-1.4605,-1.4605,-1.0442,0.0,0.0,0.0,0.0,0.0,0.0,0.0,0.0,0.0,0.0,0.0,0.0,0.0,0.0,0.0,0.0,0.0,0.0,0.0,0.0,0.0,0.0,0.0,0.0,0.0,0.0,0.0,0.0,0.0,0.0,0.0,0.0,0.0,-1.9725,-1.9725,-1.954,-1.9922,-2.002,-1.9824,-2.002,-2.0118,-2.0118,-2.0118,-2.0118,-2.0118,-2.0118,-2.0118,-2.0118,-2.0118,-2.0118,-2.0118,-2.0118,-2.0118,-2.0151,-2.0467,-2.0577,-2.062,-2.0915,-2.1013,-2.0979,-2.0843,-2.0775,-2.0608,-2.0025,-1.9805,-1.964,-1.9225,-1.9108,-1.9108,-1.9108,-1.9108,-1.9108,-1.9108,-1.9108,-1.9108,-1.9108,-1.9108,-1.9108,-1.9108,-1.9108,-1.9108,-1.9108,-1.9108,-1.9108,-1.9108,-1.9108,-1.9108,-1.9108,-1.9108,-1.9108,-1.9108,-1.9108,-1.9108,-1.9108,-1.9108,-1.8586,-1.7404,-1.6167,-1.5232,-1.4641,-1.4605,-1.4605,-1.4605,-1.4605,-1.4605,-1.4605,-1.4605,-1.4605,-1.4605,-1.4605,-1.4605,0.0,0.0,0.0,0.0,0.0,0.0,0.0,0.0,0.0,0.0,0.0,0.0,0.0,0.0,0.0,0.0,0.0,0.0,0.0,0.0,0.0,0.0,0.0,0.0,0.0,0.0,0.0,0.0,0.0,0.0,0.0,0.0,0.0,-1.8687,-1.9113,-1.9135,-1.8698,-1.954,-1.9758,0.0,-1.9769,-1.9976,-1.9987,-2.0074,-2.0118,-2.0118,-2.0118,-2.0118,-2.0118,-2.0118,-2.0118,-2.0118,-2.0118,-2.0118,-2.0118,-2.0118,-2.0118,-2.0118,-2.0118,-2.0118,-2.0118,-2.0118,-2.0009,-1.9868,-1.9671,-1.9483,-1.9318,-1.9142,-1.9108,-1.9108,-1.9108,-1.9108,-1.9108,-1.9108,-1.9108,-1.9108,-1.9108,-1.9108,-1.9108,-1.9108,-1.9108,-1.9108,-1.9108,-1.9108,-1.9108,-1.9108,-1.9108,-1.9108,-1.9108,-1.9108,-1.9108,-1.9108,-1.9108,-1.9108,-1.9108,-1.9108,-1.7925,-1.5196,-1.6341,-1.6341,-1.4669,-1.4605,-1.4605,-1.4605,-1.4605,-1.4605,-1.4605,-1.4605,-1.4605,-1.4605,-1.4605,-1.4605,0.0,0.0,0.0,0.0,0.0,0.0,0.0,0.0,0.0,0.0,0.0,0.0,0.0,0.0,0.0,0.0,0.0,0.0,0.0,0.0,0.0,0.0,0.0,0.0,0.0,0.0,0.0,0.0,0.0,0.0,0.0,0.0,0.0,-1.8687,-1.8785,-1.8796,-1.8687,-1.8895,-1.8949,0.0,-1.8949,-1.9004,-1.9026,-1.9758,-2.0118,-2.0118,-2.0118,-2.0118,-2.0118,-2.0118,-2.0118,-2.0118,-2.0118,-2.0118,-2.0118,-2.0118,-2.0118,-2.0118,-2.0118,-2.0118,-2.0118,-2.0118,-2.0074,-2.0009,-1.9671,-1.9572,-1.9473,-1.9175,-1.9175,-1.9241,-1.9142,-1.9175,-1.9241,-1.9142,-1.9108,-1.9108,-1.9108,-1.9108,-1.9108,-1.9108,-1.9108,-1.9108,-1.9108,-1.9108,-1.9108,-1.9108,-1.9108,-1.9108,-1.9108,-1.9108,-1.9108,-1.9108,-1.9108,-1.9108,-1.9108,-1.9108,-1.8831,-1.8162,-1.8442,-1.7413,-1.4705,-1.4605,-1.4605,-1.4605,-1.4605,-1.4605,-1.4605,-1.4605,-1.4605,-1.4605,-1.4605,-1.4605,0.0,0.0,0.0,0.0,0.0,0.0,0.0,0.0,0.0,0.0,0.0,0.0,0.0,0.0,0.0,0.0,0.0,0.0,0.0,0.0,0.0,0.0,0.0,0.0,0.0,0.0,0.0,0.0,0.0,0.0,0.0,-1.8411,-1.8566,-1.8823,-1.8791,-1.8628,-1.8411,-1.8596,-1.8578,-1.837,-1.8589,-1.8687,-1.8709,-1.9431,-1.9758,-1.978,-2.0009,-2.0118,-2.0118,-2.0118,-2.0118,-2.0118,-2.0118,-2.0118,-2.0118,-2.0118,-2.0118,-2.0118,-2.0118,-2.0118,-2.0118,-2.0118,-2.0042,-1.9976,-1.9802,-1.9671,-1.9539,-1.9274,-1.9252,-1.9285,-1.9131,-1.9142,-1.9175,-1.9108,-1.9108,-1.9108,-1.9108,-1.9108,-1.9108,-1.9108,-1.9108,-1.9108,-1.9108,-1.9108,-1.9108,-1.9108,-1.9108,-1.9108,-1.9108,-1.9108,-1.9108,-1.9108,-1.9108,-1.9108,-1.9108,-1.9108,-1.9108,-1.9108,-1.9108,-1.7755,-1.4705,-1.4605,-1.4605,-1.4605,-1.4605,-1.4605,-1.4605,-1.4605,-1.4605,-1.4605,-1.4605,-1.4605,0.0,0.0,0.0,0.0,0.0,0.0,0.0,0.0,0.0,0.0,0.0,0.0,0.0,0.0,0.0,0.0,0.0,0.0,0.0,0.0,0.0,0.0,0.0,0.0,0.0,0.0,0.0,0.0,0.0,0.0,-1.824,-1.8267,-1.8483,-1.8987,-1.8794,-1.8501,-1.8104,-1.8351,-1.825,-1.789,-1.8261,-1.8447,-1.8458,-1.8949,-1.9266,-1.9409,-1.9813,-2.0042,-2.0118,-2.0118,-2.0118,-2.0118,-2.0118,-2.0118,-2.0118,-2.0118,-2.0118,-2.0118,-2.0118,-2.0118,-2.0118,-2.0118,-2.0009,-1.9933,-1.99,-1.9769,-1.9605,-1.9384,-1.9318,-1.9318,-1.9142,-1.9108,-1.9142,-1.9108,-1.9108,-1.9108,-1.9108,-1.9108,-1.9108,-1.9108,-1.9108,-1.9108,-1.9108,-1.9108,-1.9108,-1.9108,-1.9108,-1.9108,-1.9108,-1.9108,-1.9108,-1.9108,-1.9108,-1.9108,-1.9108,-1.9108,-1.8898,-1.8341,-1.8307,-1.7198,-1.4705,-1.4605,-1.4605,-1.4605,-1.4605,-1.4605,-1.4605,-1.4605,-1.4605,-1.4605,-1.4605,-1.4605,0.0,0.0,0.0,0.0,0.0,0.0,0.0,0.0,0.0,0.0,0.0,0.0,0.0,0.0,0.0,0.0,0.0,0.0,0.0,0.0,0.0,0.0,0.0,0.0,0.0,0.0,0.0,0.0,0.0,0.0,-1.8881,-1.8881,-1.8907,-1.8987,-1.8472,-1.8162,-1.8093,-1.7684,-1.747,-1.7405,-1.747,-1.7492,-1.7514,-1.7966,-1.8643,-1.9387,-1.9453,-1.9725,-2.0118,-2.0118,-2.0118,-2.0118,-2.0118,-2.0118,-2.0118,-2.0118,-2.0118,-2.0118,-2.0118,-2.0118,-2.0118,-2.0118,-2.0085,-2.0042,-1.9933,-1.9868,-1.9769,-1.9417,-1.9417,-1.9473,-1.9175,-1.9175,-1.9241,-1.9142,-1.9108,-1.9108,-1.9108,-1.9108,-1.9108,-1.9108,-1.9108,-1.9108,-1.9108,-1.9108,-1.9108,-1.9108,-1.9108,-1.9108,-1.9108,-1.9108,-1.9108,-1.9108,-1.9108,-1.9108,-1.9108,-1.9108,-1.7993,-1.5365,-1.5196,-1.5018,-1.4605,-1.4605,-1.4605,-1.4605,-1.4605,-1.4605,-1.4605,-1.4605,-1.4605,-1.4605,-1.4605,-1.4605,0.0,0.0,0.0,0.0,0.0,0.0,0.0,0.0,0.0,0.0,0.0,0.0,0.0,0.0,0.0,0.0,0.0,0.0,0.0,0.0,0.0,0.0,0.0,0.0,0.0,0.0,0.0,0.0,0.0,-1.9119,-1.9422,-1.9448,-1.9448,-1.9448,-1.8883,-1.8429,-1.8093,-1.7562,-1.7306,-1.7306,-1.7306,-1.7306,-1.7317,-1.7497,-1.7977,-1.8643,-1.8895,-1.9288,-1.9704,-1.9704,-1.9867,-2.0118,-2.0118,-2.0118,-2.0118,-2.0118,-2.0118,-2.0118,-2.0118,-2.0118,-2.0118,-2.0118,-2.0118,-2.0085,-2.0042,-2.0009,-1.9944,-1.9704,-1.9704,-1.9704,-1.944,-1.9341,-1.9274,-1.9264,-1.9175,-1.9108,-1.9108,-1.9108,-1.9108,-1.9108,-1.9108,-1.9108,-1.9108,-1.9108,-1.9108,-1.9108,-1.9108,-1.9108,-1.9108,-1.9108,-1.9108,-1.9108,-1.9108,-1.9108,-1.9108,-1.9108,-1.8543,-1.7198,-1.7129,-1.7129,-1.7129,-1.5507,-1.4605,-1.4605,-1.4605,-1.4605,-1.4605,-1.4605,-1.4605,-1.4605,-1.4605,-1.4605,0.0,0.0,0.0,0.0,0.0,0.0,0.0,0.0,0.0,0.0,0.0,0.0,0.0,0.0,0.0,0.0,0.0,0.0,0.0,0.0,0.0,0.0,0.0,0.0,0.0,0.0,0.0,0.0,0.0,-1.9617,-2.0016,-2.0042,-1.9965,-1.9798,-1.9277,-1.8709,-1.8093,-1.7562,-1.7306,-1.7306,-1.7306,-1.7306,-1.7306,-1.7306,-1.7475,-1.7846,-1.8316,-1.8785,-1.9233,-1.9233,-1.9496,-1.9933,-1.9933,-1.9998,-2.0118,-2.0118,-2.0118,-2.0118,-2.0118,-2.0118,-2.0118,-2.0118,-2.0118,-2.0118,-2.0118,-2.0118,-2.0074,-1.9976,-1.9933,-1.9911,-1.9714,-1.955,-1.9417,-1.944,-1.9308,-1.9142,-1.9108,-1.9108,-1.9108,-1.9108,-1.9108,-1.9108,-1.9108,-1.9108,-1.9108,-1.9108,-1.9108,-1.9108,-1.9108,-1.9108,-1.9108,-1.9108,-1.9108,-1.9108,-1.9108,-1.9108,-1.9108,-1.9108,-1.9108,-1.9108,-1.9108,-1.6957,-1.5745,-1.5745,-1.5365,-1.4991,-1.4605,-1.4605,-1.4605,-1.4605,-1.4605,-1.4605,0.0,0.0,0.0,0.0,0.0,0.0,0.0,0.0,0.0,0.0,0.0,0.0,0.0,0.0,0.0,0.0,0.0,0.0,0.0,0.0,0.0,0.0,0.0,0.0,0.0,0.0,0.0,0.0,0.0,-2.0624,-2.0649,-2.0649,-2.0385,-1.9837,-1.9277,-1.8709,-1.8093,-1.7562,-1.7306,-1.7306,-1.7306,-1.7306,-1.7306,-1.7306,-1.7317,-1.7372,-1.7824,-1.8305,-1.8731,-1.8731,-1.9015,-1.9431,-1.9431,-1.9704,-2.0118,-2.0118,-2.0118,-2.0118,-2.0118,-2.0118,-2.0118,-2.0118,-2.0118,-2.0118,-2.0118,-2.0118,-2.0118,-2.0074,-2.0085,-2.0053,-1.9856,-1.9791,-1.9747,-1.9605,-1.945,-1.9241,-1.9142,-1.9108,-1.9108,-1.9108,-1.9108,-1.9108,-1.9108,-1.9108,-1.9108,-1.9108,-1.9108,-1.9108,-1.9108,-1.9108,-1.9108,-1.9108,-1.9108,-1.9108,-1.9108,-1.9108,-1.9108,-1.9108,-1.9108,-1.9108,-1.9108,-1.8965,-1.8865,-1.8865,-1.7482,-1.607,-1.4605,-1.4605,-1.4605,-1.4605,-1.4605,-1.4605,0.0,0.0,0.0,0.0,0.0,0.0,0.0,0.0,0.0,0.0,0.0,0.0,0.0,0.0,0.0,0.0,0.0,0.0,0.0,0.0,0.0,0.0,0.0,0.0,0.0,0.0,0.0,0.0,0.0,0.0,-1.9525,-1.9525,-1.9287,-1.8732,-1.8536,-1.8121,-1.7543,-1.7739,-1.7634,-1.7306,-1.7306,-1.7306,-1.7306,-1.7306,-1.7306,-1.7317,-1.7492,-1.7813,-1.825,-1.825,-1.8534,-1.8949,-1.8949,-1.9058,-1.9255,-1.9529,-1.9649,-1.9693,-2.0009,-2.0118,-2.0118,-2.0118,-2.0118,-2.0118,-2.0118,-2.0118,-2.0118,-2.0118,-2.0118,-2.0074,-2.002,-1.9976,-1.9911,-1.9539,-1.9308,-1.9175,-1.9098,-1.9108,-1.9108,-1.9108,-1.9108,-1.9108,-1.9108,-1.9108,-1.9108,-1.9108,-1.9108,-1.9108,-1.9108,-1.9108,-1.9108,-1.9108,-1.9108,-1.9108,-1.9108,-1.9108,-1.9108,-1.9108,-1.9108,-1.9108,-1.9108,-1.9108,-1.9108,-1.9108,-1.8586,-1.7584,-1.607,-1.5586,-1.5374,-1.5374,-1.4848,-1.4605,0.0,0.0,0.0,0.0,0.0,0.0,0.0,0.0,0.0,0.0,0.0,0.0,0.0,0.0,0.0,0.0,0.0,0.0,0.0,0.0,0.0,0.0,0.0,0.0,0.0,0.0,0.0,0.0,0.0,0.0,-1.8911,-1.8911,-1.8644,-1.8119,-1.7893,-1.7605,-1.7196,-1.7453,-1.7451,-1.7263,-1.7109,-1.7142,-1.7306,-1.7306,-1.7306,-1.7306,-1.7306,-1.7492,-1.7759,-1.7759,-1.8043,-1.8458,-1.8458,-1.8556,-1.8731,-1.9058,-1.9179,-1.9244,-1.9693,-1.9867,-1.99,-2.0063,-2.0118,-2.0118,-2.0118,-2.0118,-2.0118,-2.0118,-2.0118,-2.0118,-2.0118,-2.0118,-1.9976,-1.9572,-1.9374,-1.9241,-1.9108,-1.9108,-1.9108,-1.9108,-1.9108,-1.9108,-1.9108,-1.9108,-1.9108,-1.9108,-1.9108,-1.9108,-1.9108,-1.9108,-1.9108,-1.9108,-1.9108,-1.9108,-1.9108,-1.9108,-1.9108,-1.9108,-1.9108,-1.9108,-1.9108,-1.9108,-1.9108,-1.9108,-1.9108,-1.8442,-1.7139,-1.6481,-1.6175,-1.614,-1.5444,-1.4919,0.0,0.0,0.0,0.0,0.0,0.0,0.0,0.0,0.0,0.0,0.0,0.0,0.0,0.0,0.0,0.0,0.0,0.0,0.0,0.0,0.0,0.0,0.0,0.0,0.0,0.0,0.0,0.0,0.0,-1.8858,-1.8858,-1.8858,-1.8616,-1.8092,-1.7496,-1.7193,-1.7193,-1.6738,-1.674,-1.7179,-1.6705,-1.6754,-1.7262,-1.7273,-1.7284,-1.7284,-1.7295,-1.7306,-1.7306,-1.7306,-1.7562,-1.7988,-1.7988,-1.8261,-1.8643,-1.8665,-1.8665,-1.8742,-1.9222,-1.9366,-1.9442,-1.9911,-2.0085,-2.0118,-2.0118,-2.0118,-2.0118,-2.0118,-2.0118,-2.0118,-2.0118,-2.0118,-2.0009,-1.9671,-1.9605,-1.9506,-1.9175,-1.9108,-1.9108,-1.9108,-1.9108,-1.9108,-1.9108,-1.9108,-1.9108,-1.9108,-1.9108,-1.9108,-1.9108,-1.9108,-1.9108,-1.9108,-1.9108,-1.9108,-1.9108,-1.9108,-1.9108,-1.9108,-1.9108,-1.9108,-1.9108,-1.9108,-1.9108,-1.9108,-1.9108,-1.862,-1.7653,-1.7173,-1.6906,-1.6862,-1.6298,-1.5542,-0.722,0.0,0.0,0.0,0.0,0.0,0.0,0.0,0.0,0.0,0.0,0.0,0.0,0.0,0.0,0.0,0.0,0.0,0.0,0.0,0.0,0.0,0.0,0.0,0.0,0.0,0.0,0.0,-1.7669,-1.7669,-1.7669,-1.7669,-1.7605,-1.7454,-1.7373,-1.7299,-1.7194,-1.6821,-1.6669,-1.6706,-1.6218,-1.6073,-1.6225,-1.6579,-1.6721,-1.6743,-1.7114,-1.7306,-1.7306,-1.7306,-1.7383,-1.7475,-1.7475,-1.7562,-1.7744,-1.8065,-1.8196,-1.8261,-1.8731,-1.8884,-1.8916,-1.9047,-1.954,-2.0118,-2.0118,-2.0118,-2.0118,-2.0118,-2.0118,-2.0118,-2.0118,-2.0118,-2.0074,-1.9976,-1.9572,-1.9198,-1.9108,-1.9108,-1.9108,-1.9108,-1.9108,-1.9108,-1.9108,-1.9108,-1.9108,-1.9108,-1.9108,-1.9108,-1.9108,-1.9108,-1.9108,-1.9108,-1.9108,-1.9108,-1.9108,-1.9108,-1.9108,-1.9108,-1.9108,-1.9108,-1.9108,-1.9108,-1.9108,-1.9108,-1.9108,-1.8965,-1.8687,-1.7823,-1.7026,-1.6306,-1.5436,-1.4883,0.0,0.0,0.0,0.0,0.0,0.0,0.0,0.0,0.0,0.0,0.0,0.0,0.0,0.0,0.0,0.0,0.0,0.0,0.0,0.0,0.0,0.0,0.0,0.0,0.0,0.0,0.0,-1.7199,-1.7199,-1.7199,-1.7199,-1.7199,-1.7199,-1.7199,-1.7291,-1.7271,-1.7193,-1.6823,-1.6575,-1.6498,-1.602,-1.5794,-1.5822,-1.6083,-1.6203,-1.6236,-1.6754,-1.6961,-1.6972,-1.7219,-1.7306,-1.7306,-1.7306,-1.7306,-1.7339,-1.7595,-1.7704,-1.777,-1.8239,-1.8403,-1.8436,-1.8632,-1.8982,-1.9355,-1.9627,-1.9616,-1.9595,-1.9998,-2.0118,-2.0118,-2.0118,-2.0118,-2.0118,-2.0118,-1.9813,-1.9506,-1.9506,-1.9506,-1.944,-1.9142,-1.9108,-1.9108,-1.9108,-1.9108,-1.9108,-1.9108,-1.9108,-1.9108,-1.9108,-1.9108,-1.9108,-1.9108,-1.9108,-1.9108,-1.9108,-1.9108,-1.9108,-1.9108,-1.9108,-1.9108,-1.9108,-1.9108,-1.9108,-1.9108,-1.9108,-1.9108,-1.9108,-1.7891,-1.731,-1.7335,-1.6749,-1.5816,0.0,0.0,0.0,0.0,0.0,0.0,-1.1547,-1.133,0.0,0.0,0.0,0.0,0.0,0.0,0.0,0.0,0.0,0.0,0.0,0.0,0.0,0.0,0.0,0.0,0.0,-1.7199,-1.7199,-1.7199,-1.7199,-1.7199,-1.7199,-1.7199,-1.7199,-1.7199,-1.7157,-1.7157,-1.7199,-1.668,-1.6453,-1.6475,-1.5963,-1.5714,-1.5723,-1.5727,-1.5724,-1.5756,-1.6214,-1.6443,-1.6557,-1.7005,-1.7262,-1.7306,-1.7306,-1.7306,-1.7306,-1.7306,-1.7306,-1.7361,-1.7781,-1.7923,-1.7999,-1.8403,-1.837,-1.8283,-1.8827,-1.8838,-1.8796,-1.9573,-1.9867,-1.9976,-2.0085,-2.0118,-2.0118,-2.0118,-2.0118,-2.0118,-2.0118,-2.0118,-1.9911,-1.9341,-1.9142,-1.9108,-1.9108,-1.9108,-1.9108,-1.9108,-1.9108,-1.9108,-1.9108,-1.9108,-1.9108,-1.9108,-1.9108,-1.9108,-1.9108,-1.9108,-1.9108,-1.9108,-1.9108,-1.9108,-1.9108,-1.9108,-1.9108,-1.9108,-1.9108,-1.9108,-1.9108,-1.7448,-1.731,-1.8586,-1.8586,-1.7164,-1.0722,-1.106,-1.1506,0.0,0.0,0.0,0.0,-0.979,0.0,0.0,0.0,0.0,0.0,0.0,0.0,0.0,0.0,0.0,0.0,0.0,0.0,0.0,0.0,0.0,0.0,-1.7199,-1.7199,-1.7199,-1.7199,-1.7199,-1.7199,-1.7199,-1.7199,-1.7199,-1.6829,-1.682,-1.7199,-1.6367,-1.6134,-1.6498,-1.5655,-1.5234,-1.5232,-1.5242,-1.5247,-1.5269,-1.5735,-1.6149,-1.6498,-1.6596,-1.6907,-1.7306,-1.7306,-1.7306,-1.7306,-1.7306,-1.7306,-1.7317,-1.7415,-1.7448,-1.7459,-1.7558,-1.7781,-1.7999,-1.7755,-1.7955,-1.8239,-1.7923,-1.8392,-1.9157,-1.9911,-2.0118,-2.0118,-2.0118,-2.0118,-2.0118,-2.0118,-2.0118,-2.0042,-1.9944,-1.9473,-1.9108,-1.9108,-1.9108,-1.9108,-1.9108,-1.9108,-1.9108,-1.9108,-1.9108,-1.9108,-1.9108,-1.9108,-1.9108,-1.9108,-1.9108,-1.9108,-1.9108,-1.9108,-1.9108,-1.9108,-1.9108,-1.9108,-1.9108,-1.9108,-1.9108,-1.9098,-1.6376,-1.5196,-1.5471,-1.5471,-1.5161,0.0,0.0,-1.2359,-1.175,0.0,0.0,0.0,0.0,0.0,0.0,0.0,0.0,0.0,0.0,0.0,0.0,0.0,0.0,0.0,0.0,0.0,0.0,0.0,0.0,0.0,-1.7042,-1.7199,-1.7199,-1.7199,-1.7199,-1.7199,-1.7199,-1.7199,-1.7199,-1.6968,-1.6955,-1.7199,-1.6731,-1.6509,-1.65,-1.5778,-1.5322,-1.5097,-1.486,-1.4744,-1.4766,-1.5258,-1.5571,-1.5836,-1.6051,-1.6443,-1.6929,-1.7208,-1.7306,-1.7306,-1.7306,-1.7306,-1.7306,-1.7306,-1.7306,-1.7306,-1.7306,-1.747,-1.7595,-1.7383,-1.7497,-1.7682,-1.7394,-1.7645,-1.8097,-1.8589,-1.869,-1.8929,-1.9889,-2.0118,-2.0118,-2.0118,-2.0118,-2.0118,-2.0118,-1.9846,-1.9506,-1.9175,-1.9108,-1.9108,-1.9108,-1.9108,-1.9108,-1.9108,-1.9108,-1.9108,-1.9108,-1.9108,-1.9108,-1.9108,-1.9108,-1.9108,-1.9108,-1.9108,-1.9108,-1.9108,-1.9108,-1.9108,-1.9108,-1.9108,-1.9108,-1.9108,-1.7575,-1.6062,-1.4605,-1.4605,-1.4605,0.0,0.0,0.0,0.0,0.0,-1.1896,0.0,0.0,0.0,-1.1588,0.0,0.0,0.0,0.0,0.0,0.0,0.0,0.0,0.0,0.0,0.0,0.0,0.0,0.0,0.0,-1.6349,-1.6728,-1.716,-1.6885,-1.6846,-1.7186,-1.7199,-1.7199,-1.7199,-1.7199,-1.7199,-1.7199,-1.7199,-1.701,-1.6629,-1.6086,-1.5601,-1.521,-1.4651,-1.4396,-1.4418,-1.4799,-1.5017,-1.5137,-1.5506,-1.5942,-1.6411,-1.694,-1.7219,-1.7306,-1.7306,-1.7306,-1.7306,-1.7306,-1.7306,-1.7306,-1.7306,-1.7306,-1.7306,-1.7306,-1.7306,-1.7306,-1.7306,-1.7306,-1.7306,-1.7306,-1.7306,-1.7671,-1.9191,-1.9562,-1.9562,-1.9562,-1.9856,-2.0118,-2.0118,-2.0118,-1.9944,-1.9374,-1.9208,-1.9131,-1.9274,-1.9308,-1.9241,-1.9108,-1.9108,-1.9142,-1.9274,-1.9175,-1.9108,-1.9108,-1.9108,-1.9108,-1.9108,-1.9108,-1.9108,-1.9108,-1.9108,-1.9108,-1.9108,-1.9108,-1.9108,-1.9108,-1.9108,-1.755,-1.4605,-1.4605,-1.4605,0.0,0.0,0.0,0.0,-1.5153,0.0,0.0,0.0,-1.1003,-0.96,0.0,0.0,0.0,0.0,0.0,0.0,0.0,0.0,0.0,0.0,0.0,0.0,0.0,0.0,0.0,0.0,-1.5016,-1.7042,-1.5761,-1.5565,-1.712,-1.7199,-1.7199,-1.7199,-1.7199,-1.7199,-1.7199,-1.7199,-1.7178,-1.7115,-1.6225,-1.5766,-1.5678,-1.48,-1.4396,-1.4396,-1.4462,-1.4712,-1.5116,-1.517,-1.5451,-1.5931,-1.64,-1.6874,-1.7306,-1.7306,-1.7306,-1.7306,-1.7306,-1.7306,-1.7306,-1.7306,-1.7306,-1.7306,-1.7306,-1.7306,-1.7306,-1.7306,-1.7306,-1.7306,-1.7306,-1.7306,-1.7361,-1.758,-1.7634,-1.7634,-1.7634,-1.8919,-2.0118,-2.0118,-2.0118,-2.0074,-2.0009,-1.9506,-1.9308,-1.9911,-1.9976,-1.978,-1.9175,-1.9108,-1.9341,-1.9911,-1.944,-1.9108,-1.9108,-1.9108,-1.9108,-1.9108,-1.9108,-1.9108,-1.9108,-1.9108,-1.9108,-1.9108,-1.9108,-1.9108,-1.9108,-1.9108,-1.755,-1.4605,-1.4605,-1.4605,0.0,0.0,0.0,0.0,0.0,0.0,-1.2071,0.0,-1.1059,0.0,0.0,0.0,0.0,0.0,0.0,0.0,0.0,0.0,0.0,0.0,0.0,0.0,0.0,0.0,0.0,0.0,0.0,0.0,0.0,-1.4908,-1.6637,-1.6728,-1.6872,-1.7186,-1.7199,-1.7199,-1.7199,-1.7199,-1.7052,-1.6799,-1.6129,-1.5656,-1.5367,-1.4686,-1.4396,-1.4396,-1.4396,-1.4517,-1.4679,-1.4679,-1.4974,-1.5407,-1.5618,-1.6164,-1.6841,-1.6841,-1.7027,-1.7306,-1.7306,-1.7306,-1.7306,-1.7306,-1.7306,-1.7306,-1.7306,-1.7306,-1.7306,-1.7306,-1.7306,-1.7306,-1.7306,-1.7306,-1.7306,-1.7306,-1.7306,-1.7306,-1.7306,-1.7912,-1.8818,-1.99,-2.0118,-2.0118,-2.0118,-1.9878,-1.978,-2.0053,-2.0118,-2.0009,-1.9714,-1.9671,-1.9648,-1.9539,-1.9274,-1.9108,-1.9108,-1.9108,-1.9108,-1.9108,-1.9108,-1.9108,-1.9108,-1.9108,-1.9108,-1.9108,-1.9108,-1.9108,-1.9108,-1.9108,-1.8442,-1.7198,-1.7198,-1.6263,-1.862,0.0,0.0,0.0,0.0,0.0,0.0,0.0,0.0,0.0,0.0,0.0,0.0,0.0,0.0,0.0,0.0,0.0,0.0,0.0,0.0,0.0,0.0,0.0,0.0,0.0,0.0,0.0,0.0,0.0,-1.5787,-1.6062,-1.6402,-1.6963,-1.712,-1.7199,-1.7199,-1.7199,-1.7031,-1.6693,-1.6216,-1.5756,-1.5277,-1.4811,-1.4512,-1.4396,-1.4396,-1.4396,-1.4396,-1.4396,-1.4591,-1.4908,-1.4908,-1.5411,-1.6116,-1.6258,-1.6645,-1.7071,-1.7071,-1.7186,-1.7306,-1.7306,-1.7306,-1.7306,-1.7306,-1.7306,-1.7306,-1.7306,-1.7306,-1.7306,-1.7306,-1.7306,-1.7306,-1.7306,-1.7306,-1.7306,-1.7306,-1.7306,-1.7693,-1.906,-1.9758,-2.0118,-2.0118,-2.0118,-2.0118,-2.0118,-2.0118,-2.0118,-2.0118,-2.0118,-1.9846,-1.9175,-1.9108,-1.9108,-1.9108,-1.9108,-1.9108,-1.9108,-1.9108,-1.9108,-1.9108,-1.9108,-1.9108,-1.9108,-1.9108,-1.9108,-1.9108,-1.9108,-1.9108,-1.9108,-1.9108,-1.7925,0.0,0.0,0.0,-1.6857,0.0,0.0,0.0,0.0,-1.2594,0.0,0.0,0.0,0.0,0.0,0.0,0.0,0.0,0.0,0.0,0.0,0.0,0.0,0.0,0.0,0.0,0.0,0.0,0.0,0.0,0.0,-1.4511,-1.5199,-1.58,-1.6402,-1.6924,-1.7199,-1.7199,-1.7199,-1.7199,-1.7178,-1.6701,-1.6216,-1.5766,-1.53,-1.4834,-1.4396,-1.4396,-1.4396,-1.4396,-1.4396,-1.4407,-1.4429,-1.4429,-1.4712,-1.5203,-1.5658,-1.6127,-1.652,-1.652,-1.6863,-1.7306,-1.7306,-1.7306,-1.7306,-1.7306,-1.7306,-1.7306,-1.7306,-1.7306,-1.7306,-1.7306,-1.7306,-1.7306,-1.7306,-1.7306,-1.7306,-1.7306,-1.7306,-1.7328,-1.7383,-1.8873,-2.0118,-2.0118,-2.0118,-2.0118,-2.0118,-2.0118,-2.0118,-2.0118,-2.0118,-1.9846,-1.9175,-1.9108,-1.9108,-1.9108,-1.9108,-1.9108,-1.9108,-1.9108,-1.9108,-1.9108,-1.9108,-1.9108,-1.9108,-1.9108,-1.9108,-1.9108,-1.9108,-1.9108,-1.9108,-1.9108,-1.9031,0.0,0.0,-1.9822,-1.7806,0.0,0.0,0.0,0.0,0.0,0.0,0.0,0.0,0.0,0.0,0.0,0.0,0.0,0.0,0.0,0.0,0.0,0.0,0.0,0.0,0.0,0.0,0.0,0.0,0.0,0.0,0.0,-1.4977,-1.5774,-1.6375,-1.6924,-1.7199,-1.7199,-1.7199,-1.7052,-1.6723,-1.6586,-1.625,-1.5788,-1.5645,-1.5322,-1.4857,-1.4857,-1.4697,-1.4396,-1.4396,-1.4396,-1.4396,-1.4396,-1.4506,-1.4679,-1.517,-1.5822,-1.6541,-1.6907,-1.7164,-1.7306,-1.7306,-1.7306,-1.7306,-1.7306,-1.7306,-1.7306,-1.7306,-1.7306,-1.7306,-1.7306,-1.7306,-1.7306,-1.7306,-1.7306,-1.7306,-1.7306,-1.7306,-1.7306,-1.7306,-1.8829,-2.0118,-2.0118,-2.0118,-2.0118,-2.0118,-2.0118,-2.0118,-2.0118,-2.0118,-2.0009,-1.978,-1.978,-1.9572,-1.9142,-1.9108,-1.9108,-1.9108,-1.9108,-1.9108,-1.9108,-1.9108,-1.9108,-1.9108,-1.9108,-1.9108,-1.9108,-1.9108,-1.9108,-1.9108,-1.9108,-1.9108,-2.0304,-2.0304,0.0,-1.84,-1.7364,0.0,-1.4376,0.0,0.0,0.0,0.0,0.0,0.0,0.0,0.0,0.0,0.0,0.0,0.0,0.0,0.0,0.0,0.0,0.0,0.0,0.0,-1.0005,-1.0939,0.0,0.0,0.0,0.0,-1.5466,-1.6049,-1.6807,-1.7199,-1.7199,-1.7199,-1.7052,-1.6757,-1.6757,-1.6509,-1.6064,-1.6064,-1.58,-1.5345,-1.5345,-1.5074,-1.4651,-1.4651,-1.4558,-1.4396,-1.4396,-1.4396,-1.444,-1.4733,-1.5454,-1.6323,-1.6841,-1.7153,-1.7306,-1.7306,-1.7306,-1.7306,-1.7306,-1.7306,-1.7306,-1.7306,-1.7306,-1.7306,-1.7306,-1.7306,-1.7306,-1.7306,-1.7306,-1.7306,-1.7306,-1.7306,-1.7306,-1.7306,-1.8283,-1.9202,-1.954,-1.9878,-2.0118,-2.0118,-2.0118,-2.0118,-2.0118,-2.0118,-2.0118,-2.0118,-2.0118,-1.9944,-1.9506,-1.9473,-1.9473,-1.9473,-1.9241,-1.9108,-1.9108,-1.9108,-1.9108,-1.9108,-1.9108,-1.9108,-1.9108,-1.9108,-1.9108,-1.9108,-1.9108,-1.9108]},{"header":{"parameterUnit":"m.s-1","parameterCategory":1,"la1":30.6,"la2":29.2853,"lo1":-89.7004,"lo2":-87.6739,"dy":0.0162,"dx":0.0183,"nx":112,"ny":82,"refTime":"2024-07-10T06:00:00:Z","depth":0,"parameterNumber":3,"parameterNumberName":"V-component_of_WINDS"},"data":[0.0,0.0,0.0,0.0,0.0,0.0,0.0,0.0,0.0,0.0,0.0,0.0,0.0,0.0,0.0,0.0,0.0,0.0,0.0,0.0,0.0,0.0,0.0,0.0,0.0,0.0,0.0,0.0,0.0,0.0,0.0,0.0,0.0,0.0,0.0,0.0,0.0,0.0,0.0,0.0,0.0,0.0,0.0,0.0,0.0,0.0,0.0,0.0,0.0,0.0,0.0,0.0,0.0,0.0,0.0,0.0,0.0,0.0,0.0,0.0,0.0,0.0,0.0,0.0,0.0,0.0,0.0,0.0,0.0,0.0,0.0,0.0,0.0,0.0,0.0,0.0,0.0,0.0,0.0,0.0,0.0,0.0,0.0,0.0,0.0,0.0,0.0,0.0,0.0,0.0,0.0,-1.8732,-2.1186,-2.2594,-2.2289,-2.2292,-2.067,-1.6892,0.0,0.0,0.0,0.0,0.0,0.0,0.0,0.0,0.0,0.0,0.0,0.0,0.0,0.0,0.0,0.0,0.0,0.0,0.0,0.0,0.0,0.0,0.0,0.0,0.0,0.0,0.0,0.0,0.0,0.0,0.0,0.0,0.0,0.0,0.0,0.0,0.0,0.0,0.0,0.0,0.0,0.0,0.0,0.0,0.0,0.0,0.0,0.0,0.0,0.0,0.0,0.0,0.0,0.0,0.0,0.0,0.0,0.0,0.0,0.0,0.0,0.0,0.0,0.0,0.0,0.0,0.0,0.0,0.0,0.0,0.0,0.0,0.0,0.0,0.0,0.0,0.0,0.0,0.0,0.0,0.0,0.0,0.0,0.0,0.0,0.0,0.0,0.0,0.0,0.0,0.0,0.0,0.0,0.0,0.0,0.0,0.0,0.0,0.0,0.0,0.0,0.0,0.0,0.0,-1.7784,-2.1914,-2.2555,-2.2673,-2.2634,-2.262,-2.1265,-1.804,0.0,0.0,0.0,0.0,0.0,0.0,0.0,0.0,0.0,0.0,0.0,0.0,0.0,0.0,0.0,0.0,0.0,0.0,0.0,0.0,0.0,0.0,0.0,0.0,0.0,0.0,0.0,0.0,0.0,0.0,0.0,0.0,0.0,0.0,0.0,0.0,0.0,0.0,0.0,0.0,0.0,0.0,0.0,0.0,0.0,0.0,0.0,0.0,0.0,0.0,0.0,0.0,0.0,0.0,0.0,0.0,0.0,0.0,0.0,0.0,0.0,0.0,0.0,0.0,0.0,0.0,0.0,0.0,0.0,0.0,0.0,0.0,0.0,0.0,0.0,0.0,0.0,0.0,0.0,0.0,0.0,0.0,0.0,0.0,0.0,0.0,0.0,0.0,0.0,0.0,0.0,0.0,0.0,0.0,0.0,0.0,0.0,0.0,0.0,0.0,0.0,0.0,0.0,-1.6879,-1.9047,-2.2716,-2.3114,-2.306,-2.294,-2.2927,-2.1538,-1.8301,-1.6536,0.0,0.0,0.0,0.0,0.0,0.0,0.0,0.0,0.0,0.0,0.0,0.0,0.0,0.0,0.0,0.0,0.0,0.0,0.0,0.0,0.0,0.0,0.0,0.0,0.0,0.0,0.0,0.0,0.0,0.0,0.0,0.0,0.0,0.0,0.0,0.0,0.0,0.0,0.0,0.0,0.0,0.0,0.0,0.0,0.0,0.0,0.0,0.0,0.0,0.0,0.0,0.0,0.0,0.0,0.0,0.0,0.0,0.0,0.0,0.0,0.0,0.0,0.0,0.0,0.0,0.0,0.0,0.0,0.0,0.0,0.0,0.0,0.0,0.0,0.0,0.0,0.0,0.0,0.0,0.0,0.0,0.0,0.0,0.0,0.0,0.0,0.0,0.0,0.0,0.0,0.0,0.0,0.0,0.0,0.0,0.0,0.0,0.0,0.0,0.0,0.0,0.0,-1.8682,-2.0332,-2.2917,-2.3372,-2.3424,-2.3217,-2.2682,-2.1101,-1.8178,-1.6227,0.0,0.0,0.0,0.0,0.0,0.0,0.0,0.0,0.0,0.0,0.0,0.0,0.0,0.0,0.0,0.0,0.0,0.0,0.0,0.0,0.0,0.0,0.0,0.0,0.0,0.0,0.0,0.0,0.0,0.0,0.0,0.0,0.0,0.0,0.0,0.0,0.0,0.0,0.0,0.0,0.0,0.0,0.0,0.0,0.0,0.0,0.0,0.0,0.0,0.0,0.0,0.0,0.0,0.0,0.0,0.0,0.0,0.0,0.0,0.0,0.0,0.0,0.0,0.0,0.0,0.0,0.0,0.0,0.0,0.0,0.0,0.0,0.0,0.0,0.0,0.0,0.0,0.0,0.0,0.0,0.0,0.0,0.0,0.0,0.0,0.0,0.0,0.0,0.0,0.0,0.0,0.0,0.0,0.0,0.0,0.0,0.0,0.0,0.0,0.0,0.0,0.0,-1.9109,-2.1597,-2.3286,-2.3494,-2.3494,-2.3464,-2.1469,-1.9473,-1.7745,-1.4784,0.0,0.0,0.0,0.0,0.0,0.0,0.0,0.0,0.0,0.0,0.0,0.0,0.0,0.0,0.0,0.0,0.0,0.0,0.0,0.0,0.0,0.0,0.0,0.0,0.0,0.0,0.0,0.0,0.0,0.0,0.0,0.0,0.0,0.0,0.0,0.0,0.0,0.0,0.0,0.0,0.0,0.0,0.0,0.0,0.0,0.0,0.0,0.0,0.0,0.0,0.0,0.0,0.0,0.0,0.0,0.0,0.0,0.0,0.0,0.0,0.0,0.0,0.0,0.0,0.0,0.0,0.0,0.0,0.0,0.0,0.0,0.0,0.0,0.0,0.0,0.0,0.0,0.0,0.0,0.0,0.0,0.0,0.0,0.0,0.0,0.0,0.0,0.0,0.0,0.0,0.0,0.0,0.0,0.0,0.0,0.0,0.0,0.0,0.0,0.0,0.0,0.0,-1.8289,-2.0652,0.0,-2.3505,-2.3505,-2.3505,-2.2232,-2.0333,-1.7762,0.0,0.0,0.0,0.0,0.0,0.0,0.0,0.0,0.0,0.0,0.0,0.0,0.0,0.0,0.0,0.0,0.0,0.0,0.0,0.0,0.0,0.0,0.0,0.0,0.0,0.0,0.0,0.0,0.0,0.0,0.0,0.0,0.0,0.0,0.0,0.0,0.0,0.0,0.0,0.0,0.0,0.0,0.0,0.0,0.0,0.0,0.0,0.0,0.0,0.0,0.0,0.0,0.0,0.0,0.0,0.0,0.0,0.0,0.0,0.0,0.0,0.0,0.0,0.0,0.0,0.0,0.0,0.0,0.0,0.0,0.0,0.0,0.0,0.0,0.0,0.0,0.0,0.0,0.0,0.0,0.0,0.0,0.0,0.0,0.0,0.0,0.0,0.0,0.0,0.0,0.0,0.0,0.0,0.0,0.0,0.0,0.0,0.0,0.0,0.0,0.0,0.0,-1.5875,-1.8091,-2.0454,0.0,-2.3459,-2.3505,-2.3505,-2.2089,-2.0037,-1.7387,0.0,0.0,0.0,0.0,0.0,0.0,0.0,0.0,0.0,0.0,0.0,0.0,0.0,0.0,0.0,0.0,0.0,0.0,0.0,0.0,0.0,0.0,0.0,0.0,0.0,0.0,0.0,0.0,0.0,0.0,0.0,0.0,0.0,0.0,0.0,0.0,0.0,0.0,0.0,0.0,0.0,0.0,0.0,0.0,0.0,0.0,0.0,0.0,0.0,0.0,0.0,0.0,0.0,0.0,0.0,0.0,0.0,0.0,0.0,0.0,0.0,0.0,0.0,0.0,0.0,0.0,0.0,0.0,0.0,0.0,0.0,0.0,0.0,0.0,0.0,0.0,0.0,0.0,0.0,0.0,0.0,0.0,0.0,0.0,0.0,0.0,0.0,0.0,0.0,0.0,0.0,0.0,0.0,0.0,0.0,0.0,0.0,0.0,0.0,0.0,0.0,0.0,-1.5802,-1.8808,-2.1392,-2.2932,-2.3336,-2.3494,-2.3494,-2.0624,-1.8137,0.0,0.0,0.0,0.0,0.0,0.0,0.0,0.0,0.0,0.0,0.0,0.0,0.0,0.0,0.0,0.0,0.0,0.0,0.0,0.0,0.0,0.0,0.0,0.0,0.0,0.0,0.0,0.0,0.0,0.0,0.0,0.0,0.0,0.0,0.0,0.0,0.0,0.0,0.0,0.0,0.0,0.0,0.0,0.0,0.0,0.0,0.0,0.0,0.0,0.0,0.0,0.0,0.0,0.0,0.0,0.0,0.0,0.0,0.0,0.0,0.0,0.0,0.0,0.0,0.0,0.0,0.0,0.0,0.0,0.0,0.0,0.0,0.0,0.0,0.0,0.0,0.0,0.0,0.0,0.0,0.0,0.0,0.0,0.0,0.0,0.0,0.0,0.0,0.0,0.0,0.0,0.0,0.0,0.0,0.0,0.0,0.0,0.0,0.0,0.0,0.0,0.0,0.0,-1.6063,-1.9051,-2.1553,-2.2944,-2.318,-2.3217,-2.3217,-2.1337,-1.9061,-1.6568,0.0,0.0,0.0,0.0,0.0,0.0,0.0,0.0,0.0,0.0,0.0,0.0,0.0,0.0,0.0,0.0,0.0,0.0,0.0,0.0,0.0,0.0,0.0,0.0,0.0,0.0,0.0,0.0,0.0,0.0,0.0,0.0,0.0,0.0,0.0,0.0,0.0,0.0,0.0,0.0,0.0,0.0,0.0,0.0,0.0,0.0,0.0,0.0,0.0,0.0,0.0,0.0,0.0,0.0,0.0,0.0,0.0,0.0,0.0,0.0,0.0,0.0,0.0,0.0,0.0,0.0,0.0,0.0,0.0,0.0,0.0,0.0,0.0,0.0,0.0,0.0,0.0,0.0,0.0,0.0,0.0,0.0,0.0,0.0,0.0,0.0,0.0,0.0,0.0,0.0,0.0,0.0,0.0,0.0,0.0,0.0,0.0,0.0,0.0,0.0,0.0,0.0,-1.6017,-1.9188,-2.1772,-2.2967,-2.3205,-2.3265,-2.3265,-2.207,-2.0056,-1.7075,0.0,0.0,0.0,0.0,0.0,0.0,0.0,0.0,0.0,0.0,0.0,0.0,0.0,0.0,0.0,0.0,0.0,0.0,0.0,0.0,0.0,0.0,0.0,0.0,0.0,0.0,0.0,0.0,0.0,0.0,0.0,0.0,0.0,0.0,0.0,0.0,0.0,0.0,0.0,0.0,0.0,0.0,0.0,0.0,0.0,0.0,0.0,0.0,0.0,0.0,0.0,0.0,0.0,0.0,0.0,0.0,0.0,0.0,0.0,0.0,0.0,0.0,0.0,0.0,0.0,0.0,0.0,0.0,0.0,0.0,0.0,0.0,0.0,0.0,0.0,0.0,0.0,0.0,0.0,0.0,0.0,0.0,0.0,0.0,0.0,0.0,0.0,0.0,0.0,0.0,0.0,0.0,0.0,0.0,0.0,0.0,0.0,0.0,0.0,0.0,0.0,0.0,-1.5893,-1.9323,-2.2012,-2.2915,-2.3247,-2.3407,-2.3383,-2.2671,-2.0914,-1.787,0.0,0.0,0.0,0.0,0.0,0.0,0.0,0.0,0.0,0.0,0.0,0.0,0.0,0.0,0.0,0.0,0.0,0.0,0.0,0.0,0.0,0.0,0.0,0.0,0.0,0.0,0.0,0.0,0.0,0.0,0.0,0.0,0.0,0.0,0.0,0.0,0.0,0.0,0.0,0.0,0.0,0.0,0.0,0.0,0.0,0.0,0.0,0.0,0.0,0.0,0.0,0.0,0.0,0.0,0.0,0.0,0.0,0.0,0.0,0.0,-1.3457,0.0,0.0,0.0,0.0,0.0,0.0,0.0,0.0,0.0,0.0,0.0,0.0,0.0,0.0,0.0,0.0,0.0,0.0,0.0,0.0,0.0,0.0,0.0,0.0,0.0,0.0,0.0,0.0,0.0,0.0,0.0,0.0,0.0,0.0,0.0,0.0,0.0,0.0,0.0,0.0,0.0,-1.6752,-1.9973,-2.2201,-2.2384,-2.2686,-2.2764,-2.2493,-2.1974,-2.0686,-1.8387,-1.693,0.0,0.0,0.0,0.0,0.0,0.0,0.0,0.0,0.0,0.0,0.0,0.0,0.0,0.0,0.0,0.0,0.0,0.0,0.0,0.0,0.0,0.0,0.0,0.0,0.0,0.0,0.0,0.0,0.0,0.0,0.0,0.0,0.0,0.0,0.0,0.0,0.0,0.0,0.0,0.0,0.0,0.0,0.0,0.0,0.0,0.0,0.0,0.0,0.0,0.0,0.0,0.0,0.0,0.0,0.0,0.0,0.0,0.0,0.0,0.0,-1.4546,0.0,0.0,0.0,0.0,0.0,0.0,0.0,0.0,0.0,0.0,0.0,0.0,0.0,0.0,0.0,0.0,0.0,0.0,0.0,0.0,0.0,0.0,0.0,0.0,0.0,0.0,0.0,0.0,0.0,0.0,0.0,0.0,0.0,0.0,0.0,0.0,0.0,0.0,0.0,0.0,-1.7528,-2.0622,-2.2711,-2.2797,-2.2985,-2.3022,-2.2837,-2.2601,-2.1674,-1.981,-1.8359,0.0,0.0,0.0,0.0,0.0,0.0,0.0,0.0,0.0,0.0,0.0,0.0,0.0,0.0,0.0,0.0,0.0,0.0,0.0,0.0,0.0,0.0,0.0,0.0,0.0,0.0,0.0,0.0,0.0,0.0,0.0,0.0,0.0,0.0,0.0,0.0,0.0,0.0,0.0,0.0,0.0,0.0,0.0,0.0,0.0,0.0,0.0,0.0,0.0,0.0,0.0,0.0,0.0,-2.2329,-2.1635,-2.2483,-2.0005,-1.9389,-2.0199,-1.856,-1.7299,-1.6385,0.0,0.0,0.0,0.0,0.0,0.0,0.0,0.0,0.0,0.0,0.0,0.0,0.0,0.0,0.0,0.0,0.0,0.0,0.0,0.0,0.0,0.0,0.0,0.0,0.0,-1.9064,-1.877,0.0,0.0,0.0,0.0,0.0,0.0,0.0,0.0,0.0,0.0,0.0,0.0,-1.8395,-2.1167,-2.3077,-2.3199,-2.3247,-2.3259,-2.3211,-2.3247,-2.2675,-2.1267,-1.9886,-1.8502,0.0,0.0,0.0,0.0,0.0,0.0,0.0,0.0,0.0,0.0,0.0,0.0,0.0,0.0,0.0,0.0,0.0,0.0,0.0,0.0,0.0,0.0,0.0,0.0,0.0,0.0,0.0,0.0,0.0,0.0,0.0,0.0,-1.0367,-1.119,0.0,0.0,0.0,0.0,0.0,0.0,0.0,0.0,0.0,0.0,0.0,0.0,0.0,0.0,-1.9664,-2.0757,-2.1487,-2.1892,-2.3933,-2.4554,-2.3926,-2.4008,-2.4121,-2.421,-2.3489,0.0,-1.884,-1.9996,0.0,0.0,0.0,0.0,0.0,0.0,0.0,0.0,0.0,0.0,0.0,0.0,0.0,0.0,0.0,0.0,0.0,0.0,0.0,0.0,0.0,0.0,-2.2228,-2.2973,-2.3205,-2.3007,0.0,-1.8862,-1.6171,-1.5889,-1.4811,0.0,0.0,0.0,0.0,0.0,0.0,0.0,-1.9512,-2.1481,-2.2571,-2.207,-2.2237,-2.2278,-2.2041,-2.2237,-2.2106,-2.1497,-2.0812,-2.017,-1.9546,-1.7218,0.0,0.0,0.0,0.0,0.0,0.0,0.0,0.0,0.0,0.0,0.0,0.0,0.0,0.0,0.0,0.0,0.0,0.0,0.0,0.0,0.0,0.0,0.0,0.0,0.0,0.0,0.0,0.0,0.0,-1.0399,-1.1992,-1.2859,-1.3316,-1.3361,0.0,0.0,0.0,0.0,0.0,0.0,0.0,0.0,0.0,-1.7517,-1.7569,-1.9561,-2.3672,-2.372,-2.372,-2.372,-2.4191,-2.4767,-2.543,-2.5363,-2.5679,-2.6283,-2.6049,-2.4744,-2.2718,-2.1714,-2.0565,-1.9216,0.0,0.0,0.0,0.0,-1.3307,-1.6295,-1.8643,-2.0258,0.0,-2.1526,0.0,0.0,0.0,0.0,0.0,0.0,0.0,0.0,0.0,0.0,-2.3089,-2.3818,-2.4,-2.3918,-2.3586,-2.2013,-2.0174,0.0,-1.7347,-1.6243,-1.5054,0.0,0.0,0.0,0.0,0.0,-2.0657,-2.2068,-2.2884,-2.2764,-2.2867,-2.2875,-2.2764,-2.2849,-2.2853,-2.2646,-2.1975,-2.1519,-2.1304,-1.902,-1.7379,0.0,0.0,0.0,0.0,0.0,0.0,0.0,0.0,0.0,0.0,0.0,0.0,0.0,0.0,0.0,0.0,0.0,0.0,0.0,0.0,0.0,0.0,0.0,0.0,0.0,0.0,0.0,0.0,-1.2182,-1.3521,-1.4408,-1.531,-1.5583,0.0,0.0,0.0,0.0,0.0,0.0,-1.8843,-1.9391,-2.037,-2.1955,-2.1256,-2.2383,-2.5565,-2.5597,-2.5969,-2.6685,-2.597,-2.6379,-2.7771,-2.7356,-2.7645,-2.8421,-2.8101,-2.7482,-2.649,-2.3591,-2.2393,-2.2296,-2.1244,-1.9134,-1.6671,-1.6671,-1.9111,-2.2393,-2.2393,-2.2426,-2.2525,-2.283,0.0,-2.2997,-1.9759,0.0,0.0,0.0,0.0,-2.1845,-2.3123,-2.3454,-2.3653,-2.4398,-2.4564,-2.4564,-2.4564,-2.4414,-2.3586,0.0,-2.0127,-1.9064,-1.7283,0.0,0.0,0.0,0.0,-2.0025,-2.1473,-2.2306,-2.2871,-2.3133,-2.317,-2.3194,-2.3301,-2.3313,-2.3307,-2.3383,-2.2838,-2.254,-2.2607,-2.0733,-1.9234,-1.8226,0.0,0.0,0.0,0.0,0.0,0.0,0.0,0.0,0.0,0.0,0.0,0.0,0.0,0.0,0.0,0.0,0.0,0.0,0.0,0.0,0.0,0.0,0.0,0.0,0.0,0.0,0.0,0.0,0.0,-1.5803,-1.7111,0.0,0.0,0.0,0.0,-1.8216,-1.9013,-2.0542,-2.2967,-2.2884,-2.3717,-2.5769,-2.463,-2.4496,-2.56,-2.5597,-2.6976,-2.9691,-3.0833,-3.1434,-3.1522,-3.1503,-3.1503,-3.1503,-3.0294,-2.9735,-2.9459,-2.6571,-2.5371,-2.5371,-2.5306,-2.5163,-2.5005,-2.5005,-2.5165,-2.5371,-2.5371,-2.5501,-2.5704,-2.5917,-2.4779,-2.3222,-2.2697,-2.258,0.0,0.0,-2.3238,-2.4017,-2.4795,-2.4994,-2.5193,-2.5904,-2.6086,-2.6086,-2.6086,-2.554,-2.4778,0.0,-2.3189,-2.241,-2.1613,0.0,-2.0437,-2.047,-2.055,-2.0896,-2.1691,-2.1838,-2.1969,-2.2234,-2.2275,-2.2385,-2.2699,-2.2743,-2.2846,-2.3089,-2.3079,-2.317,-2.3422,-2.2589,-2.1422,-1.9912,-1.7468,0.0,0.0,0.0,0.0,0.0,0.0,0.0,0.0,0.0,0.0,0.0,0.0,0.0,0.0,0.0,0.0,0.0,0.0,0.0,0.0,0.0,0.0,0.0,0.0,0.0,0.0,0.0,0.0,-1.8094,-1.9372,0.0,0.0,-2.0002,-2.0762,-2.1169,-2.1785,-2.2932,-2.4723,-2.4734,-2.5301,-2.6651,-2.6526,-2.6175,-2.5597,-2.7429,-2.8876,-2.9918,-3.0342,-3.0572,-3.0572,-3.0572,-3.0572,-3.0551,-3.0098,-2.9896,-2.9815,-2.8795,-2.8373,-2.8373,-2.8373,-2.8373,-2.8373,-2.8373,-2.8522,-2.875,-2.875,-2.8119,-2.7279,-2.7156,-2.6219,-2.5143,-2.5026,-2.5341,-2.5724,-2.5724,-2.6271,-2.6901,-2.7166,-2.7214,-2.7298,-2.7545,-2.7247,-2.6917,-2.6917,-2.6336,-2.5722,-2.5475,-2.4448,-2.3371,-2.2626,-2.2675,-2.2659,-2.2178,-2.251,-2.2802,-2.2765,-2.2761,-2.2707,-2.2535,-2.2686,-2.2769,-2.2699,-2.2859,-2.3003,-2.3077,-2.2616,-2.2453,-2.272,-2.15,-2.0555,-2.0002,-1.7629,-1.5505,0.0,0.0,0.0,0.0,0.0,0.0,0.0,0.0,0.0,0.0,0.0,0.0,0.0,0.0,0.0,0.0,0.0,0.0,0.0,0.0,0.0,0.0,0.0,0.0,0.0,0.0,-1.854,-1.9647,-2.1111,-2.1857,-2.1396,-2.241,-2.3271,-2.3651,-2.4231,-2.5137,-2.6382,-2.6351,-2.6727,-2.7646,-2.7685,-2.7494,-2.7057,-2.8957,-2.9896,-2.9896,-2.9896,-2.9896,-2.9896,-2.9896,-3.0415,-3.1322,-3.1322,-3.1144,-3.0852,-3.0852,-3.0755,-3.0561,-3.0075,-2.9896,-2.9896,-2.9896,-2.9843,-2.9769,-2.9687,-2.8992,-2.8093,-2.7935,-2.7446,-2.6949,-2.6949,-2.7282,-2.7663,-2.7663,-2.8011,-2.8392,-2.8392,-2.8392,-2.8392,-2.8392,-2.8028,-2.7663,-2.7663,-2.71,-2.6568,-2.6568,-2.559,-2.4514,-2.3768,-2.405,-2.4116,-2.3388,-2.3686,-2.3899,-2.3569,-2.3405,-2.3223,-2.3064,-2.3079,-2.3065,-2.2973,-2.3126,-2.3241,-2.3241,-2.2729,-2.2403,-2.2303,-2.1314,-2.0519,-2.0002,-1.7896,-1.629,-1.5273,0.0,0.0,0.0,0.0,0.0,0.0,0.0,0.0,0.0,0.0,0.0,0.0,0.0,0.0,0.0,0.0,0.0,0.0,0.0,0.0,0.0,0.0,0.0,-1.729,-1.904,-2.037,-2.0402,-2.2281,-2.3285,-2.2556,-2.377,-2.4887,-2.5597,-2.6328,-2.7127,-2.8056,-2.7883,-2.8127,-2.9002,-2.8229,-2.8482,-2.988,-2.9896,-2.9896,-2.9896,-2.9896,-2.9967,-3.0026,-3.0026,-3.1517,-3.4101,-3.4068,-3.355,-3.27,-3.2684,-3.2409,-3.1882,-3.0464,-2.9896,-2.9896,-2.9896,-2.9297,-2.8406,-2.8159,-2.8155,-2.8289,-2.842,-2.8459,-2.8459,-2.8459,-2.8459,-2.8459,-2.8459,-2.8459,-2.8459,-2.8459,-2.8459,-2.8459,-2.8459,-2.8442,-2.8426,-2.8426,-2.7845,-2.7315,-2.7315,-2.6733,-2.5987,-2.5259,-2.5143,-2.4895,-2.4183,-2.4067,0.0,-2.4033,-2.3638,-2.3449,-2.3698,-2.3354,-2.321,-2.3495,-2.35,-2.3494,-2.3494,-2.3458,-2.3095,-2.2332,-2.2278,-2.1564,-2.0055,-1.8458,-1.7646,-1.7646,0.0,0.0,0.0,0.0,0.0,0.0,0.0,0.0,0.0,0.0,0.0,0.0,0.0,0.0,0.0,0.0,0.0,0.0,0.0,0.0,0.0,0.0,-1.9625,-1.9447,-2.0807,-2.2021,-2.2556,-2.4045,-2.4952,-2.4739,-2.5988,-2.6911,-2.7122,-2.7316,-2.7778,-2.8575,-2.8524,-2.8853,-2.9626,-3.0086,-3.0188,-2.9896,-2.9896,-2.9896,-2.9896,-2.9896,-3.0966,-3.2935,-3.2935,-3.3356,-3.4068,-3.3388,-3.2927,-3.2668,-3.2328,-3.2312,-3.2328,-3.0593,-2.9896,-2.9896,-2.9896,-2.9854,-2.9784,-2.9799,-2.9832,-2.9873,-2.991,-2.991,-2.991,-2.991,-2.991,-2.991,-2.991,-2.991,-2.991,-2.991,-2.991,-2.991,-2.991,-2.9516,-2.9135,-2.9135,-2.8572,-2.8094,-2.8094,-2.7497,-2.6768,-2.6003,-2.5887,-2.5821,-2.564,-2.559,0.0,-2.4878,-2.468,-2.451,-2.4309,-2.3832,-2.3575,-2.3715,-2.3405,-2.3217,-2.3217,-2.2653,-2.2339,-2.2303,-2.1732,-2.1233,-2.0805,-1.927,-1.8476,0.0,0.0,0.0,0.0,0.0,0.0,0.0,0.0,0.0,0.0,0.0,0.0,0.0,0.0,0.0,0.0,0.0,0.0,0.0,0.0,0.0,0.0,-2.0726,-2.2167,-2.2491,-2.296,-2.3543,-2.4288,-2.5373,-2.6183,-2.6438,-2.751,-2.8158,-2.8158,-2.845,-2.8919,-2.9648,-2.968,-2.9923,-3.048,-3.1008,-3.1413,-3.1663,-3.1663,-3.1663,-3.1663,-3.1663,-3.2514,-3.4101,-3.4101,-3.4101,0.0,-3.3534,-3.3307,-3.3275,-3.3,-3.3048,0.0,0.0,0.0,0.0,0.0,-3.0995,-3.1166,-3.0983,-3.0948,-3.0903,-3.0605,-3.0506,-3.0506,-3.0506,-3.0506,-3.0506,-3.0506,-3.0506,-3.0506,-3.0506,-3.0506,-3.0506,-3.0506,-3.0174,-2.986,-2.986,-2.9317,-2.8804,-2.8804,-2.8243,0.0,-2.6783,-2.6402,-2.6202,-2.6202,-2.6202,-2.6036,-2.5606,-2.5395,-2.5196,-2.495,-2.4462,-2.4109,-2.3979,-2.3719,0.0,0.0,0.0,-2.2497,-2.2303,-2.1518,0.0,0.0,0.0,0.0,0.0,0.0,0.0,0.0,-1.8744,-1.85,0.0,0.0,0.0,0.0,0.0,0.0,0.0,0.0,0.0,0.0,0.0,0.0,0.0,0.0,0.0,0.0,-2.2928,-2.4903,-2.571,-2.5276,-2.5098,-2.5759,-2.649,-2.717,-2.7769,-2.8482,-2.8973,-2.9016,-2.9637,-3.0318,-3.0985,0.0,0.0,0.0,0.0,-3.2287,-3.3939,-3.4052,-3.4101,-3.4101,-3.4101,-3.4101,-3.4101,-3.4101,-3.4101,-3.4101,-3.4101,-3.4101,-3.4101,-3.4101,-3.4101,-3.3971,-3.2643,-3.2336,-3.2595,-3.2299,-3.2269,-3.2308,-3.1764,0.0,0.0,-3.0931,-3.0716,-3.07,-3.0638,-3.0621,-3.0605,-3.0522,-3.0506,-3.0506,-3.0506,-3.0506,-3.0506,-3.0506,-3.0506,-3.0506,-3.0506,-2.9976,-2.9512,-2.9512,-2.8969,-2.831,-2.7647,-2.6849,-2.6303,-2.6202,-2.6202,-2.6202,-2.6202,-2.5848,-2.5596,-2.5628,0.0,0.0,-2.4423,-2.4279,-2.4008,-2.3608,-2.3518,-2.3184,-2.2457,-2.175,-2.1714,-2.2421,-2.2439,-2.2785,-2.3505,-2.3505,-2.3505,-2.3416,-1.998,-1.956,0.0,0.0,0.0,0.0,0.0,0.0,0.0,0.0,0.0,0.0,0.0,0.0,0.0,0.0,0.0,-2.33,-2.4644,-2.5824,-2.7102,-2.717,-2.7138,-2.7284,-2.7931,-2.8454,-2.8563,-2.9248,-2.9913,-3.0451,-3.0629,-3.1017,-3.1769,-3.1801,0.0,-3.1866,-3.2433,-3.2821,-3.2959,-3.3728,-3.4101,-3.4101,0.0,0.0,-3.4101,-3.4101,-3.4101,-3.4101,-3.4101,-3.4101,-3.4101,-3.4101,-3.4101,-3.402,-3.3194,-3.2579,-3.2125,-3.2185,-3.2222,-3.2236,-3.2171,-3.2151,-3.2157,-3.2121,-3.2094,-3.2017,-3.1543,-3.1383,0.0,-3.0671,-3.0506,-3.0506,-3.0506,-3.0506,-3.0506,-3.0506,-3.0506,-3.0506,-3.0506,-3.039,-3.029,-3.029,-2.9694,-2.9168,-2.9019,-2.7926,-2.6901,-2.6285,-2.6202,-2.6202,-2.6202,-2.6106,-2.6164,-2.6455,-2.5812,-2.5428,-2.5641,-2.477,-2.416,-2.407,-2.3715,-2.3434,-2.3273,-2.3113,-2.3113,-2.3255,-2.3273,-2.3345,-2.3505,-2.3505,-2.3505,-2.3487,-2.2786,-2.307,0.0,0.0,0.0,0.0,0.0,0.0,0.0,0.0,0.0,0.0,0.0,-1.909,0.0,0.0,-2.3526,-2.5308,-2.6199,-2.7041,-2.8093,-2.8255,-2.8255,-2.8255,-2.8579,-2.894,-2.9313,-2.9988,-3.0538,-3.0872,-3.1244,-3.1762,-3.2514,-3.2546,-3.2708,-3.3048,-3.3404,-3.3534,-3.3404,-3.3874,-3.4101,-3.4101,-3.4101,-3.4101,-3.4101,-3.4101,-3.4101,-3.4101,-3.4101,-3.4101,-3.4101,-3.4101,-3.4101,-3.4068,-3.3728,-3.3372,-3.3064,-3.3193,-3.3289,-3.3312,-3.3036,-3.2998,-3.3001,-3.2683,-3.259,-3.2546,-3.2243,-3.1879,-3.1515,-3.1151,-3.0787,-3.0506,-3.0506,-3.0506,-3.0506,-3.0506,-3.0506,-3.0506,-3.0506,-3.0506,-3.0506,-3.0506,-3.0191,-2.9827,-2.9446,-2.882,-2.7976,-2.6899,-2.6452,-2.6202,-2.6202,-2.6202,-2.6329,-2.6657,-2.6336,-2.6142,-2.6239,-2.5134,-2.4438,-2.4438,-2.3863,-2.3505,-2.3505,-2.3505,-2.3505,-2.3505,-2.3505,-2.3701,-2.4094,-2.4094,-2.429,-2.4647,-2.4682,-2.4712,0.0,0.0,0.0,0.0,0.0,0.0,0.0,0.0,-1.8359,-1.9899,-2.1131,-2.2377,-2.3852,-2.5049,-2.6102,-2.696,-2.7559,-2.8174,-2.8924,-2.9021,-2.9021,-2.9021,-2.9021,-2.9248,-2.9832,-3.0522,-3.0969,-3.1098,-3.1817,-3.253,-3.3242,-3.3291,-3.3534,-3.4084,-3.4101,-3.4101,-3.4101,-3.4101,-3.4101,-3.4101,-3.4101,-3.4101,-3.4101,-3.4101,-3.4101,-3.4101,-3.4101,-3.4101,-3.4101,-3.4101,-3.4101,-3.4101,-3.4101,-3.4101,-3.4126,-3.4226,-3.4325,-3.4366,-3.3873,-3.3778,-3.3813,-3.3224,-3.3065,-3.3071,-3.2945,-3.2497,-3.1962,-3.1681,-3.1168,-3.0671,-3.0539,-3.0506,-3.0506,-3.0506,-3.0506,-3.0506,-3.0506,-3.0506,-3.0506,-3.0506,-3.0506,-3.0307,-2.9711,-2.9479,-2.892,-2.7514,-2.6783,-2.6369,-2.6219,-2.6202,-2.6293,-2.6572,-2.6657,-2.6665,-2.651,-2.5605,-2.5008,-2.4926,-2.4308,-2.3951,-2.3951,-2.3951,-2.3951,-2.3951,-2.3951,-2.4272,-2.4908,-2.4908,-2.5229,-2.58,-2.5961,-2.5711,-1.4762,-1.4665,0.0,-1.7245,-1.7277,-1.7873,0.0,0.0,-2.1422,-2.3479,-2.4029,-2.458,-2.6069,-2.6474,-2.7008,-2.8336,-2.8628,-2.894,-2.967,-2.9767,-2.9767,-2.9767,-2.9767,-2.9799,-2.988,-3.0522,-3.1163,-3.1834,-3.2562,-3.3259,-3.3955,-3.3987,-3.402,-3.4101,-3.4101,-3.4101,-3.4101,-3.4101,-3.4101,-3.4101,-3.4101,-3.4101,-3.4101,-3.4101,-3.4101,-3.4101,-3.4101,-3.4101,-3.4101,-3.4101,-3.4101,-3.4101,-3.4101,-3.4101,-3.4101,-3.4126,-3.4126,-3.4134,-3.4053,-3.412,-3.4268,-3.4284,-3.4372,-3.4376,-3.3849,-3.3607,-3.3276,-3.1962,-3.1548,-3.1333,-3.0671,-3.0506,-3.0506,-3.0506,-3.0506,-3.0506,-3.0506,-3.0506,-3.0506,-3.0506,-3.0506,-3.0472,-3.039,-2.9827,-2.892,-2.7514,-2.7216,-2.695,-2.6268,-2.6202,-2.6203,-2.6257,-2.6504,-2.6665,-2.651,-2.6384,-2.6117,-2.5704,-2.5604,-2.5538,-2.5538,-2.5538,-2.5538,-2.5538,-2.5538,-2.5604,-2.5676,-2.5676,-2.5729,-2.5818,-2.6532,-2.6831,-1.7895,0.0,0.0,0.0,-2.1324,-2.1989,-2.4223,-2.458,-2.4693,-2.56,-2.6085,-2.6685,-2.7721,-2.7936,-2.826,0.0,-2.9443,-2.954,-2.9848,-2.9896,-2.9896,-2.9896,-2.9896,-2.9896,-2.9896,-3.0895,-3.1665,-3.1996,-3.3048,-3.3793,-3.4084,-3.4101,-3.4101,-3.4101,-3.4101,-3.4101,-3.4101,-3.4101,-3.4101,-3.4101,-3.4101,-3.4101,-3.4101,-3.4101,-3.4101,-3.4101,-3.4101,-3.4101,-3.4101,-3.4101,-3.4101,-3.4101,-3.4101,-3.4101,-3.4101,-3.4101,-3.4151,-3.4226,-3.4226,-3.4349,-3.4546,-3.4594,-3.4707,-3.4761,-3.4535,-3.4137,-3.3657,-3.3061,-3.226,-3.1532,-3.1217,-3.082,-3.0506,-3.0506,-3.0506,-3.0506,-3.0506,-3.0506,-3.0506,-3.0506,-3.0506,-3.0506,-3.0506,-3.0241,-2.9678,-2.8671,-2.7829,-2.7182,-2.6884,-2.6468,-2.6363,-2.6742,-2.726,-2.7549,-2.749,-2.7057,-2.6703,-2.6514,-2.6068,-2.58,-2.58,-2.58,-2.58,-2.58,-2.58,-2.6032,-2.6496,-2.6496,-2.6746,-2.7197,-2.7536,-2.771,-2.0013,0.0,0.0,-2.3463,-2.4452,-2.5292,-2.6037,-2.6604,-2.6976,-2.6976,-2.7365,-2.7867,-2.8385,-2.8644,0.0,-2.9507,-2.9929,-3.0107,-2.9913,-3.0058,-3.0107,-2.9913,-2.9896,-2.9896,-2.9896,-3.0992,-3.1785,-3.1996,-3.3129,-3.389,-3.4084,-3.4101,-3.4101,-3.4101,-3.4101,-3.4101,-3.4101,-3.4101,-3.4101,-3.4101,-3.4101,-3.4101,-3.4101,-3.4101,-3.4214,-3.4392,-3.4182,-3.4214,-3.4376,-3.4182,-3.4101,-3.4101,-3.4101,-3.4101,-3.4101,-3.4101,-3.4151,-3.425,-3.425,-3.4423,-3.4643,-3.4643,-3.4763,-3.4899,-3.4899,-3.4518,-3.4054,-3.3856,-3.3027,-3.2111,-3.1714,-3.1201,-3.0754,-3.0555,-3.0506,-3.0506,-3.0506,-3.0506,-3.0506,-3.0506,-3.0506,-3.0506,-3.0506,-3.0506,-3.0307,-2.9777,-2.8655,-2.7746,-2.7348,-2.6724,-2.6555,-2.7133,-2.7719,-2.8112,-2.8182,-2.7674,-2.7335,-2.7335,-2.6782,-2.6448,-2.6448,-2.6448,-2.6448,-2.6448,-2.6448,-2.6746,-2.7335,-2.7335,-2.7625,-2.8196,-2.8196,-2.832,0.0,0.0,-2.3593,-2.4306,-2.557,-2.6814,-2.7494,-2.7656,-2.7672,-2.7672,-2.7688,-2.7721,-2.7737,-2.832,-2.8811,-2.8843,-2.9988,-3.0652,-2.9977,-3.0457,-3.0635,-2.9977,-2.9896,-2.9896,0.0,-3.0538,-3.1228,-3.1963,-3.2692,-3.3404,-3.4068,-3.4101,-3.4101,-3.4101,-3.4101,-3.4101,-3.4101,-3.4101,-3.4101,-3.4101,-3.4101,-3.4101,-3.4101,-3.4101,-3.4489,-3.513,-3.4408,-3.4505,-3.5114,-3.4392,-3.4101,-3.4101,-3.4101,-3.4101,-3.4101,-3.4101,-3.4101,-3.4101,-3.4101,-3.4275,-3.4497,-3.4497,-3.4691,-3.4899,-3.4899,-3.4883,-3.4717,-3.3988,-3.3756,-3.3392,-3.1962,-3.1581,-3.1383,-3.0671,-3.0506,-3.0506,-3.0506,-3.0506,-3.0506,-3.0506,-3.0506,-3.0506,-3.0506,-3.0506,-3.0489,-3.0472,-2.981,-2.8837,-2.7481,-2.694,-2.6825,-2.7165,-2.7522,-2.785,-2.8168,-2.8178,-2.816,-2.816,-2.8142,-2.8142,-2.8142,-2.8142,-2.8142,-2.8142,-2.8142,-2.8142,-2.816,-2.816,-2.8178,-2.8196,-2.8196,-2.8624,0.0,0.0,-2.5179,-2.6328,-2.7365,-2.8292,-2.9005,-2.8773,-2.8417,-2.8417,-2.7688,-2.7041,-2.7041,-2.7235,-2.7543,-2.7996,-2.9275,-3.0172,-2.9929,-3.0895,-3.1202,-3.0026,-3.0279,0.0,0.0,0.0,0.0,-3.1947,-3.2676,-3.3372,-3.4052,-3.4101,-3.4101,-3.4101,-3.4101,-3.4101,-3.4101,-3.4101,-3.4101,-3.4101,-3.4101,-3.436,-3.4822,-3.4311,-3.4764,-3.5849,-3.4635,-3.4505,-3.5146,-3.4392,-3.4101,-3.4101,-3.4101,-3.4101,-3.4126,-3.4201,-3.4226,-3.4226,-3.4226,-3.4349,-3.4521,-3.4594,-3.4739,-3.4899,-3.4899,-3.4899,-3.4849,-3.4601,-3.417,-3.3673,-3.3193,-3.2326,-3.1548,-3.1283,-3.0853,-3.0506,-3.0506,-3.0506,-3.0506,-3.0506,-3.0506,-3.0506,-3.0506,-3.0506,-3.0506,-3.0506,-2.986,-2.8887,-2.7481,-2.757,-2.7618,-2.7233,-2.7704,-2.8067,-2.8182,-2.8196,-2.8196,-2.8196,-2.8196,-2.8196,-2.8196,-2.8196,-2.8196,-2.8196,-2.8196,-2.8196,-2.8196,-2.8196,-2.8196,-2.8213,-2.8748,-2.9137,0.0,-2.5276,-2.6616,-2.7802,-2.8665,-2.9248,-2.9459,-2.9151,-2.8579,-2.7802,-2.6944,-2.615,-2.5651,-2.5745,-2.6231,-2.7187,-2.8778,-2.9977,-3.0214,-3.1477,-3.1963,-3.0788,-3.104,-3.1292,0.0,0.0,0.0,-3.2336,-3.2821,-3.3372,-3.4052,-3.4101,-3.4101,-3.4101,-3.4101,-3.423,-3.4489,-3.4489,-3.4619,-3.4894,-3.4894,-3.5121,-3.5574,-3.5104,-3.5542,-3.6594,-3.5412,-3.5153,-3.5525,-3.4797,-3.4327,-3.4101,-3.4101,-3.4101,-3.4126,-3.425,-3.43,-3.43,-3.4349,-3.4448,-3.4594,-3.4667,-3.4787,-3.4899,-3.4899,-3.4899,-3.4899,-3.4899,-3.4551,-3.4121,-3.3856,-3.2895,-3.1912,-3.1664,-3.1035,-3.0506,-3.0506,-3.0506,-3.0506,-3.0506,-3.0506,-3.0506,-3.0506,-3.0506,-3.0506,-3.0506,-3.0092,-2.9383,-2.8191,-2.8455,-2.8438,-2.7679,-2.8212,-2.8517,-2.8231,-2.8196,-2.8196,-2.8196,-2.8196,-2.8196,-2.8196,-2.8196,-2.8196,-2.8196,-2.8196,-2.8196,-2.8196,-2.8196,-2.8356,-2.8641,-2.9173,-2.9708,-2.5341,-2.6697,-2.7931,-2.866,-2.9345,-2.9653,-2.8973,-2.873,-2.8045,-2.5969,-2.5451,-2.4968,0.0,0.0,-2.4871,-2.6345,-2.8454,-3.0139,-3.0807,-3.2206,-3.2854,0.0,0.0,0.0,0.0,0.0,0.0,-3.308,0.0,-3.3372,-3.4052,-3.4101,-3.4117,-3.4165,-3.4165,-3.4505,-3.526,-3.526,-3.5606,-3.6303,-3.6303,-3.6319,-3.6367,-3.6319,-3.6707,-3.7311,-3.661,-3.6319,-3.6303,-3.5535,-3.4781,-3.4149,-3.4117,-3.4101,-3.4126,-3.425,-3.4325,-3.4349,-3.4472,-3.4594,-3.4691,-3.4707,-3.4804,-3.4899,-3.4899,-3.4899,-3.4899,-3.4899,-3.4899,-3.4733,-3.4038,-3.3292,-3.2564,-3.1879,-3.1118,-3.0555,-3.0555,-3.0522,-3.0506,-3.0506,-3.0506,-3.0506,-3.0506,-3.0506,-3.0506,-3.0506,-3.0506,-3.0224,-2.9479,-2.9488,-2.9231,-2.8403,-2.8969,-2.9084,-2.8267,-2.8196,-2.8196,-2.8196,-2.8196,-2.8196,-2.8196,-2.8196,-2.8196,-2.8196,-2.8196,-2.8231,-2.8267,-2.8267,-2.8677,-2.9458,-2.9494,-3.0297,-2.6782,-2.7834,-2.8713,-2.9443,-2.9345,-2.9038,-2.8822,-2.7559,-2.6102,-2.5001,-2.3511,-2.2118,-2.1276,0.0,0.0,-2.4822,-2.7774,0.0,-3.0807,-3.2611,0.0,0.0,0.0,-3.2805,-3.2805,-3.2805,0.0,0.0,-3.3372,-3.3372,-3.4052,-3.4101,-3.4343,-3.4903,-3.4936,-3.5266,-3.6011,-3.6027,-3.6108,-3.6303,-3.6303,-3.6562,-3.702,-3.6546,-3.6983,-3.8051,-3.6837,-3.6594,-3.6967,-3.5704,-3.5098,-3.4845,-3.4311,-3.4151,-3.4275,-3.4399,-3.4521,-3.4618,-3.4739,-3.4739,-3.4732,-3.4828,-3.4875,-3.4899,-3.4899,-3.4899,-3.4899,-3.4899,-3.4899,-3.4849,-3.4667,-3.4054,-3.3458,-3.3276,-3.2266,-3.1317,-3.1317,-3.0886,-3.0506,-3.0506,-3.0506,-3.0506,-3.0506,-3.0506,-3.0506,-3.0506,-3.0506,-3.0224,-2.9479,-2.9895,-2.9765,-2.8438,-2.8969,-2.9084,-2.8267,-2.8196,-2.8196,-2.8196,-2.8196,-2.8196,-2.8196,-2.8196,-2.8196,-2.8196,-2.8196,-2.8499,-2.9101,-2.9101,-2.9494,-3.0229,-3.0832,-3.1314,-2.7883,-2.8709,-2.9378,-2.9783,-2.9345,-2.8547,-2.7608,-2.6215,-2.4644,-2.2993,-2.1697,0.0,0.0,0.0,0.0,0.0,0.0,0.0,-3.0678,-3.2498,-3.3469,0.0,-3.3291,0.0,-3.3996,-3.4028,-3.4295,0.0,-3.4408,-3.4207,-3.4554,-3.4894,-3.5266,-3.5655,-3.5671,-3.6011,-3.674,-3.7064,-3.7226,-3.7226,-3.7226,-3.742,-3.7776,-3.7388,-3.7647,-3.8359,0.0,-3.7096,-3.6821,-3.6011,-3.5283,-3.4667,-3.4262,-3.4176,-3.4325,-3.4448,-3.457,-3.4715,-3.4851,-3.4851,-3.4804,-3.4875,-3.4899,-3.4899,-3.4899,-3.4899,-3.4899,-3.4899,-3.4899,-3.4899,-3.4899,-3.4336,-3.3789,-3.3789,-3.2911,-3.2,-3.1664,-3.1267,-3.0886,-3.0555,-3.0506,-3.0506,-3.0506,-3.0506,-3.0506,-3.0506,-3.0506,-3.034,-2.9926,-3.054,-3.0557,-2.9386,-2.9955,-3.0083,-2.9283,-2.9212,-2.9069,-2.8748,-2.8731,-2.857,-2.8213,-2.8534,-2.8552,-2.8213,-2.8552,-2.8945,-2.9405,-2.9405,-2.9958,-3.1046,-3.1492,-3.1885,-2.8709,-2.941,-2.988,-2.9767,-2.9135,-2.798,-2.5924,-2.4677,-2.3187,-2.0548,0.0,0.0,-1.8054,0.0,-2.0645,-2.2151,0.0,-2.7688,-3.05,-3.2093,-3.3226,-3.4003,-3.4101,-3.4343,-3.5001,-3.5065,-3.5315,-3.5963,-3.5493,-3.5244,-3.5341,-3.5946,-3.6351,-3.6432,-3.6529,-3.6869,-3.7425,-3.8084,-3.8391,-3.8391,-3.8391,-3.8359,-3.8262,-3.8359,-3.8359,-3.8262,0.0,0.0,-3.6432,-3.6238,-3.5396,-3.423,-3.4133,-3.4201,-3.4349,-3.4448,-3.4594,-3.4739,-3.4875,-3.4899,-3.4899,-3.4899,-3.4899,-3.4899,-3.4899,-3.4899,-3.4899,-3.4899,-3.4899,-3.4899,-3.4899,-3.4419,-3.3938,-3.3938,-3.3398,-3.2663,-3.2028,-3.1747,-3.1383,-3.0638,-3.0506,-3.0506,-3.0506,-3.0506,-3.0506,-3.0506,-3.0506,-3.0506,-3.0506,-3.1162,-3.133,-3.0574,-3.1174,-3.1321,-3.055,-3.0496,-3.0229,-2.9601,-2.9547,-2.923,-2.8534,-2.9191,-2.9212,-2.8517,-2.9176,-2.9601,-2.9708,-2.9708,-3.044,-3.1849,-3.1849,-3.2239,-2.9345,-2.9799,-2.9751,-2.9151,-2.8012,-2.6636,-2.5049,-2.2782,0.0,0.0,0.0,-1.6678,-1.6403,-1.8019,0.0,-2.207,0.0,0.0,0.0,0.0,-3.2676,0.0,0.0,0.0,0.0,0.0,0.0,0.0,0.0,0.0,-3.6076,-3.6238,-3.6562,-3.7101,-3.7728,-3.81,-3.8213,-3.8343,-3.8391,-3.8391,-3.8391,-3.8084,-3.7517,-3.8116,-3.8068,-3.7473,-3.7473,0.0,-3.7048,-3.5866,-3.526,-3.4952,-3.4327,-3.425,-3.4472,-3.4497,-3.4659,-3.4875,-3.4899,-3.4899,-3.4899,-3.4899,-3.4899,-3.4899,-3.4899,-3.4899,-3.4899,-3.4899,-3.4899,-3.4899,-3.4899,-3.48,-3.47,-3.47,-3.4137,-3.3557,-3.3442,-3.2442,-3.1383,-3.0638,-3.0506,-3.0506,-3.0506,-3.0506,-3.0506,-3.0506,-3.0506,-3.0506,-3.0506,-3.0905,-3.103,-3.0556,-3.0922,-3.102,-3.0535,-3.0496,-3.0443,-3.0318,-3.0315,-3.0246,-3.0104,-3.0243,-3.0229,-3.0104,-3.0243,-3.0636,-3.1296,-3.1296,-3.1778,-3.2686,-3.2686,-3.2775,-2.8838,-2.9414,-2.9718,-2.8989,-2.7737,-2.6118,-2.39,0.0,0.0,0.0,0.0,-1.5436,-1.5436,0.0,0.0,0.0,0.0,0.0,0.0,0.0,0.0,0.0,0.0,0.0,0.0,0.0,0.0,0.0,0.0,0.0,-3.572,-3.6092,-3.6448,-3.6788,-3.7128,-3.7307,-3.7307,-3.7307,-3.7307,-3.7307,-3.7307,-3.7128,-3.6805,-3.7161,-3.7112,-3.6761,-3.6761,0.0,-3.6141,-3.5487,-3.4959,-3.4586,-3.423,-3.4226,-3.4399,-3.4399,-3.4521,-3.4691,-3.4763,-3.4804,-3.4804,-3.4875,-3.4899,-3.4899,-3.4899,-3.4899,-3.4899,-3.4899,-3.4899,-3.4899,-3.4899,-3.4899,-3.4899,-3.4899,-3.4336,-3.3789,-3.3789,-3.2646,-3.1499,-3.1135,-3.0754,-3.0506,-3.0506,-3.0506,-3.0506,-3.0506,-3.0506,-3.0506,-3.0506,-3.0675,-3.079,-3.0808,-3.1358,-3.1648,-3.1442,-3.1633,-3.1564,-3.1153,-3.1118,-3.0939,-3.0514,-3.0903,-3.0939,-3.0511,-3.0921,-3.1314,-3.1689,-3.1689,-3.2114,-3.29,-3.29,-3.29,-2.7981,-2.8786,-2.9453,-2.8597,-2.7413,-2.5713,-2.2815,-2.0401,0.0,0.0,0.0,-1.4535,-1.4842,0.0,0.0,0.0,0.0,0.0,0.0,0.0,0.0,0.0,0.0,0.0,0.0,0.0,0.0,0.0,0.0,0.0,-3.5454,-3.5995,-3.6303,-3.6303,-3.6303,-3.6303,-3.6303,-3.6303,-3.6303,-3.6303,-3.6303,-3.6222,-3.6076,-3.6238,-3.6222,-3.606,-3.606,0.0,0.0,-3.5033,-3.4603,-3.4101,-3.4101,-3.4176,-3.43,-3.43,-3.4374,-3.4521,-3.4618,-3.4683,-3.4715,-3.4828,-3.4875,-3.4899,-3.4899,-3.4899,-3.4899,-3.4899,-3.4899,-3.4899,-3.4899,-3.4899,-3.4899,-3.4899,-3.4452,-3.3938,-3.3624,-3.2646,-3.173,-3.1432,-3.0903,-3.0506,-3.0506,-3.0506,-3.0506,-3.0506,-3.0506,-3.0506,-3.0506,-3.0506,-3.0613,-3.0925,-3.1603,-3.2109,-3.2283,-3.2589,-3.2553,-3.1992,-3.1956,-3.1671,-3.1046,-3.1617,-3.1653,-3.1028,-3.1635,-3.1956,-3.1956,-3.1956,-3.2275,-3.29,-3.29,-3.29,-2.7181,-2.8155,-2.8624,-2.7386,-2.6378,-2.495,-2.2054,0.0,0.0,0.0,-1.3941,-1.3375,-1.4665,0.0,0.0,0.0,0.0,0.0,0.0,0.0,0.0,0.0,0.0,0.0,0.0,0.0,0.0,0.0,0.0,0.0,0.0,-3.627,-3.6303,-3.6303,-3.6303,-3.6303,-3.6303,-3.6303,-3.6303,-3.6303,-3.6303,-3.5946,-3.5325,-3.5995,-3.593,-3.5309,-3.5309,0.0,0.0,-3.4473,-3.4165,-3.4101,-3.4101,-3.4176,-3.43,-3.43,-3.4374,-3.4497,-3.4521,-3.4594,-3.4691,-3.4715,-3.4804,-3.4899,-3.4899,-3.4899,-3.4899,-3.4899,-3.4899,-3.4899,-3.4899,-3.4899,-3.4899,-3.4899,-3.4849,-3.4419,-3.31,-3.2702,-3.2199,-3.0853,-3.0555,-3.0506,-3.0506,-3.0506,-3.0506,-3.0506,-3.0506,-3.0506,-3.0506,-3.0506,-3.051,-3.0551,-3.0945,-3.1509,-3.2249,-3.2335,-3.2487,-3.2777,-3.2793,-3.2757,-3.2686,-3.2757,-3.2757,-3.2686,-3.2757,-3.2793,-3.2793,-3.2793,-3.2829,-3.29,-3.29,-3.29,-2.5013,-2.6242,-2.7133,-2.6168,-2.507,-2.3592,-2.1181,0.0,0.0,-1.4954,-1.3677,-1.3239,-1.4632,-1.4816,-1.5681,0.0,0.0,0.0,0.0,0.0,0.0,0.0,0.0,0.0,0.0,0.0,0.0,0.0,0.0,0.0,0.0,-3.4975,-3.4975,-3.4975,-3.4975,-3.4975,-3.4975,-3.4975,-3.4975,-3.4975,-3.4975,-3.4829,-3.4538,-3.4845,-3.4813,-3.4538,-3.4538,0.0,0.0,-3.4214,-3.4101,-3.4101,-3.4101,-3.4126,-3.4176,-3.4176,-3.4226,-3.4275,-3.4448,-3.4521,-3.4594,-3.478,-3.4851,-3.4899,-3.4899,-3.4899,-3.4899,-3.4899,-3.4899,-3.4899,-3.4899,-3.4899,-3.4899,-3.4899,-3.4899,-3.4618,-3.3574,-3.3017,-3.2398,-3.1366,-3.0803,-3.0506,-3.0506,-3.0506,-3.0506,-3.0506,-3.0506,-3.0506,-3.0506,-3.0506,-3.0506,-3.0506,-3.1083,-3.1584,-3.1913,-3.2369,-3.2721,-3.29,-3.29,-3.29,-3.29,-3.29,-3.29,-3.29,-3.29,-3.29,-3.29,-3.29,-3.29,-3.29,-3.29,-3.29,-2.3083,-2.4331,-2.5379,-2.4816,-2.385,-2.2539,0.0,0.0,-1.6069,-1.4868,-1.3605,-1.3096,-1.4368,-1.4389,-1.4989,0.0,-1.776,-1.8813,-2.1956,0.0,0.0,0.0,0.0,0.0,0.0,0.0,0.0,0.0,0.0,0.0,0.0,-3.4101,-3.4101,-3.4101,-3.4101,-3.4101,-3.4101,-3.4101,-3.4101,-3.4101,-3.4101,-3.4101,-3.4101,-3.4101,-3.4101,-3.4101,0.0,0.0,0.0,-3.4101,-3.4101,-3.4101,-3.4101,-3.4101,-3.4101,-3.4101,-3.4101,-3.4126,-3.4325,-3.4423,-3.4521,-3.4715,-3.4851,-3.4899,-3.4899,-3.4899,-3.4899,-3.4899,-3.4899,-3.4899,-3.4899,-3.4899,-3.4899,-3.4899,-3.4899,-3.4634,-3.3696,-3.3083,-3.2415,-3.1449,-3.0853,-3.0506,-3.0506,-3.0506,-3.0506,-3.0506,-3.0506,-3.0506,-3.0506,-3.0613,-3.0679,-3.0679,-3.1395,-3.1823,-3.1714,-3.2335,-3.277,-3.29,-3.29,-3.29,-3.29,-3.29,-3.29,-3.29,-3.29,-3.29,-3.29,-3.29,-3.29,-3.29,-3.29,-3.29,-2.1718,-2.2714,-2.3385,-2.3271,-2.2821,-2.204,0.0,-1.8168,-1.5951,-1.5069,-1.3621,-1.279,-1.3737,-1.4443,-1.5387,-1.6868,-1.8262,-1.9931,0.0,0.0,0.0,0.0,0.0,0.0,0.0,0.0,0.0,0.0,0.0,0.0,0.0,-3.4101,-3.4101,-3.4101,-3.4101,-3.4101,-3.4101,-3.4101,-3.4101,-3.4101,-3.4101,-3.4101,-3.4101,-3.4101,-3.4101,0.0,0.0,0.0,0.0,-3.4101,-3.4101,-3.4101,-3.4101,-3.4101,-3.4101,-3.4101,-3.4101,-3.4101,-3.4101,-3.4275,-3.4497,-3.4497,-3.4691,-3.4899,-3.4899,-3.4899,-3.4899,-3.4899,-3.4899,-3.4899,-3.4899,-3.4899,-3.4899,-3.4899,-3.4899,-3.4485,-3.3033,-3.2718,-3.2287,-3.0787,-3.0506,-3.0506,-3.0506,-3.0506,-3.0506,-3.0506,-3.0506,-3.0506,-3.0506,-3.0861,-3.1103,-3.1103,-3.1805,-3.2127,-3.1732,-3.2074,-3.2489,-3.2884,-3.29,-3.29,-3.29,-3.29,-3.29,-3.29,-3.29,-3.29,-3.29,-3.29,-3.29,-3.29,-3.29,-3.29,-1.8437,-1.9247,-1.9726,-1.9215,-1.8966,-1.8502,-1.7181,-1.6004,-1.4879,-1.3883,-1.3042,-1.279,-1.3721,-1.367,-1.4411,-1.7322,0.0,0.0,0.0,0.0,0.0,0.0,0.0,0.0,0.0,0.0,0.0,0.0,0.0,0.0,0.0,-3.4101,-3.4101,-3.4101,-3.4101,-3.4101,-3.4101,-3.4101,-3.4101,-3.4101,-3.4101,-3.4101,-3.4101,-3.4101,0.0,0.0,0.0,0.0,0.0,-3.4101,-3.4101,-3.4101,-3.4101,-3.4101,-3.4101,-3.4101,-3.4101,-3.4126,-3.4201,-3.43,-3.4399,-3.457,-3.4691,-3.478,-3.4875,-3.4899,-3.4899,-3.4899,-3.4899,-3.4899,-3.4899,-3.4899,-3.4899,-3.4899,-3.4502,-3.3872,-3.2917,-3.2299,-3.1648,-3.0688,-3.0506,-3.0506,-3.0506,-3.0506,-3.0506,-3.0506,-3.0506,-3.0506,-3.0506,-3.0613,-3.0679,-3.0679,-3.1414,-3.1949,-3.2091,-3.2471,-3.2753,-3.29,-3.29,-3.29,-3.29,-3.29,-3.29,-3.29,-3.29,-3.29,-3.29,-3.29,-3.29,-3.29,-3.29,-3.29,0.0,-1.676,-1.7044,-1.6737,-1.6585,-1.6276,-1.5491,-1.472,-1.4016,-1.3294,-1.2727,-1.2565,-1.3251,-1.3497,-1.4314,-1.6532,0.0,0.0,0.0,0.0,0.0,0.0,0.0,0.0,0.0,0.0,0.0,0.0,0.0,0.0,0.0,-3.4101,-3.4101,-3.4101,-3.4101,-3.4101,-3.4101,-3.4101,-3.4101,-3.4101,-3.4101,-3.4101,-3.4101,-3.4101,0.0,0.0,0.0,0.0,0.0,-3.4101,-3.4101,-3.4101,-3.4101,-3.4101,-3.4101,-3.4101,-3.4101,-3.4126,-3.4201,-3.425,-3.4325,-3.4546,-3.4691,-3.4787,-3.4875,-3.4899,-3.4899,-3.4899,-3.4899,-3.4899,-3.4899,-3.4899,-3.4833,-3.4551,-3.4336,-3.3856,-3.2564,-3.215,-3.1697,-3.0688,-3.0506,-3.0506,-3.0506,-3.0506,-3.0506,-3.0506,-3.0506,-3.0506,-3.0506,-3.0634,-3.072,-3.072,-3.1451,-3.202,-3.2283,-3.2672,-3.29,-3.29,-3.29,-3.29,-3.29,-3.29,-3.29,-3.29,-3.29,-3.29,-3.29,-3.29,-3.29,-3.29,-3.29,-3.29,0.0,-1.5022,-1.5154,-1.5428,-1.5286,-1.5066,-1.5044,-1.4143,0.0,-1.3126,-1.2574,-1.221,-1.2575,-1.3834,-1.4923,-1.523,0.0,0.0,0.0,0.0,0.0,0.0,0.0,0.0,0.0,0.0,0.0,0.0,0.0,0.0,0.0,-3.4101,-3.4101,-3.4101,-3.4101,-3.4101,-3.4101,-3.4101,-3.4101,-3.4101,-3.4101,-3.4101,-3.4101,-3.4101,0.0,0.0,0.0,0.0,0.0,-3.4101,-3.4101,-3.4101,-3.4101,-3.4101,-3.4101,-3.4101,-3.4101,-3.4101,-3.4126,-3.4201,-3.43,-3.4448,-3.4667,-3.4899,-3.4899,-3.4899,-3.4899,-3.4899,-3.4899,-3.4899,-3.4899,-3.4899,-3.47,-3.3972,-3.427,-3.417,-3.2061,-3.21,-3.2133,-3.077,-3.0506,-3.0506,-3.0506,-3.0506,-3.0506,-3.0506,-3.0506,-3.0506,-3.0506,-3.0841,-3.1064,-3.1064,-3.175,-3.2197,-3.2197,-3.2639,-3.29,-3.29,-3.29,-3.29,-3.29,-3.29,-3.29,-3.29,-3.29,-3.29,-3.29,-3.29,-3.29,-3.29,-3.29,-3.29,-1.1283,0.0,-1.2989,-1.2604,-1.2792,-1.297,0.0,-1.2528,-1.2539,0.0,0.0,-1.2515,-1.3862,-1.4122,-1.5216,0.0,0.0,0.0,0.0,0.0,0.0,0.0,0.0,0.0,0.0,0.0,0.0,0.0,0.0,0.0,0.0,-3.4101,-3.4101,-3.4101,-3.4101,-3.4101,-3.4101,-3.4101,-3.4101,-3.4101,-3.4101,-3.4101,-3.4101,-3.4101,0.0,0.0,0.0,0.0,-3.4101,-3.4101,-3.4101,-3.4101,-3.4101,-3.4101,-3.4101,-3.4101,-3.4101,-3.4126,-3.4226,-3.4201,-3.4201,-3.4423,-3.4667,-3.4899,-3.4899,-3.4899,-3.4899,-3.4899,-3.4899,-3.4899,-3.4899,-3.4899,-3.47,-3.3972,-3.3491,-3.2911,-3.183,-3.1283,-3.0903,-3.0572,-3.0506,-3.0506,-3.0506,-3.0506,-3.0506,-3.0506,-3.0506,-3.0506,-3.0506,-3.0572,-3.0654,-3.0654,-3.1083,-3.1376,-3.1376,-3.23,-3.29,-3.29,-3.29,-3.29,-3.29,-3.29,-3.29,-3.29,-3.29,-3.29,-3.29,-3.29,-3.29,-3.29,-3.29,-3.29,-0.9835,-1.1164,-1.2398,-1.234,-1.2586,-1.2771,-1.2449,0.0,0.0,0.0,0.0,0.0,-1.3765,0.0,0.0,0.0,0.0,0.0,0.0,0.0,0.0,0.0,0.0,0.0,0.0,0.0,0.0,0.0,0.0,0.0,0.0,-3.4101,-3.4101,-3.4101,-3.4101,-3.4101,-3.4101,-3.4101,-3.4101,-3.4101,-3.4101,-3.4101,-3.4101,-3.4101,-3.4101,0.0,0.0,0.0,-3.4101,-3.4101,-3.4101,-3.4101,-3.4101,-3.4101,-3.4101,-3.4101,-3.4101,-3.4126,-3.4176,-3.425,-3.4325,-3.4521,-3.4715,-3.4899,-3.4899,-3.4899,-3.4899,-3.4899,-3.4899,-3.4899,-3.4899,-3.4899,-3.4618,-3.3541,-3.3265,-3.2812,-3.1399,-3.1052,-3.0903,-3.0572,-3.0506,-3.0506,-3.0506,-3.0506,-3.0506,-3.0506,-3.0506,-3.0506,-3.0506,-3.0506,-3.0506,-3.0506,-3.0861,-3.1164,-3.1357,-3.2127,-3.2605,-3.2605,-3.2786,-3.29,-3.29,-3.29,-3.29,-3.29,-3.29,-3.29,-3.29,-3.29,-3.29,-3.29,-3.29,-3.29,-0.9514,-1.1125,-1.2646,-1.3055,-1.3355,-1.351,-1.3409,0.0,0.0,0.0,0.0,0.0,0.0,0.0,0.0,0.0,0.0,0.0,0.0,0.0,0.0,0.0,0.0,0.0,0.0,0.0,0.0,0.0,0.0,0.0,0.0,-3.3777,-3.3777,-3.3777,-3.389,-3.3939,-3.3939,-3.4052,-3.4101,-3.4101,-3.4101,-3.4101,-3.4101,-3.4101,-3.4101,0.0,0.0,0.0,-3.4101,-3.4101,-3.4101,-3.4101,-3.4101,-3.4101,-3.4101,-3.4101,-3.4101,-3.4101,-3.4101,-3.43,-3.4546,-3.4643,-3.4763,-3.4899,-3.4899,-3.4899,-3.4899,-3.4899,-3.4816,-3.4717,-3.4717,-3.4651,-3.422,-3.2845,-3.2994,-3.2911,-3.0919,-3.0986,-3.125,-3.0621,-3.0506,-3.0506,-3.0506,-3.0506,-3.0506,-3.0506,-3.0506,-3.0506,-3.0506,-3.0506,-3.0506,-3.0506,-3.0801,-3.1181,-3.1565,-3.1985,-3.2231,-3.2301,-3.2688,-3.29,-3.29,-3.29,-3.29,-3.29,-3.29,-3.29,-3.29,-3.29,-3.29,-3.29,-3.29,-3.29,-1.0289,-1.2033,-1.3134,-1.2659,-1.3369,-1.4036,0.0,0.0,0.0,0.0,0.0,0.0,0.0,0.0,0.0,0.0,0.0,0.0,0.0,0.0,0.0,0.0,0.0,0.0,0.0,0.0,0.0,0.0,0.0,0.0,0.0,0.0,-3.2319,-3.2319,-3.2919,-3.3242,-3.3242,-3.3809,-3.4101,-3.4101,-3.4101,-3.4101,-3.4101,-3.4101,-3.4101,0.0,0.0,-3.4101,-3.4101,-3.4101,-3.4101,-3.4101,-3.4101,-3.4101,-3.4101,-3.4101,-3.4101,-3.4101,-3.4101,-3.4349,-3.4643,-3.4546,-3.4691,-3.4899,-3.4899,-3.4899,-3.4899,-3.4899,-3.4435,-3.3955,-3.3955,-3.3514,-3.2812,-3.1962,-3.1863,-3.1664,-3.0704,-3.0588,-3.0638,-3.0522,-3.0506,-3.0506,-3.0506,-3.0506,-3.0506,-3.0506,-3.0506,-3.0506,-3.0506,-3.0506,-3.0506,-3.0506,-3.0551,-3.076,-3.1162,-3.1547,-3.1949,-3.2283,-3.2688,-3.29,-3.29,-3.29,-3.29,-3.29,-3.29,-3.29,-3.29,-3.29,-3.29,-3.29,-3.29,-3.29,-0.9304,-1.098,-1.2414,-1.2831,-1.4413,-1.5792,0.0,0.0,0.0,0.0,0.0,0.0,0.0,0.0,0.0,0.0,0.0,0.0,0.0,0.0,0.0,0.0,0.0,0.0,0.0,0.0,0.0,0.0,0.0,0.0,0.0,0.0,-3.2012,-3.2012,-3.2336,-3.2514,-3.2514,-3.2821,-3.3161,-3.355,-3.3922,-3.3906,-3.3566,-3.3922,-3.4101,-3.4101,0.0,-3.4101,-3.4101,-3.4101,-3.4101,-3.4101,-3.4101,-3.4101,-3.4101,-3.4101,-3.4101,-3.4126,-3.4176,-3.4325,-3.4497,-3.4497,-3.4618,-3.4787,-3.4787,-3.4851,-3.4816,-3.4419,-3.4054,-3.3889,-3.4286,-3.3839,-3.3193,-3.2878,-3.2796,-3.2481,-3.1333,-3.1085,-3.0986,-3.0572,-3.0506,-3.0506,-3.0506,-3.0506,-3.0506,-3.0506,-3.0506,-3.0506,-3.0506,-3.0506,-3.0506,-3.0506,-3.0506,-3.074,-3.1376,-3.1584,-3.195,-3.2589,-3.2786,-3.29,-3.29,-3.29,-3.29,-3.29,-3.29,-3.29,-3.29,-3.29,-3.29,-3.29,-3.29,-3.29,-0.8668,-1.0127,-1.1757,-1.3198,0.0,-1.6864,0.0,0.0,0.0,0.0,0.0,0.0,0.0,0.0,0.0,0.0,0.0,0.0,0.0,0.0,0.0,0.0,0.0,0.0,0.0,0.0,0.0,0.0,0.0,0.0,0.0,0.0,-3.151,-3.151,-3.1672,-3.1729,-3.1729,-3.1891,-3.2287,-3.2838,-3.3356,-3.334,-3.2854,-3.3372,-3.3615,-3.3615,-3.3615,-3.3615,-3.3615,-3.3793,-3.3874,-3.3874,-3.4036,-3.4101,-3.4101,-3.4101,-3.4101,-3.4126,-3.4226,-3.43,-3.4374,-3.4472,-3.4618,-3.4756,-3.4756,-3.4712,-3.4518,-3.3955,-3.3541,-3.3442,-3.4187,-3.3707,-3.3061,-3.3243,-3.3143,-3.2729,-3.1581,-3.135,-3.1184,-3.0605,-3.0506,-3.0506,-3.0506,-3.0506,-3.0506,-3.0506,-3.0506,-3.0506,-3.0506,-3.0506,-3.0506,-3.0506,-3.0572,-3.0965,-3.1769,-3.1914,-3.2249,-3.285,-3.29,-3.29,-3.29,-3.29,-3.29,-3.29,-3.29,-3.29,-3.29,-3.29,-3.29,-3.29,-3.29,-3.29,-0.9688,-1.0774,-1.1837,-1.3612,0.0,0.0,0.0,0.0,0.0,0.0,0.0,0.0,0.0,0.0,0.0,0.0,0.0,0.0,0.0,0.0,0.0,0.0,0.0,0.0,0.0,0.0,0.0,0.0,0.0,0.0,0.0,0.0,0.0,-3.0042,-3.0652,-3.0985,-3.0985,-3.1672,-3.2044,-3.2093,-3.2141,-3.2141,-3.2093,-3.2141,-3.2158,-3.2158,-3.2158,-3.2158,-3.2206,-3.2886,-3.3161,-3.3226,-3.3858,-3.4101,-3.4101,-3.4101,-3.4101,-3.4101,-3.4126,-3.4275,-3.4497,-3.4497,-3.4667,-3.4899,-3.4899,-3.4419,-3.3856,-3.3806,-3.2812,-3.1929,-3.2663,-3.1802,-3.0903,-3.1598,-3.1234,-3.0704,-3.0605,-3.0572,-3.0555,-3.0506,-3.0506,-3.0506,-3.0506,-3.0506,-3.0506,-3.0506,-3.0506,-3.0506,-3.0506,-3.0506,-3.0506,-3.0506,-3.0841,-3.1376,-3.2179,-3.2588,-3.2852,-3.29,-3.29,-3.29,-3.29,-3.29,-3.29,-3.29,-3.29,-3.29,-3.29,-3.29,-3.29,-3.29,-3.29,-3.29,-0.8351,-0.9919,-1.1701,-1.3221,0.0,0.0,0.0,0.0,0.0,0.0,0.0,0.0,0.0,0.0,0.0,0.0,0.0,0.0,0.0,0.0,0.0,0.0,0.0,0.0,0.0,0.0,0.0,0.0,0.0,0.0,0.0,0.0,0.0,-2.9896,-3.0156,-3.0285,-3.0285,-3.0561,-3.069,-3.0707,-3.1575,-3.1746,-3.1325,-3.1778,-3.2012,-3.2012,-3.2012,-3.2012,-3.2028,-3.2303,-3.2417,-3.2433,-3.2708,-3.2789,-3.2854,-3.3307,-3.3469,-3.3534,-3.3955,-3.4176,-3.4275,-3.4349,-3.4497,-3.4585,-3.4211,-3.3975,-3.3607,-3.2696,-3.2028,-3.1763,-3.2497,-3.1951,-3.1366,-3.2116,-3.2067,-3.1735,-3.1283,-3.1184,-3.1052,-3.0588,-3.0506,-3.0506,-3.0506,-3.0506,-3.0506,-3.0506,-3.0506,-3.0506,-3.0506,-3.0506,-3.0506,-3.0506,-3.0861,-3.1223,-3.1528,-3.2162,-3.2539,-3.2539,-3.2753,-3.29,-3.29,-3.29,-3.29,-3.29,-3.29,-3.29,-3.29,-3.29,-3.29,-3.29,-3.29,-3.29,-0.8122,-0.9819,-1.1851,0.0,0.0,0.0,0.0,0.0,0.0,0.0,0.0,0.0,0.0,0.0,0.0,0.0,0.0,0.0,0.0,0.0,0.0,0.0,0.0,0.0,0.0,0.0,0.0,0.0,0.0,0.0,0.0,0.0,0.0,0.0,-2.9896,-2.9896,-2.9896,-2.9896,-2.9896,-2.9896,-3.0885,-3.1073,-3.0603,-3.1105,-3.1332,-3.1332,-3.1332,-3.1332,-3.1348,-3.1575,-3.1778,-3.2012,-3.2012,-3.2012,-3.206,-3.2562,-3.274,-3.2805,-3.3275,-3.3461,-3.351,-3.3608,-3.3729,-3.3751,-3.336,-3.3178,-3.2867,-3.1879,-3.1432,-3.1366,-3.1868,-3.1615,-3.1432,-3.2183,-3.2166,-3.1868,-3.1366,-3.125,-3.1101,-3.0605,-3.0506,-3.0506,-3.0506,-3.0506,-3.0506,-3.0506,-3.0506,-3.0506,-3.0506,-3.0506,-3.0551,-3.0675,-3.0965,-3.1223,-3.1395,-3.1769,-3.2127,-3.2471,-3.2639,-3.277,-3.29,-3.29,-3.29,-3.29,-3.29,-3.29,-3.29,-3.29,-3.29,-3.29,-3.29,-3.29,-0.9485,-1.0832,0.0,0.0,0.0,0.0,0.0,0.0,0.0,0.0,0.0,0.0,0.0,0.0,0.0,0.0,0.0,0.0,0.0,0.0,0.0,0.0,0.0,0.0,0.0,0.0,0.0,0.0,0.0,0.0,0.0,0.0,0.0,0.0,-2.9896,-2.9896,-2.9896,-2.9896,-2.9896,-2.9896,-2.9896,-2.9896,-2.9896,-2.9896,-2.9896,-2.9896,-2.9896,-2.9896,-2.9945,-3.0635,-3.1325,-3.1996,-3.1996,-3.1996,-3.1996,-3.1996,-3.1996,-3.1996,-3.2012,-3.2082,-3.2199,-3.2199,-3.2292,-3.2413,-3.2478,-3.2028,-3.1506,-3.1576,-3.1068,-3.0506,-3.0506,-3.0506,-3.0688,-3.1416,-3.1035,-3.0506,-3.0506,-3.0506,-3.0506,-3.0506,-3.0506,-3.0506,-3.0506,-3.0506,-3.0506,-3.0506,-3.0506,-3.0506,-3.0506,-3.0506,-3.0654,-3.1044,-3.1223,-3.1511,-3.2039,-3.1604,-3.1751,-3.2802,-3.2505,-3.2471,-3.2884,-3.29,-3.29,-3.29,-3.29,-3.29,-3.29,-3.29,-3.29,-3.29,-3.29,-3.29,-0.9459,0.0,0.0,0.0,0.0,0.0,0.0,0.0,0.0,0.0,0.0,0.0,0.0,0.0,0.0,0.0,0.0,0.0,0.0,0.0,0.0,0.0,0.0,0.0,0.0,0.0,0.0,0.0,0.0,0.0,0.0,0.0,0.0,0.0,-2.9896,-2.9896,-2.9896,-2.9896,-2.9896,-2.9896,-2.9896,-2.9896,-2.9896,-2.9896,-2.9896,-2.9896,-2.9896,-2.9896,-2.9935,-3.0107,-3.0334,-3.0528,-3.0528,-3.0528,-3.0593,-3.1034,-3.1228,-3.1292,-3.181,-3.2035,-3.2082,-3.2176,-3.2222,-3.2194,-3.1896,-3.1649,-3.1407,-3.0948,-3.0671,-3.0506,-3.0506,-3.0506,-3.0555,-3.077,-3.0654,-3.0506,-3.0506,-3.0506,-3.0506,-3.0506,-3.0506,-3.0506,-3.0506,-3.0506,-3.0506,-3.0506,-3.0506,-3.0506,-3.0506,-3.0506,-3.0568,-3.0675,-3.072,-3.0784,-3.0965,-3.0825,-3.0865,-3.1203,-3.2162,-3.2787,-3.29,-3.29,-3.29,-3.29,-3.29,-3.29,-3.29,-3.29,-3.29,-3.29,-3.29,-3.29,-1.1173,0.0,0.0,0.0,0.0,0.0,0.0,0.0,0.0,0.0,0.0,0.0,0.0,0.0,0.0,0.0,0.0,0.0,0.0,0.0,0.0,0.0,0.0,0.0,0.0,0.0,0.0,0.0,0.0,0.0,0.0,0.0,0.0,0.0,-2.9313,-2.9313,-2.9038,-2.9605,-2.9751,-2.9459,-2.9751,-2.9896,-2.9896,-2.9896,-2.9896,-2.9896,-2.9896,-2.9896,-2.9896,-2.9896,-2.9896,-2.9896,-2.9896,-2.9896,-2.9945,-3.0344,-3.0506,-3.0571,-3.1008,-3.1154,-3.1177,-3.1268,-3.1313,-3.1283,-3.1057,-3.1013,-3.0978,-3.0617,-3.0506,-3.0506,-3.0506,-3.0506,-3.0506,-3.0506,-3.0506,-3.0506,-3.0506,-3.0506,-3.0506,-3.0506,-3.0506,-3.0506,-3.0506,-3.0506,-3.0506,-3.0506,-3.0506,-3.0506,-3.0506,-3.0506,-3.0506,-3.0506,-3.0506,-3.0506,-3.0506,-3.0506,-3.0781,-3.1397,-3.2074,-3.2571,-3.2884,-3.29,-3.29,-3.29,-3.29,-3.29,-3.29,-3.29,-3.29,-3.29,-3.29,-3.29,0.0,0.0,0.0,0.0,0.0,0.0,0.0,0.0,0.0,0.0,0.0,0.0,0.0,0.0,0.0,0.0,0.0,0.0,0.0,0.0,0.0,0.0,0.0,0.0,0.0,0.0,0.0,0.0,0.0,0.0,0.0,0.0,0.0,-2.7705,-2.8336,-2.8369,-2.7721,-2.9038,-2.9362,0.0,-2.9378,-2.9686,-2.9702,-2.9832,-2.9896,-2.9896,-2.9896,-2.9896,-2.9896,-2.9896,-2.9896,-2.9896,-2.9896,-2.9896,-2.9896,-2.9896,-2.9896,-2.9896,-2.9896,-2.9896,-2.9896,-2.9896,-2.9946,-3.0017,-3.0146,-3.029,-3.0396,-3.0485,-3.0506,-3.0506,-3.0506,-3.0506,-3.0506,-3.0506,-3.0506,-3.0506,-3.0506,-3.0506,-3.0506,-3.0506,-3.0506,-3.0506,-3.0506,-3.0506,-3.0506,-3.0506,-3.0506,-3.0506,-3.0506,-3.0506,-3.0506,-3.0506,-3.0506,-3.0506,-3.0506,-3.0506,-3.1125,-3.2588,-3.1985,-3.1985,-3.285,-3.29,-3.29,-3.29,-3.29,-3.29,-3.29,-3.29,-3.29,-3.29,-3.29,-3.29,0.0,0.0,0.0,0.0,0.0,0.0,0.0,0.0,0.0,0.0,0.0,0.0,0.0,0.0,0.0,0.0,0.0,0.0,0.0,0.0,0.0,0.0,0.0,0.0,0.0,0.0,0.0,0.0,0.0,0.0,0.0,0.0,0.0,-2.7705,-2.785,-2.7867,-2.7705,-2.8012,-2.8093,0.0,-2.8093,-2.8174,-2.8207,-2.9362,-2.9896,-2.9896,-2.9896,-2.9896,-2.9896,-2.9896,-2.9896,-2.9896,-2.9896,-2.9896,-2.9896,-2.9896,-2.9896,-2.9896,-2.9896,-2.9896,-2.9896,-2.9896,-2.9902,-2.9946,-3.0146,-3.021,-3.0274,-3.0464,-3.0464,-3.0422,-3.0485,-3.0464,-3.0422,-3.0485,-3.0506,-3.0506,-3.0506,-3.0506,-3.0506,-3.0506,-3.0506,-3.0506,-3.0506,-3.0506,-3.0506,-3.0506,-3.0506,-3.0506,-3.0506,-3.0506,-3.0506,-3.0506,-3.0506,-3.0506,-3.0506,-3.0506,-3.0654,-3.0988,-3.0845,-3.1414,-3.2834,-3.29,-3.29,-3.29,-3.29,-3.29,-3.29,-3.29,-3.29,-3.29,-3.29,-3.29,0.0,0.0,0.0,0.0,0.0,0.0,0.0,0.0,0.0,0.0,0.0,0.0,0.0,0.0,0.0,0.0,0.0,0.0,0.0,0.0,0.0,0.0,0.0,0.0,0.0,0.0,0.0,0.0,0.0,0.0,0.0,-2.6354,-2.627,-2.6086,-2.6589,-2.6727,-2.6354,-2.7247,-2.7543,-2.7235,-2.7559,-2.7705,-2.7737,-2.8876,-2.9362,-2.9394,-2.9734,-2.9896,-2.9896,-2.9896,-2.9896,-2.9896,-2.9896,-2.9896,-2.9896,-2.9896,-2.9896,-2.9896,-2.9896,-2.9896,-2.9896,-2.9896,-2.9924,-2.9968,-3.006,-3.0146,-3.0231,-3.0401,-3.0438,-3.0417,-3.0468,-3.0485,-3.0464,-3.0506,-3.0506,-3.0506,-3.0506,-3.0506,-3.0506,-3.0506,-3.0506,-3.0506,-3.0506,-3.0506,-3.0506,-3.0506,-3.0506,-3.0506,-3.0506,-3.0506,-3.0506,-3.0506,-3.0506,-3.0506,-3.0506,-3.0506,-3.0506,-3.0506,-3.0506,-3.1223,-3.2834,-3.29,-3.29,-3.29,-3.29,-3.29,-3.29,-3.29,-3.29,-3.29,-3.29,-3.29,0.0,0.0,0.0,0.0,0.0,0.0,0.0,0.0,0.0,0.0,0.0,0.0,0.0,0.0,0.0,0.0,0.0,0.0,0.0,0.0,0.0,0.0,0.0,0.0,0.0,0.0,0.0,0.0,0.0,0.0,-2.4819,-2.4799,-2.4639,-2.4302,-2.5284,-2.5523,-2.4918,-2.6515,-2.7057,-2.6523,-2.7073,-2.7348,-2.7365,-2.8093,-2.8563,-2.8843,-2.9443,-2.9783,-2.9896,-2.9896,-2.9896,-2.9896,-2.9896,-2.9896,-2.9896,-2.9896,-2.9896,-2.9896,-2.9896,-2.9896,-2.9896,-2.9896,-2.9946,-2.9973,-2.9995,-3.0081,-3.0189,-3.0354,-3.0396,-3.0396,-3.0485,-3.0506,-3.0485,-3.0506,-3.0506,-3.0506,-3.0506,-3.0506,-3.0506,-3.0506,-3.0506,-3.0506,-3.0506,-3.0506,-3.0506,-3.0506,-3.0506,-3.0506,-3.0506,-3.0506,-3.0506,-3.0506,-3.0506,-3.0506,-3.0506,-3.0506,-3.0613,-3.0905,-3.0925,-3.1511,-3.2834,-3.29,-3.29,-3.29,-3.29,-3.29,-3.29,-3.29,-3.29,-3.29,-3.29,-3.29,0.0,0.0,0.0,0.0,0.0,0.0,0.0,0.0,0.0,0.0,0.0,0.0,0.0,0.0,0.0,0.0,0.0,0.0,0.0,0.0,0.0,0.0,0.0,0.0,0.0,0.0,0.0,0.0,0.0,0.0,-2.4385,-2.4385,-2.4364,-2.4302,-2.4793,-2.4997,-2.4902,-2.5551,-2.584,-2.5743,-2.584,-2.5872,-2.5904,-2.6636,-2.764,-2.8811,-2.8908,-2.9313,-2.9896,-2.9896,-2.9896,-2.9896,-2.9896,-2.9896,-2.9896,-2.9896,-2.9896,-2.9896,-2.9896,-2.9896,-2.9896,-2.9896,-2.9918,-2.9924,-2.9973,-3.0017,-3.0081,-3.0333,-3.0333,-3.0274,-3.0464,-3.0464,-3.0422,-3.0485,-3.0506,-3.0506,-3.0506,-3.0506,-3.0506,-3.0506,-3.0506,-3.0506,-3.0506,-3.0506,-3.0506,-3.0506,-3.0506,-3.0506,-3.0506,-3.0506,-3.0506,-3.0506,-3.0506,-3.0506,-3.0506,-3.0506,-3.1086,-3.2487,-3.2588,-3.267,-3.29,-3.29,-3.29,-3.29,-3.29,-3.29,-3.29,-3.29,-3.29,-3.29,-3.29,-3.29,0.0,0.0,0.0,0.0,0.0,0.0,0.0,0.0,0.0,0.0,0.0,0.0,0.0,0.0,0.0,0.0,0.0,0.0,0.0,0.0,0.0,0.0,0.0,0.0,0.0,0.0,0.0,0.0,0.0,-2.4198,-2.3931,-2.3909,-2.3909,-2.3909,-2.4333,-2.4679,-2.4902,-2.5375,-2.5597,-2.5597,-2.5597,-2.5597,-2.5613,-2.594,-2.6652,-2.764,-2.8012,-2.8595,-2.9281,-2.9281,-2.9524,-2.9896,-2.9896,-2.9896,-2.9896,-2.9896,-2.9896,-2.9896,-2.9896,-2.9896,-2.9896,-2.9896,-2.9896,-2.9918,-2.9924,-2.9946,-2.9989,-3.0124,-3.0124,-3.0124,-3.0295,-3.0359,-3.0401,-3.0384,-3.0464,-3.0506,-3.0506,-3.0506,-3.0506,-3.0506,-3.0506,-3.0506,-3.0506,-3.0506,-3.0506,-3.0506,-3.0506,-3.0506,-3.0506,-3.0506,-3.0506,-3.0506,-3.0506,-3.0506,-3.0506,-3.0506,-3.0784,-3.1511,-3.1548,-3.1548,-3.1548,-3.242,-3.29,-3.29,-3.29,-3.29,-3.29,-3.29,-3.29,-3.29,-3.29,-3.29,0.0,0.0,0.0,0.0,0.0,0.0,0.0,0.0,0.0,0.0,0.0,0.0,0.0,0.0,0.0,0.0,0.0,0.0,0.0,0.0,0.0,0.0,0.0,0.0,0.0,0.0,0.0,0.0,0.0,-2.3797,-2.3436,-2.3414,-2.348,-2.3595,-2.4073,-2.4492,-2.4902,-2.5375,-2.5597,-2.5597,-2.5597,-2.5597,-2.5597,-2.5597,-2.5907,-2.6458,-2.7154,-2.785,-2.8514,-2.8514,-2.8973,-2.9621,-2.9621,-2.9718,-2.9896,-2.9896,-2.9896,-2.9896,-2.9896,-2.9896,-2.9896,-2.9896,-2.9896,-2.9896,-2.9896,-2.9896,-2.9902,-2.9968,-2.9973,-3.0011,-3.0141,-3.0248,-3.0333,-3.0295,-3.038,-3.0485,-3.0506,-3.0506,-3.0506,-3.0506,-3.0506,-3.0506,-3.0506,-3.0506,-3.0506,-3.0506,-3.0506,-3.0506,-3.0506,-3.0506,-3.0506,-3.0506,-3.0506,-3.0506,-3.0506,-3.0506,-3.0506,-3.0506,-3.0506,-3.0506,-3.0506,-3.1641,-3.2283,-3.2283,-3.2487,-3.2705,-3.29,-3.29,-3.29,-3.29,-3.29,-3.29,0.0,0.0,0.0,0.0,0.0,0.0,0.0,0.0,0.0,0.0,0.0,0.0,0.0,0.0,0.0,0.0,0.0,0.0,0.0,0.0,0.0,0.0,0.0,0.0,0.0,0.0,0.0,0.0,0.0,-2.2955,-2.2933,-2.2933,-2.3142,-2.3588,-2.4073,-2.4492,-2.4902,-2.5375,-2.5597,-2.5597,-2.5597,-2.5597,-2.5597,-2.5597,-2.5613,-2.5694,-2.6426,-2.7138,-2.7769,-2.7769,-2.819,-2.8876,-2.8876,-2.9281,-2.9896,-2.9896,-2.9896,-2.9896,-2.9896,-2.9896,-2.9896,-2.9896,-2.9896,-2.9896,-2.9896,-2.9896,-2.9896,-2.9902,-2.9918,-2.994,-3.0071,-3.0114,-3.0119,-3.0189,-3.0312,-3.0422,-3.0485,-3.0506,-3.0506,-3.0506,-3.0506,-3.0506,-3.0506,-3.0506,-3.0506,-3.0506,-3.0506,-3.0506,-3.0506,-3.0506,-3.0506,-3.0506,-3.0506,-3.0506,-3.0506,-3.0506,-3.0506,-3.0506,-3.0506,-3.0506,-3.0506,-3.0572,-3.0634,-3.0634,-3.1376,-3.2144,-3.29,-3.29,-3.29,-3.29,-3.29,-3.29,0.0,0.0,0.0,0.0,0.0,0.0,0.0,0.0,0.0,0.0,0.0,0.0,0.0,0.0,0.0,0.0,0.0,0.0,0.0,0.0,0.0,0.0,0.0,0.0,0.0,0.0,0.0,0.0,0.0,0.0,-2.1685,-2.1685,-2.1896,-2.2373,-2.2536,-2.3194,-2.4312,-2.4869,-2.5301,-2.5597,-2.5597,-2.5597,-2.5597,-2.5597,-2.5597,-2.5613,-2.5872,-2.6409,-2.7057,-2.7057,-2.7478,-2.8093,-2.8093,-2.8255,-2.8547,-2.9021,-2.92,-2.9264,-2.9734,-2.9896,-2.9896,-2.9896,-2.9896,-2.9896,-2.9896,-2.9896,-2.9896,-2.9896,-2.9896,-2.9902,-2.9962,-2.9968,-3.0011,-3.0231,-3.038,-3.0464,-3.0489,-3.0506,-3.0506,-3.0506,-3.0506,-3.0506,-3.0506,-3.0506,-3.0506,-3.0506,-3.0506,-3.0506,-3.0506,-3.0506,-3.0506,-3.0506,-3.0506,-3.0506,-3.0506,-3.0506,-3.0506,-3.0506,-3.0506,-3.0506,-3.0506,-3.0506,-3.0506,-3.0506,-3.0781,-3.1319,-3.2144,-3.2403,-3.2505,-3.2505,-3.277,-3.29,0.0,0.0,0.0,0.0,0.0,0.0,0.0,0.0,0.0,0.0,0.0,0.0,0.0,0.0,0.0,0.0,0.0,0.0,0.0,0.0,0.0,0.0,0.0,0.0,0.0,0.0,0.0,0.0,0.0,0.0,-2.1003,-2.1003,-2.1213,-2.1689,-2.1851,-2.2432,-2.3453,-2.3967,-2.4522,-2.5059,-2.5188,-2.5354,-2.5597,-2.5597,-2.5597,-2.5597,-2.5597,-2.5872,-2.6328,-2.6328,-2.6749,-2.7365,-2.7365,-2.751,-2.7769,-2.8255,-2.8433,-2.853,-2.9264,-2.9524,-2.9572,-2.9815,-2.9896,-2.9896,-2.9896,-2.9896,-2.9896,-2.9896,-2.9896,-2.9896,-2.9896,-2.9896,-2.9968,-3.021,-3.0338,-3.0422,-3.0506,-3.0506,-3.0506,-3.0506,-3.0506,-3.0506,-3.0506,-3.0506,-3.0506,-3.0506,-3.0506,-3.0506,-3.0506,-3.0506,-3.0506,-3.0506,-3.0506,-3.0506,-3.0506,-3.0506,-3.0506,-3.0506,-3.0506,-3.0506,-3.0506,-3.0506,-3.0506,-3.0506,-3.0506,-3.0845,-3.1565,-3.1914,-3.2091,-3.2109,-3.2471,-3.2737,0.0,0.0,0.0,0.0,0.0,0.0,0.0,0.0,0.0,0.0,0.0,0.0,0.0,0.0,0.0,0.0,0.0,0.0,0.0,0.0,0.0,0.0,0.0,0.0,0.0,0.0,0.0,0.0,0.0,-2.0944,-2.0944,-2.0944,-2.1134,-2.161,-2.2095,-2.2356,-2.2356,-2.2723,-2.3253,-2.3973,-2.4305,-2.4839,-2.5532,-2.5549,-2.5565,-2.5565,-2.5581,-2.5597,-2.5597,-2.5597,-2.6037,-2.6668,-2.6668,-2.7073,-2.764,-2.7672,-2.7672,-2.7786,-2.8498,-2.8778,-2.8892,-2.9589,-2.9848,-2.9896,-2.9896,-2.9896,-2.9896,-2.9896,-2.9896,-2.9896,-2.9896,-2.9896,-2.9946,-3.0146,-3.0189,-3.0253,-3.0464,-3.0506,-3.0506,-3.0506,-3.0506,-3.0506,-3.0506,-3.0506,-3.0506,-3.0506,-3.0506,-3.0506,-3.0506,-3.0506,-3.0506,-3.0506,-3.0506,-3.0506,-3.0506,-3.0506,-3.0506,-3.0506,-3.0506,-3.0506,-3.0506,-3.0506,-3.0506,-3.0506,-3.0506,-3.076,-3.1281,-3.1547,-3.1712,-3.1714,-3.1986,-3.2403,-0.7526,0.0,0.0,0.0,0.0,0.0,0.0,0.0,0.0,0.0,0.0,0.0,0.0,0.0,0.0,0.0,0.0,0.0,0.0,0.0,0.0,0.0,0.0,0.0,0.0,0.0,0.0,0.0,-1.9624,-1.9624,-1.9624,-1.9624,-1.9681,-1.9815,-2.0658,-2.1126,-2.1186,-2.2272,-2.2943,-2.3206,-2.3597,-2.3885,-2.4112,-2.458,-2.479,-2.4822,-2.5373,-2.5597,-2.5597,-2.5597,-2.571,-2.5907,-2.5907,-2.6037,-2.6244,-2.6782,-2.6976,-2.7073,-2.7769,-2.7996,-2.8045,-2.8239,-2.9038,-2.9896,-2.9896,-2.9896,-2.9896,-2.9896,-2.9896,-2.9896,-2.9896,-2.9896,-2.9902,-2.9968,-3.021,-3.0426,-3.0506,-3.0506,-3.0506,-3.0506,-3.0506,-3.0506,-3.0506,-3.0506,-3.0506,-3.0506,-3.0506,-3.0506,-3.0506,-3.0506,-3.0506,-3.0506,-3.0506,-3.0506,-3.0506,-3.0506,-3.0506,-3.0506,-3.0506,-3.0506,-3.0506,-3.0506,-3.0506,-3.0506,-3.0506,-3.0572,-3.072,-3.1184,-3.1604,-3.2003,-3.2453,-3.2753,0.0,0.0,0.0,0.0,0.0,0.0,0.0,0.0,0.0,0.0,0.0,0.0,0.0,0.0,0.0,0.0,0.0,0.0,0.0,0.0,0.0,0.0,0.0,0.0,0.0,0.0,0.0,-1.9101,-1.9101,-1.9101,-1.9101,-1.9101,-1.9101,-1.9101,-1.9673,-2.0,-2.0042,-2.1008,-2.1748,-2.2245,-2.2616,-2.3035,-2.3512,-2.3901,-2.4079,-2.4128,-2.4839,-2.5146,-2.5163,-2.5468,-2.5597,-2.5597,-2.5597,-2.5597,-2.5646,-2.6085,-2.6247,-2.6345,-2.7041,-2.7284,-2.7332,-2.7624,-2.8142,-2.8762,-2.9167,-2.9151,-2.9119,-2.9718,-2.9896,-2.9896,-2.9896,-2.9896,-2.9896,-2.9896,-3.0076,-3.0253,-3.0253,-3.0253,-3.0295,-3.0485,-3.0506,-3.0506,-3.0506,-3.0506,-3.0506,-3.0506,-3.0506,-3.0506,-3.0506,-3.0506,-3.0506,-3.0506,-3.0506,-3.0506,-3.0506,-3.0506,-3.0506,-3.0506,-3.0506,-3.0506,-3.0506,-3.0506,-3.0506,-3.0506,-3.0506,-3.0506,-3.0506,-3.1145,-3.1471,-3.1435,-3.1751,-3.2248,0.0,0.0,0.0,0.0,0.0,0.0,-1.201,-1.1758,0.0,0.0,0.0,0.0,0.0,0.0,0.0,0.0,0.0,0.0,0.0,0.0,0.0,0.0,0.0,0.0,0.0,-1.9101,-1.9101,-1.9101,-1.9101,-1.9101,-1.9101,-1.9101,-1.9101,-1.9101,-1.9139,-1.9139,-1.9101,-1.953,-2.0228,-2.1134,-2.1523,-2.2234,-2.3201,-2.3317,-2.3366,-2.3415,-2.4095,-2.4436,-2.4547,-2.5211,-2.5532,-2.5597,-2.5597,-2.5597,-2.5597,-2.5597,-2.5597,-2.5678,-2.6361,-2.6571,-2.6685,-2.7284,-2.7235,-2.7106,-2.7846,-2.7862,-2.7867,-2.9086,-2.9524,-2.9686,-2.9848,-2.9896,-2.9896,-2.9896,-2.9896,-2.9896,-2.9896,-2.9896,-3.0011,-3.0359,-3.0485,-3.0506,-3.0506,-3.0506,-3.0506,-3.0506,-3.0506,-3.0506,-3.0506,-3.0506,-3.0506,-3.0506,-3.0506,-3.0506,-3.0506,-3.0506,-3.0506,-3.0506,-3.0506,-3.0506,-3.0506,-3.0506,-3.0506,-3.0506,-3.0506,-3.0506,-3.0506,-3.1395,-3.1471,-3.0781,-3.0781,-3.1529,-1.0959,-1.1503,-1.1967,0.0,0.0,0.0,0.0,-1.0204,0.0,0.0,0.0,0.0,0.0,0.0,0.0,0.0,0.0,0.0,0.0,0.0,0.0,0.0,0.0,0.0,0.0,-1.9101,-1.9101,-1.9101,-1.9101,-1.9101,-1.9101,-1.9101,-1.9101,-1.9101,-1.9402,-1.9435,-1.9101,-1.9767,-2.0058,-2.0014,-2.068,-2.1113,-2.1355,-2.2229,-2.2604,-2.2637,-2.3382,-2.3998,-2.4517,-2.4662,-2.5065,-2.5597,-2.5597,-2.5597,-2.5597,-2.5597,-2.5597,-2.5613,-2.5759,-2.5807,-2.5824,-2.5969,-2.6361,-2.6685,-2.626,-2.662,-2.7041,-2.6571,-2.7267,-2.8401,-2.9589,-2.9896,-2.9896,-2.9896,-2.9896,-2.9896,-2.9896,-2.9896,-2.9924,-2.9989,-3.0274,-3.0506,-3.0506,-3.0506,-3.0506,-3.0506,-3.0506,-3.0506,-3.0506,-3.0506,-3.0506,-3.0506,-3.0506,-3.0506,-3.0506,-3.0506,-3.0506,-3.0506,-3.0506,-3.0506,-3.0506,-3.0506,-3.0506,-3.0506,-3.0506,-3.0506,-3.0489,-3.1967,-3.2588,-3.2437,-3.2437,-3.2605,0.0,0.0,-1.2854,-1.2221,0.0,0.0,0.0,0.0,0.0,0.0,0.0,0.0,0.0,0.0,0.0,0.0,0.0,0.0,0.0,0.0,0.0,0.0,0.0,0.0,0.0,-1.8927,-1.9101,-1.9101,-1.9101,-1.9101,-1.9101,-1.9101,-1.9101,-1.9101,-1.9306,-1.9291,-1.9101,-1.946,-1.9675,-1.9708,-2.0241,-2.0613,-2.0826,-2.152,-2.1859,-2.1892,-2.262,-2.3139,-2.3479,-2.3852,-2.4436,-2.5098,-2.5451,-2.5597,-2.5597,-2.5597,-2.5597,-2.5597,-2.5597,-2.5597,-2.5597,-2.5597,-2.584,-2.6085,-2.571,-2.594,-2.6215,-2.5726,-2.6099,-2.683,-2.7559,-2.7774,-2.813,-2.9556,-2.9896,-2.9896,-2.9896,-2.9896,-2.9896,-2.9896,-3.0055,-3.0253,-3.0464,-3.0506,-3.0506,-3.0506,-3.0506,-3.0506,-3.0506,-3.0506,-3.0506,-3.0506,-3.0506,-3.0506,-3.0506,-3.0506,-3.0506,-3.0506,-3.0506,-3.0506,-3.0506,-3.0506,-3.0506,-3.0506,-3.0506,-3.0506,-3.0506,-3.1302,-3.2127,-3.29,-3.29,-3.29,0.0,0.0,0.0,0.0,0.0,-1.2106,0.0,0.0,0.0,-1.2052,0.0,0.0,0.0,0.0,0.0,0.0,0.0,0.0,0.0,0.0,0.0,0.0,0.0,0.0,0.0,-1.8158,-1.8579,-1.9058,-1.8753,-1.8709,-1.9087,-1.9101,-1.9101,-1.9101,-1.9101,-1.9101,-1.9101,-1.9101,-1.9269,-1.9599,-1.9997,-2.0378,-2.0696,-2.1119,-2.1293,-2.1325,-2.194,-2.2264,-2.2442,-2.3042,-2.369,-2.4387,-2.5114,-2.5468,-2.5597,-2.5597,-2.5597,-2.5597,-2.5597,-2.5597,-2.5597,-2.5597,-2.5597,-2.5597,-2.5597,-2.5597,-2.5597,-2.5597,-2.5597,-2.5597,-2.5597,-2.5597,-2.6199,-2.8519,-2.907,-2.907,-2.907,-2.9507,-2.9896,-2.9896,-2.9896,-2.9989,-3.0338,-3.0443,-3.0468,-3.0401,-3.038,-3.0422,-3.0506,-3.0506,-3.0485,-3.0401,-3.0464,-3.0506,-3.0506,-3.0506,-3.0506,-3.0506,-3.0506,-3.0506,-3.0506,-3.0506,-3.0506,-3.0506,-3.0506,-3.0506,-3.0506,-3.0506,-3.1338,-3.29,-3.29,-3.29,0.0,0.0,0.0,0.0,-1.4193,0.0,0.0,0.0,-1.1394,-1.0007,0.0,0.0,0.0,0.0,0.0,0.0,0.0,0.0,0.0,0.0,0.0,0.0,0.0,0.0,0.0,0.0,-1.6677,-1.8927,-1.7505,-1.7287,-1.9014,-1.9101,-1.9101,-1.9101,-1.9101,-1.9101,-1.9101,-1.9101,-1.912,-1.9176,-1.9859,-2.0225,-2.0294,-2.099,-2.1293,-2.1293,-2.139,-2.1811,-2.241,-2.2491,-2.2961,-2.3674,-2.4371,-2.5017,-2.5597,-2.5597,-2.5597,-2.5597,-2.5597,-2.5597,-2.5597,-2.5597,-2.5597,-2.5597,-2.5597,-2.5597,-2.5597,-2.5597,-2.5597,-2.5597,-2.5597,-2.5597,-2.5678,-2.6002,-2.6082,-2.6082,-2.6082,-2.8114,-2.9896,-2.9896,-2.9896,-2.9902,-2.9946,-3.0253,-3.038,-3.0011,-2.9968,-3.0098,-3.0464,-3.0506,-3.0359,-3.0011,-3.0295,-3.0506,-3.0506,-3.0506,-3.0506,-3.0506,-3.0506,-3.0506,-3.0506,-3.0506,-3.0506,-3.0506,-3.0506,-3.0506,-3.0506,-3.0506,-3.1338,-3.29,-3.29,-3.29,0.0,0.0,0.0,0.0,0.0,0.0,-1.2071,0.0,-1.1477,0.0,0.0,0.0,0.0,0.0,0.0,0.0,0.0,0.0,0.0,0.0,0.0,0.0,0.0,0.0,0.0,0.0,0.0,0.0,0.0,-1.6485,-1.8477,-1.8579,-1.8738,-1.9087,-1.9101,-1.9101,-1.9101,-1.9101,-1.9232,-1.9453,-1.9962,-2.0311,-2.0579,-2.1071,-2.1293,-2.1293,-2.1293,-2.1471,-2.1762,-2.1762,-2.2199,-2.2896,-2.3155,-2.3964,-2.4968,-2.4968,-2.5243,-2.5597,-2.5597,-2.5597,-2.5597,-2.5597,-2.5597,-2.5597,-2.5597,-2.5597,-2.5597,-2.5597,-2.5597,-2.5597,-2.5597,-2.5597,-2.5597,-2.5597,-2.5597,-2.5597,-2.5597,-2.6555,-2.7899,-2.9572,-2.9896,-2.9896,-2.9896,-3.0033,-3.0098,-2.994,-2.9896,-2.9946,-3.0141,-3.0146,-3.0184,-3.0231,-3.0401,-3.0506,-3.0506,-3.0506,-3.0506,-3.0506,-3.0506,-3.0506,-3.0506,-3.0506,-3.0506,-3.0506,-3.0506,-3.0506,-3.0506,-3.0506,-3.0845,-3.1511,-3.1511,-3.2003,-1.5179,0.0,0.0,0.0,0.0,0.0,0.0,0.0,0.0,0.0,0.0,0.0,0.0,0.0,0.0,0.0,0.0,0.0,0.0,0.0,0.0,0.0,0.0,0.0,0.0,0.0,0.0,0.0,0.0,0.0,-1.7534,-1.7838,-1.8216,-1.884,-1.9014,-1.9101,-1.9101,-1.9101,-1.925,-1.9545,-1.9892,-2.0258,-2.0646,-2.1006,-2.1214,-2.1293,-2.1293,-2.1293,-2.1293,-2.1293,-2.1633,-2.2102,-2.2102,-2.2847,-2.395,-2.416,-2.4677,-2.5308,-2.5308,-2.5419,-2.5597,-2.5597,-2.5597,-2.5597,-2.5597,-2.5597,-2.5597,-2.5597,-2.5597,-2.5597,-2.5597,-2.5597,-2.5597,-2.5597,-2.5597,-2.5597,-2.5597,-2.5597,-2.6231,-2.8325,-2.9362,-2.9896,-2.9896,-2.9896,-2.9896,-2.9896,-2.9896,-2.9896,-2.9896,-2.9896,-3.0055,-3.0464,-3.0506,-3.0506,-3.0506,-3.0506,-3.0506,-3.0506,-3.0506,-3.0506,-3.0506,-3.0506,-3.0506,-3.0506,-3.0506,-3.0506,-3.0506,-3.0506,-3.0506,-3.0506,-3.0506,-3.1125,0.0,0.0,0.0,-1.3289,0.0,0.0,0.0,0.0,-1.2458,0.0,0.0,0.0,0.0,0.0,0.0,0.0,0.0,0.0,0.0,0.0,0.0,0.0,0.0,0.0,0.0,0.0,0.0,0.0,0.0,0.0,-1.6081,-1.688,-1.7548,-1.8216,-1.8796,-1.9101,-1.9101,-1.9101,-1.9101,-1.912,-1.9512,-1.9892,-2.0225,-2.0629,-2.099,-2.1293,-2.1293,-2.1293,-2.1293,-2.1293,-2.1309,-2.1342,-2.1342,-2.1811,-2.2539,-2.3269,-2.3966,-2.4549,-2.4549,-2.5001,-2.5597,-2.5597,-2.5597,-2.5597,-2.5597,-2.5597,-2.5597,-2.5597,-2.5597,-2.5597,-2.5597,-2.5597,-2.5597,-2.5597,-2.5597,-2.5597,-2.5597,-2.5597,-2.5629,-2.571,-2.798,-2.9896,-2.9896,-2.9896,-2.9896,-2.9896,-2.9896,-2.9896,-2.9896,-2.9896,-3.0055,-3.0464,-3.0506,-3.0506,-3.0506,-3.0506,-3.0506,-3.0506,-3.0506,-3.0506,-3.0506,-3.0506,-3.0506,-3.0506,-3.0506,-3.0506,-3.0506,-3.0506,-3.0506,-3.0506,-3.0506,-3.0531,0.0,0.0,-1.5521,-1.4323,0.0,0.0,0.0,0.0,0.0,0.0,0.0,0.0,0.0,0.0,0.0,0.0,0.0,0.0,0.0,0.0,0.0,0.0,0.0,0.0,0.0,0.0,0.0,0.0,0.0,0.0,0.0,-1.6634,-1.7519,-1.8187,-1.8796,-1.9101,-1.9101,-1.9101,-1.9232,-1.9493,-1.9636,-1.9889,-2.0208,-2.0344,-2.0613,-2.0974,-2.0974,-2.1087,-2.1293,-2.1293,-2.1293,-2.1293,-2.1293,-2.1455,-2.1762,-2.2491,-2.3512,-2.4581,-2.5065,-2.5387,-2.5597,-2.5597,-2.5597,-2.5597,-2.5597,-2.5597,-2.5597,-2.5597,-2.5597,-2.5597,-2.5597,-2.5597,-2.5597,-2.5597,-2.5597,-2.5597,-2.5597,-2.5597,-2.5597,-2.5597,-2.7915,-2.9896,-2.9896,-2.9896,-2.9896,-2.9896,-2.9896,-2.9896,-2.9896,-2.9896,-2.9946,-3.0098,-3.0098,-3.021,-3.0485,-3.0506,-3.0506,-3.0506,-3.0506,-3.0506,-3.0506,-3.0506,-3.0506,-3.0506,-3.0506,-3.0506,-3.0506,-3.0506,-3.0506,-3.0506,-3.0506,-3.0506,-1.5792,-1.5792,0.0,-1.4768,-1.403,0.0,-1.2279,0.0,0.0,0.0,0.0,0.0,0.0,0.0,0.0,0.0,0.0,0.0,0.0,0.0,0.0,0.0,0.0,0.0,0.0,0.0,-1.0753,-1.1911,0.0,0.0,0.0,0.0,-1.7139,-1.7824,-1.8666,-1.9101,-1.9101,-1.9101,-1.9232,-1.949,-1.949,-1.9675,-2.0015,-2.0015,-2.0224,-2.0596,-2.0596,-2.0795,-2.1119,-2.1119,-2.1183,-2.1293,-2.1293,-2.1293,-2.1358,-2.1843,-2.2912,-2.4257,-2.4968,-2.5371,-2.5597,-2.5597,-2.5597,-2.5597,-2.5597,-2.5597,-2.5597,-2.5597,-2.5597,-2.5597,-2.5597,-2.5597,-2.5597,-2.5597,-2.5597,-2.5597,-2.5597,-2.5597,-2.5597,-2.5597,-2.7106,-2.8535,-2.9038,-2.954,-2.9896,-2.9896,-2.9896,-2.9896,-2.9896,-2.9896,-2.9896,-2.9896,-2.9896,-2.9989,-3.0253,-3.0274,-3.0274,-3.0274,-3.0422,-3.0506,-3.0506,-3.0506,-3.0506,-3.0506,-3.0506,-3.0506,-3.0506,-3.0506,-3.0506,-3.0506,-3.0506,-3.0506]}]]